[[{"header":{"parameterUnit":"m.s-1","parameterCategory":1,"la1":31.0,"la2":29.5877,"lo1":-88.7671,"lo2":-86.6584,"dy":0.0162,"dx":0.0185,"nx":115,"ny":88,"refTime":"2023-09-16T12:00:00:Z","depth":0,"parameterNumber":2,"parameterNumberName":"U-component_of_WINDS"},"data":[0.0,0.0,0.0,0.0,0.0,0.0,0.0,0.0,0.0,0.0,0.0,0.0,0.0,0.0,0.0,0.0,0.0,0.0,0.0,0.0,0.0,0.0,0.0,0.0,0.0,0.0,0.0,0.0,0.0,0.0,0.0,0.0,0.0,0.0,0.0,0.0,0.0,0.0,0.0,0.0,0.0,0.0,0.0,0.0,0.0,0.0,0.0,0.0,0.0,0.0,0.0,0.0,0.0,0.0,0.0,0.0,0.0,0.0,0.0,0.0,0.0,0.0,0.0,0.0,0.0,0.0,0.0,0.0,0.0,0.0,0.0,0.0,0.0,0.0,0.0,0.0,0.0,0.0,0.0,0.0,0.0,0.0,0.0,0.0,0.0,0.0,0.0,0.0,0.0,0.0,0.0,0.0,0.0,0.0,0.0,0.0,0.0,0.0,0.0,0.0,0.0,0.0,0.0,0.0,0.0,0.0,0.0,0.0,0.0,0.0,0.0,0.0,0.0,0.0,0.0,0.0,0.0,0.0,0.0,0.0,0.0,0.0,0.0,0.0,0.0,0.0,0.0,0.0,0.0,0.0,0.0,0.0,0.0,0.0,0.0,0.0,0.0,0.0,0.0,0.0,0.0,0.0,0.0,0.0,0.0,0.0,0.0,0.0,0.0,0.0,0.0,0.0,0.0,0.0,0.0,0.0,0.0,0.0,0.0,0.0,0.0,0.0,0.0,0.0,0.0,0.0,0.0,0.0,0.0,0.0,0.0,0.0,0.0,0.0,0.0,0.0,0.0,0.0,0.0,0.0,0.0,0.0,0.0,0.0,0.0,0.0,0.0,0.0,0.0,0.0,0.0,0.0,0.0,0.0,0.0,0.0,0.0,0.0,0.0,0.0,0.0,0.0,0.0,0.0,0.0,0.0,0.0,0.0,0.0,0.0,0.0,0.0,0.0,0.0,0.0,0.0,0.0,0.0,0.0,0.0,0.0,0.0,0.0,0.0,0.0,0.0,0.0,0.0,0.0,0.0,0.0,0.0,0.0,0.0,0.0,0.0,0.0,0.0,0.0,0.0,0.0,0.0,0.0,0.0,0.0,0.0,0.0,0.0,0.0,0.0,0.0,0.0,0.0,0.0,0.0,0.0,0.0,0.0,0.0,0.0,0.0,0.0,0.0,0.0,0.0,0.0,0.0,0.0,0.0,0.0,0.0,0.0,0.0,0.0,0.0,0.0,0.0,0.0,0.0,0.0,0.0,0.0,0.0,0.0,0.0,0.0,0.0,0.0,0.0,0.0,0.0,0.0,0.0,0.0,0.0,0.0,0.0,0.0,0.0,0.0,0.0,0.0,0.0,0.0,0.0,0.0,0.0,0.0,0.0,0.0,0.0,0.0,0.0,0.0,0.0,0.0,0.0,0.0,0.0,0.0,0.0,0.0,0.0,0.0,0.0,0.0,0.0,0.0,0.0,0.0,0.0,0.0,0.0,0.0,0.0,0.0,0.0,0.0,0.0,0.0,0.0,0.0,0.0,0.0,0.0,0.0,0.0,0.0,0.0,0.0,0.0,0.0,0.0,0.0,0.0,0.0,0.0,0.0,0.0,0.0,0.0,0.0,0.0,0.0,0.0,0.0,0.0,0.0,0.0,0.0,0.0,0.0,0.0,0.0,0.0,0.0,0.0,0.0,0.0,0.0,0.0,0.0,0.0,0.0,0.0,0.0,0.0,0.0,0.0,0.0,0.0,0.0,0.0,0.0,0.0,0.0,0.0,0.0,0.0,0.0,0.0,0.0,0.0,0.0,0.0,0.0,0.0,0.0,0.0,0.0,0.0,0.0,0.0,0.0,0.0,0.0,0.0,0.0,0.0,0.0,0.0,0.0,0.0,0.0,0.0,0.0,0.0,0.0,0.0,0.0,0.0,0.0,0.0,0.0,0.0,0.0,0.0,0.0,0.0,0.0,0.0,0.0,0.0,0.0,0.0,0.0,0.0,0.0,0.0,0.0,0.0,0.0,0.0,0.0,0.0,0.0,0.0,0.0,0.0,0.0,0.0,0.0,0.0,0.0,0.0,0.0,0.0,0.0,0.0,0.0,0.0,0.0,0.0,0.0,0.0,0.0,0.0,0.0,0.0,0.0,0.0,0.0,0.0,0.0,0.0,0.0,0.0,0.0,0.0,0.0,0.0,0.0,0.0,0.0,0.0,0.0,0.0,0.0,0.0,0.0,0.0,0.0,0.0,0.0,0.0,0.0,0.0,0.0,0.0,0.0,0.0,0.0,0.0,0.0,0.0,0.0,0.0,0.0,0.0,0.0,0.0,0.0,0.0,0.0,0.0,0.0,0.0,0.0,0.0,0.0,0.0,0.0,0.0,0.0,0.0,0.0,0.0,0.0,0.0,0.0,0.0,0.0,0.0,0.0,0.0,0.0,0.0,0.0,0.0,0.0,0.0,0.0,0.0,0.0,0.0,0.0,0.0,0.0,0.0,0.0,0.0,0.0,0.0,0.0,0.0,0.0,0.0,0.0,0.0,0.0,0.0,0.0,0.0,0.0,0.0,0.0,0.0,0.0,0.0,0.0,0.0,0.0,0.0,0.0,0.0,0.0,0.0,0.0,0.0,0.0,0.0,0.0,0.0,0.0,0.0,0.0,0.0,0.0,0.0,0.0,0.0,0.0,0.0,0.0,0.0,0.0,0.0,0.0,0.0,0.0,0.0,0.0,0.0,0.0,0.0,0.0,0.0,0.0,0.0,0.0,0.0,0.0,0.0,0.0,0.0,0.0,0.0,0.0,0.0,0.0,0.0,0.0,0.0,0.0,0.0,0.0,0.0,0.0,0.0,0.0,0.0,0.0,0.0,0.0,0.0,0.0,0.0,0.0,0.0,0.0,0.0,0.0,0.0,0.0,0.0,0.0,0.0,0.0,0.0,0.0,0.0,0.0,0.0,0.0,0.0,0.0,0.0,0.0,0.0,0.0,0.0,0.0,0.0,0.0,0.0,0.0,0.0,0.0,0.0,0.0,0.0,0.0,0.0,0.0,0.0,0.0,0.0,0.0,0.0,0.0,0.0,0.0,0.0,0.0,0.0,0.0,0.0,0.0,0.0,0.0,0.0,0.0,0.0,0.0,0.0,0.0,0.0,0.0,0.0,0.0,0.0,0.0,0.0,0.0,0.0,0.0,0.0,0.0,0.0,0.0,0.0,0.0,0.0,0.0,0.0,0.0,0.0,0.0,0.0,0.0,0.0,0.0,0.0,0.0,0.0,0.0,0.0,0.0,0.0,0.0,0.0,0.0,0.0,0.0,0.0,0.0,0.0,0.0,0.0,0.0,0.0,0.0,0.0,0.0,0.0,0.0,0.0,0.0,0.0,0.0,0.0,0.0,0.0,0.0,0.0,0.0,0.0,0.0,0.0,0.0,0.0,0.0,0.0,0.0,0.0,0.0,0.0,0.0,0.0,0.0,0.0,0.0,0.0,0.0,0.0,0.0,0.0,0.0,0.0,0.0,0.0,0.0,0.0,0.0,0.0,0.0,0.0,0.0,0.0,0.0,0.0,0.0,0.0,0.0,0.0,0.0,0.0,0.0,0.0,0.0,0.0,0.0,0.0,0.0,0.0,0.0,0.0,0.0,0.0,0.0,0.0,0.0,0.0,0.0,0.0,0.0,0.0,0.0,0.0,0.0,0.0,0.0,0.0,0.0,0.0,0.0,0.0,0.0,0.0,0.0,0.0,0.0,0.0,0.0,0.0,0.0,0.0,0.0,0.0,0.0,0.0,0.0,0.0,0.0,0.0,0.0,0.0,0.0,0.0,0.0,0.0,0.0,0.0,0.0,0.0,0.0,0.0,0.0,0.0,0.0,0.0,0.0,0.0,0.0,0.0,0.0,0.0,0.0,0.0,0.0,0.0,0.0,0.0,0.0,0.0,0.0,0.0,0.0,0.0,0.0,0.0,0.0,0.0,0.0,0.0,0.0,0.0,0.0,0.0,0.0,0.0,0.0,0.0,0.0,0.0,0.0,0.0,0.0,0.0,0.0,0.0,0.0,0.0,0.0,0.0,0.0,0.0,0.0,0.0,0.0,0.0,0.0,0.0,0.0,0.0,0.0,0.0,0.0,0.0,0.0,0.0,0.0,0.0,0.0,0.0,0.0,0.0,0.0,0.0,0.0,0.0,0.0,0.0,0.0,0.0,0.0,0.0,0.0,0.0,0.0,0.0,0.0,0.0,0.0,0.0,0.0,0.0,0.0,0.0,0.0,0.0,0.0,0.0,0.0,0.0,0.0,0.2382,0.0,0.0,0.0,0.0,0.0,0.0,0.0,0.0,0.0,0.0,0.0,0.0,0.0,0.0,0.0,0.0,0.0,0.0,0.0,0.0,0.0,0.0,0.0,0.0,0.0,0.0,0.0,0.0,0.0,0.0,0.0,0.0,0.0,0.0,0.0,0.0,0.0,0.0,0.0,0.0,0.0,0.0,0.0,0.0,0.0,0.0,0.0,0.0,0.0,0.0,0.0,0.0,0.0,0.0,0.0,0.0,0.0,0.0,0.0,0.0,0.0,0.0,0.0,0.0,0.0,0.0,0.0,0.0,0.0,0.0,0.0,0.0,0.0,0.0,0.0,0.0,0.0,0.0,0.0,0.0,0.0,0.0,0.0,0.0,0.0,0.0,0.0,0.0,0.0,0.0,0.0,0.0,0.0,0.0,0.0,0.0,0.0,0.0,0.0,0.0,0.0,0.0,0.0,0.0,0.0,0.0,0.0,0.0,0.0,0.0,0.1339,0.1106,0.0905,0.0804,0.0805,0.0,0.0,0.0,0.0,0.0,0.0,0.0,0.0,0.0,0.0,0.0,0.0,0.0,0.0,0.0,0.0,0.0,0.0,0.0,0.0,0.0,0.0,0.0,0.0,0.0,0.0,0.0,0.0,0.0,0.0,0.0,0.0,0.0,0.0,0.0,0.0,0.0,0.0,0.0,0.0,0.0,0.0,0.0,0.0,0.0,0.0,0.0,0.0,0.0,0.0,0.0,0.0,0.0,0.0,0.0,0.0,0.0,0.0,0.0,0.0,0.0,0.0,0.0,0.0,0.0,0.0,0.0,0.0,0.0,0.0,0.0,0.0,0.0,0.0,0.0,0.0,0.0,0.0,0.0,0.0,0.0,0.0,0.0,0.0,0.0,0.0,0.0,0.0,0.0,0.0,0.0,0.0,0.0,0.0,0.0,0.0,0.0,0.0,0.0,0.0,0.0,0.0,0.0,0.0,0.0,0.0,0.0,0.0,0.0,0.0,0.0,0.0,-0.0937,-0.1005,-0.0771,0.0,0.0,0.0,0.0,0.0,0.0,0.0,0.0,0.0,0.0,0.0,0.0,0.0,0.0,0.0,0.0,0.0,0.0,0.0,0.0,0.0,0.0,0.0,0.0,0.0,0.0,0.0,0.0,0.0,0.0,0.0,0.0,0.0,0.0,0.0,0.0,0.0,0.0,0.0,0.0,0.0,0.0,0.0,0.0,0.0,0.0,0.0,0.0,0.0,0.0,0.0,0.0,0.0,0.0,0.0,0.0,0.0,0.0,0.0,0.0,0.0,0.0,0.0,0.0,0.0,0.0,0.0,0.0,0.0,0.0,0.0,0.0,0.0,0.0,0.0,0.0,0.0,0.0,0.0,0.0,0.0,0.0,0.0,0.0,0.0,0.0,0.0,0.0,0.0,0.0,0.0,0.0,0.0,0.0,0.0,0.0,0.0,0.0,0.0,0.0,0.0,0.0,0.0,0.0,0.0,0.0,0.0,0.0,0.0,0.0,-0.2509,-0.2644,-0.2841,0.0,-0.2209,0.0,0.0,0.0,0.0,0.0,0.0,0.0,0.0,0.0,0.0,0.0,0.0,0.0,0.0,0.0,0.0,0.0,0.0,0.0,0.0,0.0,0.0,0.0,0.0,0.0,0.0,0.0,0.0,0.0,0.0,0.0,0.0,0.0,0.0,0.0,0.0,0.0,0.0,0.0,0.0,0.0,0.0,0.0,0.0,0.0,0.0,0.0,0.0,0.0,0.0,0.0,0.0,0.0,0.0,0.0,0.0,0.0,0.0,0.0,0.0,0.0,0.0,0.0,0.0,0.0,0.0,0.0,0.0,0.0,0.0,0.0,0.0,0.0,0.0,0.0,0.0,0.0,0.0,0.0,0.0,0.0,0.0,0.0,0.0,0.0,0.0,0.0,0.0,0.0,0.0,0.0,0.0,0.0,0.0,0.0,0.0,0.0,0.0,0.0,0.0,0.0,0.0,0.0,0.0,0.0,0.0,0.0,0.0,0.0,0.0,-0.4373,-0.4665,-0.4764,-0.4599,0.0,0.0,0.0,0.0,0.0,0.0,0.0,0.0,0.0,0.0,0.0,0.0,0.0,0.0,0.0,0.0,0.0,0.0,0.0,0.0,0.0,0.0,0.0,0.0,0.0,0.0,0.0,0.0,0.0,0.0,0.0,0.0,0.0,0.0,0.0,0.0,0.0,0.0,0.0,0.0,0.0,0.0,0.0,0.0,0.0,0.0,0.0,0.0,0.0,0.0,0.0,0.0,0.0,0.0,0.0,0.0,0.0,0.0,0.0,0.0,0.0,0.0,0.0,0.0,0.0,0.0,0.0,0.0,0.0,0.0,0.0,0.0,0.0,0.0,0.0,0.0,0.0,0.0,0.0,0.0,0.0,0.0,0.0,0.0,0.0,0.0,0.0,0.0,0.0,0.0,0.0,0.0,0.0,0.0,0.0,0.0,0.0,0.0,0.0,0.0,0.0,0.0,0.0,0.0,0.0,0.0,0.0,0.0,0.0,0.0,-0.5925,-0.649,-0.6878,-0.6812,-0.656,-0.6092,0.0,0.0,0.0,0.0,0.0,0.0,0.0,0.0,0.0,0.0,0.0,0.0,0.0,0.0,0.0,0.0,0.0,0.0,0.0,0.0,0.0,0.0,0.0,0.0,0.0,0.0,0.0,0.0,0.0,0.0,0.0,0.0,0.0,0.0,0.0,0.0,0.0,0.0,0.0,0.0,0.0,0.0,0.0,0.0,0.0,0.0,0.0,0.0,0.0,0.0,0.0,0.0,0.0,0.0,0.0,0.0,0.0,0.0,0.0,0.0,0.0,0.0,0.0,0.0,0.0,0.0,0.0,0.0,0.0,0.0,0.0,0.0,0.0,0.0,0.0,0.0,0.0,0.0,0.0,0.0,0.0,0.0,0.0,0.0,0.0,0.0,0.0,0.0,0.0,0.0,0.0,0.0,0.0,0.0,0.0,0.0,0.0,0.0,0.0,0.0,0.0,0.0,0.0,0.0,0.0,0.0,0.0,0.0,-0.6832,-0.8115,-0.8997,-0.9303,-0.9036,-0.8628,0.0,0.0,0.0,0.0,0.0,0.0,0.0,0.0,0.0,0.0,0.0,0.0,0.0,0.0,0.0,0.0,0.0,0.0,0.0,0.0,0.0,0.0,0.0,0.0,0.0,0.0,0.0,0.0,0.0,0.0,0.0,0.0,0.0,0.0,0.0,0.0,0.0,0.0,0.0,0.0,0.0,0.0,0.0,0.0,0.0,0.0,0.0,0.0,0.0,0.0,0.0,0.0,0.0,0.0,0.0,0.0,0.0,0.0,0.0,0.0,0.0,0.0,0.0,0.0,0.0,0.0,0.0,0.0,0.0,0.0,0.0,0.0,0.0,0.0,0.0,0.0,0.0,0.0,0.0,0.0,0.0,0.0,0.0,0.0,0.0,0.0,0.0,0.0,0.0,0.0,0.0,0.0,0.0,0.0,0.0,0.0,0.0,0.0,0.0,0.0,0.0,0.0,0.0,0.0,0.0,0.0,0.0,0.0,0.0,-0.8493,-1.0103,-1.0961,-1.0968,-1.1001,-1.0541,0.0,0.0,0.0,0.0,0.0,0.0,0.0,0.0,0.0,0.0,0.0,0.0,0.0,0.0,0.0,0.0,0.0,0.0,0.0,0.0,0.0,0.0,0.0,0.0,0.0,0.0,0.0,0.0,0.0,0.0,0.0,0.0,0.0,0.0,0.0,0.0,0.0,0.0,0.0,0.0,0.0,0.0,0.0,0.0,0.0,0.0,0.0,0.0,0.0,0.0,0.0,0.0,0.0,0.0,0.0,0.0,0.0,0.0,0.0,0.0,0.0,0.0,0.0,0.0,0.0,0.0,0.0,0.0,0.0,0.0,0.0,0.0,0.0,0.0,0.0,0.0,0.0,0.0,0.0,0.0,0.0,0.0,0.0,0.0,0.0,0.0,0.0,0.0,0.0,0.0,0.0,0.0,0.0,0.0,0.0,0.0,0.0,0.0,0.0,0.0,0.0,0.0,0.0,0.0,0.0,0.0,0.0,0.0,0.0,-1.1007,0.0,-1.2913,-1.2872,-1.2945,-1.2522,0.0,0.0,0.0,0.0,0.0,0.0,0.0,0.0,0.0,0.0,0.0,0.0,0.0,0.0,0.0,0.0,0.0,0.0,0.0,0.0,0.0,0.0,0.0,0.0,0.0,0.0,0.0,0.0,0.0,0.0,0.0,0.0,0.0,0.0,0.0,0.0,0.0,0.0,0.0,0.0,0.0,0.0,0.0,0.0,0.0,0.0,0.0,0.0,0.0,0.0,0.0,0.0,0.0,0.0,0.0,0.0,0.0,0.0,0.0,0.0,0.0,0.0,0.0,0.0,0.0,0.0,0.0,0.0,0.0,0.0,0.0,0.0,0.0,0.0,0.0,0.0,0.0,0.0,0.0,0.0,0.0,0.0,0.0,0.0,0.0,0.0,0.0,0.0,0.0,0.0,0.0,0.0,0.0,0.0,0.0,0.0,0.0,0.0,0.0,0.0,0.0,0.0,0.0,0.0,0.0,0.0,0.0,0.0,-1.2279,-1.4454,-1.4588,-1.4768,-1.5127,-1.5012,-1.4547,0.0,0.0,0.0,0.0,0.0,0.0,0.0,0.0,0.0,0.0,0.0,0.0,0.0,0.0,0.0,0.0,0.0,0.0,0.0,0.0,0.0,0.0,0.0,0.0,0.0,0.0,0.0,0.0,0.0,0.0,0.0,0.0,0.0,0.0,0.0,0.0,0.0,0.0,0.0,0.0,0.0,0.0,0.0,0.0,0.0,0.0,0.0,0.0,0.0,0.0,0.0,0.0,0.0,0.0,0.0,0.0,0.0,0.0,0.0,0.0,0.0,0.0,0.0,0.0,0.0,0.0,0.0,0.0,0.0,0.0,0.0,0.0,0.0,0.0,0.0,0.0,0.0,0.0,0.0,0.0,0.0,0.0,0.0,0.0,0.0,0.0,0.0,0.0,0.0,0.0,0.0,0.0,0.0,0.0,0.0,0.0,0.0,0.0,0.0,0.0,0.0,0.0,0.0,0.0,0.0,0.0,0.0,0.0,0.0,-1.5894,-1.6218,-1.6702,-1.7328,-1.7009,-1.6506,0.0,0.0,0.0,0.0,0.0,0.0,0.0,0.0,0.0,0.0,0.0,0.0,0.0,0.0,0.0,0.0,0.0,0.0,0.0,0.0,0.0,0.0,0.0,0.0,0.0,0.0,0.0,0.0,0.0,0.0,0.0,0.0,0.0,0.0,0.0,0.0,0.0,0.0,0.0,0.0,0.0,0.0,0.0,0.0,0.0,0.0,0.0,0.0,0.0,0.0,0.0,0.0,0.0,0.0,0.0,0.0,0.0,0.0,0.0,0.0,0.0,0.0,0.0,0.0,0.0,0.0,0.0,0.0,0.0,0.0,0.0,0.0,0.0,0.0,0.0,0.0,0.0,0.0,0.0,0.0,0.0,0.0,0.0,0.0,0.0,0.0,0.0,0.0,0.0,0.0,0.0,0.0,0.0,0.0,0.0,0.0,0.0,0.0,0.0,0.0,0.0,0.0,0.0,0.0,0.0,0.0,0.0,0.0,0.0,-1.7953,-1.8143,-1.8562,-1.9248,-1.875,-1.8239,-1.7689,0.0,0.0,0.0,0.0,0.0,0.0,0.0,0.0,0.0,0.0,0.0,0.0,0.0,0.0,0.0,0.0,0.0,0.0,0.0,0.0,0.0,0.0,0.0,0.0,0.0,0.0,0.0,0.0,0.0,0.0,0.0,0.0,0.0,0.0,0.0,0.0,0.0,0.0,0.0,0.0,0.0,0.0,0.0,0.0,0.0,0.0,0.0,0.0,0.0,0.0,0.0,0.0,0.0,0.0,0.0,0.0,0.0,0.0,0.0,0.0,0.0,0.0,0.0,0.0,0.0,0.0,0.0,0.0,0.0,0.0,0.0,0.0,0.0,0.0,0.0,0.0,0.0,0.0,0.0,0.0,0.0,0.0,0.0,0.0,0.0,0.0,0.0,0.0,0.0,0.0,0.0,0.0,0.0,0.0,0.0,0.0,0.0,0.0,0.0,0.0,0.0,0.0,0.0,0.0,0.0,0.0,0.0,0.0,-2.0517,-2.0352,-2.0465,-2.0808,-2.0264,-1.9824,0.0,0.0,0.0,0.0,0.0,0.0,0.0,0.0,0.0,0.0,0.0,0.0,0.0,0.0,0.0,0.0,0.0,0.0,0.0,0.0,0.0,0.0,0.0,0.0,0.0,0.0,0.0,0.0,0.0,0.0,0.0,0.0,0.0,0.0,0.0,0.0,0.0,0.0,0.0,0.0,0.0,0.0,0.0,0.0,0.0,0.0,0.0,0.0,0.0,0.0,0.0,0.0,0.0,0.0,0.0,0.0,0.0,0.0,0.0,0.0,0.0,0.0,0.0,0.0,0.0,0.0,0.0,0.0,0.0,0.0,0.0,0.0,0.0,0.0,0.0,0.0,0.0,0.0,0.0,0.0,0.0,0.0,0.0,0.0,0.0,0.0,0.0,0.0,0.0,0.0,0.0,0.0,0.0,0.0,0.0,0.0,0.0,0.0,0.0,0.0,0.0,0.0,0.0,0.0,0.0,0.0,0.0,0.0,0.0,-2.2013,-2.3094,-2.3306,-2.2515,-2.2189,-2.181,0.0,0.0,0.0,0.0,0.0,0.0,0.0,0.0,0.0,0.0,0.0,0.0,0.0,0.0,0.0,0.0,0.0,0.0,0.0,0.0,0.0,0.0,0.0,0.0,0.0,0.0,0.0,0.0,0.0,0.0,0.0,0.0,0.0,0.0,0.0,0.0,0.0,0.0,0.0,0.0,0.0,0.0,0.0,0.0,0.0,0.0,0.0,0.0,0.0,0.0,0.0,0.0,0.0,0.0,0.0,0.0,0.0,0.0,0.0,0.0,0.0,0.0,0.0,0.0,0.0,0.0,0.0,0.0,0.0,0.0,0.0,0.0,0.0,0.0,0.0,0.0,0.0,0.0,0.0,0.0,0.0,0.0,0.0,0.0,0.0,0.0,0.0,0.0,0.0,0.0,0.0,0.0,0.0,0.0,0.0,0.0,0.0,0.0,0.0,0.0,0.0,0.0,0.0,0.0,0.0,0.0,0.0,0.0,-2.2168,-2.3436,-2.4805,-2.5199,-2.4563,-2.4039,-2.3424,0.0,0.0,0.0,0.0,0.0,0.0,0.0,0.0,0.0,0.0,0.0,0.0,0.0,0.0,0.0,0.0,0.0,0.0,0.0,0.0,0.0,0.0,0.0,0.0,0.0,0.0,0.0,0.0,0.0,0.0,0.0,0.0,0.0,0.0,0.0,0.0,0.0,0.0,0.0,0.0,0.0,0.0,0.0,0.0,0.0,0.0,0.0,0.0,0.0,0.0,0.0,0.0,0.0,0.0,0.0,0.0,0.0,0.0,0.0,0.0,0.0,0.0,0.0,0.0,0.0,0.0,0.0,0.0,0.0,0.0,0.0,0.0,0.0,0.0,0.0,0.0,0.0,0.0,0.0,0.0,0.0,0.0,0.0,0.0,0.0,0.0,0.0,0.0,0.0,0.0,0.0,0.0,0.0,0.0,0.0,0.0,0.0,0.0,0.0,0.0,0.0,0.0,0.0,0.0,0.0,0.0,0.0,0.0,-2.313,-2.4776,-2.5858,-2.6534,-2.6792,-2.5798,-2.4819,0.0,0.0,0.0,0.0,0.0,0.0,0.0,0.0,0.0,0.0,0.0,0.0,0.0,0.0,0.0,0.0,0.0,0.0,0.0,0.0,0.0,0.0,0.0,0.0,0.0,0.0,0.0,0.0,0.0,0.0,0.0,0.0,0.0,0.0,0.0,0.0,0.0,0.0,0.0,0.0,0.0,0.0,0.0,0.0,0.0,0.0,0.0,0.0,0.0,0.0,0.0,0.0,0.0,0.0,0.0,0.0,0.0,0.0,0.0,0.0,0.0,0.0,0.0,0.0,0.0,0.0,0.0,0.0,0.0,0.0,0.0,0.0,0.0,0.0,0.0,0.0,0.0,0.0,0.0,0.0,0.0,0.0,0.0,0.0,0.0,0.0,0.0,0.0,0.0,0.0,0.0,0.0,0.0,0.0,0.0,0.0,0.0,0.0,0.0,0.0,0.0,0.0,0.0,0.0,0.0,0.0,0.0,0.0,-2.4109,-2.6187,-2.7243,-2.7969,-2.8322,-2.7341,-2.6092,0.0,0.0,0.0,0.0,0.0,0.0,0.0,0.0,0.0,0.0,0.0,0.0,0.0,0.0,0.0,0.0,0.0,0.0,0.0,0.0,0.0,0.0,0.0,0.0,0.0,0.0,0.0,0.0,0.0,0.0,0.0,0.0,0.0,0.0,0.0,0.0,0.0,0.0,0.0,0.0,0.0,0.0,0.0,0.0,0.0,0.0,0.0,0.0,-1.1888,0.0,0.0,0.0,0.0,0.0,0.0,0.0,0.0,0.0,0.0,0.0,0.0,0.0,0.0,0.0,0.0,0.0,0.0,0.0,0.0,0.0,0.0,0.0,0.0,0.0,0.0,0.0,0.0,0.0,0.0,0.0,0.0,0.0,0.0,0.0,0.0,0.0,0.0,0.0,0.0,0.0,0.0,0.0,0.0,0.0,0.0,0.0,0.0,0.0,0.0,0.0,0.0,0.0,0.0,0.0,0.0,0.0,0.0,0.0,-2.4567,-2.6764,-2.7569,-2.8174,-2.8517,-2.8248,-2.7211,0.0,0.0,0.0,0.0,0.0,0.0,0.0,0.0,0.0,0.0,0.0,0.0,0.0,0.0,0.0,0.0,0.0,0.0,0.0,0.0,0.0,0.0,0.0,0.0,0.0,0.0,0.0,0.0,0.0,0.0,0.0,0.0,0.0,0.0,0.0,0.0,0.0,0.0,0.0,0.0,0.0,0.0,0.0,0.0,0.0,0.0,0.0,0.0,0.0,0.0,0.0,0.0,0.0,0.0,0.0,0.0,0.0,0.0,0.0,0.0,0.0,0.0,0.0,0.0,0.0,0.0,0.0,0.0,0.0,0.0,0.0,0.0,0.0,0.0,0.0,0.0,0.0,0.0,0.0,0.0,0.0,0.0,0.0,0.0,0.0,0.0,0.0,0.0,0.0,0.0,0.0,0.0,0.0,0.0,0.0,0.0,0.0,0.0,0.0,0.0,0.0,0.0,0.0,0.0,0.0,0.0,0.0,-2.3592,-2.4873,-2.7016,-2.7585,-2.8032,-2.8446,-2.8701,-2.7972,-2.6161,0.0,0.0,0.0,0.0,0.0,0.0,0.0,0.0,0.0,0.0,0.0,0.0,0.0,0.0,0.0,0.0,0.0,0.0,0.0,0.0,0.0,0.0,0.0,0.0,0.0,0.0,0.0,0.0,0.0,0.0,0.0,0.0,0.0,0.0,0.0,0.0,0.0,0.0,-1.2185,-1.324,0.0,0.0,0.0,0.0,0.0,0.0,0.0,0.0,-1.5643,0.0,0.0,0.0,0.0,0.0,0.0,0.0,0.0,0.0,0.0,0.0,0.0,0.0,0.0,0.0,0.0,0.0,0.0,0.0,0.0,0.0,0.0,0.0,0.0,0.0,0.0,0.0,0.0,0.0,0.0,0.0,0.0,0.0,0.0,0.0,0.0,0.0,0.0,0.0,0.0,0.0,0.0,0.0,0.0,0.0,0.0,0.0,0.0,0.0,0.0,0.0,0.0,0.0,0.0,0.0,0.0,-2.3565,-2.4016,-2.5369,-2.769,-2.8113,-2.851,-2.9012,-2.8728,-2.8007,-2.6892,0.0,0.0,0.0,0.0,0.0,0.0,0.0,0.0,0.0,0.0,0.0,0.0,0.0,0.0,0.0,0.0,0.0,0.0,0.0,0.0,0.0,0.0,0.0,0.0,0.0,0.0,0.0,0.0,0.0,0.0,0.0,0.0,0.0,0.0,0.0,0.0,0.0,0.0,0.0,-1.5985,-1.6687,0.0,0.0,0.0,0.0,0.0,0.0,0.0,0.0,-1.6233,0.0,0.0,0.0,0.0,0.0,0.0,0.0,0.0,0.0,0.0,0.0,0.0,0.0,0.0,0.0,0.0,0.0,0.0,0.0,0.0,0.0,0.0,0.0,0.0,0.0,0.0,0.0,0.0,0.0,0.0,0.0,0.0,0.0,0.0,0.0,0.0,0.0,0.0,0.0,0.0,0.0,0.0,0.0,0.0,0.0,0.0,0.0,0.0,0.0,0.0,0.0,0.0,0.0,0.0,0.0,-2.3203,-2.4024,-2.5221,-2.6872,-2.7617,-2.8207,-2.866,-2.8355,-2.7863,0.0,0.0,0.0,0.0,0.0,0.0,0.0,0.0,0.0,0.0,0.0,0.0,0.0,0.0,0.0,0.0,0.0,0.0,0.0,0.0,0.0,0.0,0.0,0.0,0.0,0.0,0.0,0.0,0.0,0.0,0.0,0.0,0.0,0.0,0.0,0.0,0.0,0.0,0.0,0.0,-1.7506,-1.83,-1.891,0.0,0.0,0.0,0.0,0.0,0.0,-1.8721,-1.8318,0.0,0.0,0.0,0.0,0.0,0.0,0.0,0.0,0.0,0.0,0.0,0.0,0.0,0.0,0.0,0.0,0.0,0.0,0.0,0.0,0.0,0.0,0.0,0.0,0.0,0.0,0.0,0.0,0.0,0.0,0.0,0.0,0.0,0.0,0.0,0.0,0.0,0.0,0.0,0.0,0.0,0.0,0.0,0.0,0.0,0.0,0.0,0.0,0.0,0.0,0.0,0.0,0.0,0.0,0.0,-2.2948,-2.3992,-2.4969,-2.5994,-2.7055,-2.7815,-2.822,-2.7899,-2.7554,0.0,0.0,0.0,0.0,0.0,0.0,0.0,0.0,0.0,0.0,0.0,0.0,0.0,0.0,0.0,0.0,0.0,0.0,0.0,0.0,0.0,0.0,0.0,0.0,0.0,0.0,0.0,0.0,0.0,0.0,0.0,0.0,0.0,0.0,0.0,0.0,0.0,0.0,0.0,0.0,0.0,-1.9782,-2.0266,-2.086,0.0,0.0,0.0,0.0,-2.0795,-2.0719,0.0,0.0,0.0,0.0,0.0,0.0,0.0,0.0,0.0,0.0,0.0,0.0,0.0,0.0,0.0,0.0,0.0,0.0,0.0,0.0,0.0,0.0,0.0,0.0,0.0,0.0,0.0,0.0,0.0,0.0,0.0,0.0,0.0,0.0,0.0,0.0,0.0,0.0,0.0,0.0,0.0,0.0,0.0,0.0,0.0,0.0,0.0,0.0,0.0,0.0,0.0,0.0,0.0,0.0,0.0,0.0,-2.3108,-2.4056,-2.4994,-2.5994,-2.7055,-2.785,-2.8332,-2.7545,-2.7195,0.0,0.0,0.0,0.0,0.0,0.0,0.0,0.0,0.0,0.0,0.0,0.0,0.0,0.0,0.0,0.0,0.0,0.0,0.0,0.0,0.0,0.0,0.0,0.0,0.0,0.0,0.0,0.0,0.0,0.0,0.0,0.0,0.0,0.0,0.0,0.0,0.0,0.0,0.0,0.0,0.0,-2.1634,-2.2412,-2.325,-2.3616,0.0,0.0,-2.2764,-2.1847,-2.1738,0.0,0.0,0.0,0.0,0.0,0.0,0.0,0.0,0.0,0.0,0.0,0.0,0.0,0.0,0.0,0.0,0.0,0.0,0.0,0.0,0.0,0.0,0.0,0.0,0.0,0.0,0.0,0.0,0.0,0.0,0.0,0.0,0.0,0.0,0.0,0.0,0.0,0.0,0.0,0.0,0.0,0.0,0.0,0.0,0.0,0.0,0.0,0.0,0.0,0.0,0.0,0.0,0.0,0.0,0.0,-2.119,-2.2506,-2.3847,-2.4821,-2.5507,-2.6802,-2.774,-2.8259,-2.7309,-2.6907,0.0,0.0,0.0,0.0,0.0,0.0,0.0,0.0,0.0,0.0,0.0,0.0,0.0,0.0,0.0,0.0,0.0,0.0,0.0,0.0,0.0,0.0,0.0,0.0,0.0,0.0,0.0,0.0,0.0,0.0,0.0,0.0,0.0,0.0,0.0,0.0,0.0,0.0,0.0,0.0,0.0,0.0,-2.367,-2.443,0.0,0.0,0.0,-2.3909,-2.3174,0.0,0.0,0.0,0.0,0.0,0.0,0.0,0.0,0.0,0.0,0.0,0.0,0.0,0.0,0.0,0.0,0.0,0.0,0.0,0.0,0.0,0.0,0.0,0.0,0.0,0.0,0.0,0.0,0.0,0.0,0.0,0.0,0.0,0.0,0.0,0.0,0.0,0.0,0.0,0.0,0.0,0.0,0.0,0.0,0.0,0.0,0.0,0.0,0.0,0.0,0.0,0.0,0.0,0.0,0.0,0.0,0.0,-2.202,-2.3582,-2.4593,-2.5024,-2.6518,-2.7489,-2.7814,-2.6972,0.0,0.0,0.0,0.0,0.0,0.0,0.0,0.0,0.0,0.0,0.0,0.0,0.0,0.0,0.0,0.0,0.0,0.0,0.0,0.0,0.0,0.0,0.0,0.0,0.0,0.0,0.0,-1.5544,0.0,0.0,0.0,0.0,0.0,0.0,0.0,0.0,0.0,0.0,0.0,0.0,0.0,0.0,-2.3759,-2.4642,-2.5323,-2.5763,0.0,0.0,-2.5168,-2.4525,-2.4034,-2.3335,0.0,0.0,0.0,0.0,0.0,0.0,0.0,0.0,0.0,0.0,0.0,0.0,0.0,0.0,0.0,0.0,0.0,0.0,0.0,0.0,0.0,0.0,0.0,0.0,0.0,0.0,0.0,0.0,0.0,0.0,0.0,0.0,0.0,0.0,0.0,0.0,0.0,0.0,0.0,0.0,0.0,0.0,0.0,0.0,0.0,0.0,0.0,0.0,0.0,0.0,0.0,0.0,0.0,0.0,0.0,-2.1983,-2.3421,-2.433,-2.4741,-2.6236,-2.6973,-2.6886,-2.6535,-2.618,0.0,0.0,0.0,0.0,0.0,0.0,0.0,0.0,0.0,0.0,0.0,0.0,0.0,0.0,0.0,0.0,0.0,0.0,0.0,0.0,0.0,0.0,0.0,0.0,0.0,0.0,0.0,0.0,0.0,0.0,0.0,0.0,0.0,0.0,0.0,0.0,0.0,0.0,0.0,0.0,0.0,-2.4454,-2.5297,-2.621,-2.6793,0.0,0.0,-2.6511,-2.5927,-2.5466,-2.4856,-2.3891,0.0,0.0,0.0,0.0,0.0,0.0,0.0,0.0,0.0,0.0,0.0,0.0,0.0,0.0,0.0,0.0,0.0,0.0,0.0,0.0,0.0,0.0,0.0,0.0,0.0,0.0,0.0,0.0,0.0,0.0,0.0,0.0,0.0,0.0,0.0,0.0,0.0,0.0,0.0,0.0,0.0,0.0,0.0,0.0,0.0,0.0,0.0,0.0,0.0,0.0,0.0,0.0,0.0,-2.0434,-2.1746,-2.3297,-2.4219,-2.4497,-2.602,-2.692,-2.704,-2.632,-2.591,0.0,0.0,0.0,0.0,0.0,0.0,0.0,0.0,0.0,0.0,0.0,0.0,0.0,0.0,0.0,0.0,0.0,0.0,0.0,0.0,0.0,0.0,0.0,0.0,0.0,0.0,0.0,0.0,-1.6734,-1.6175,-1.5457,0.0,0.0,0.0,0.0,0.0,0.0,0.0,0.0,0.0,0.0,-2.4567,-2.5585,-2.6397,0.0,0.0,-2.6828,-2.672,-2.6511,-2.5917,-2.5193,-2.439,-2.3835,0.0,0.0,0.0,0.0,0.0,0.0,0.0,0.0,0.0,0.0,0.0,0.0,0.0,0.0,0.0,0.0,0.0,0.0,0.0,0.0,0.0,0.0,0.0,0.0,0.0,0.0,0.0,0.0,0.0,0.0,0.0,0.0,0.0,0.0,0.0,0.0,0.0,0.0,0.0,0.0,0.0,0.0,0.0,0.0,0.0,0.0,0.0,0.0,0.0,0.0,0.0,0.0,-2.052,-2.1616,-2.3136,-2.4042,-2.4258,-2.5723,-2.6611,-2.6759,-2.5927,-2.548,0.0,0.0,0.0,0.0,0.0,0.0,0.0,0.0,0.0,0.0,0.0,0.0,0.0,0.0,0.0,0.0,0.0,0.0,0.0,0.0,0.0,0.0,0.0,0.0,0.0,0.0,0.0,0.0,-1.7333,-1.6633,-1.599,0.0,0.0,0.0,0.0,0.0,0.0,0.0,0.0,0.0,0.0,-2.4592,-2.565,-2.6302,-2.6715,-2.6891,-2.6921,-2.6931,-2.7011,-2.6395,-2.5744,-2.5196,0.0,0.0,0.0,0.0,0.0,0.0,0.0,0.0,0.0,0.0,0.0,0.0,0.0,0.0,0.0,0.0,0.0,0.0,0.0,0.0,0.0,0.0,0.0,0.0,0.0,0.0,0.0,0.0,0.0,0.0,-2.3479,0.0,0.0,0.0,0.0,0.0,0.0,0.0,0.0,0.0,0.0,0.0,0.0,0.0,0.0,0.0,0.0,0.0,0.0,0.0,0.0,0.0,0.0,-2.0822,-2.1578,-2.2844,-2.3682,-2.4095,-2.5288,-2.5907,-2.5857,-2.5311,-2.4893,-2.4642,0.0,0.0,0.0,0.0,0.0,0.0,0.0,0.0,0.0,0.0,0.0,0.0,0.0,0.0,0.0,0.0,0.0,0.0,0.0,0.0,0.0,0.0,0.0,0.0,0.0,0.0,-1.8477,-1.7536,-1.6918,0.0,0.0,0.0,0.0,0.0,0.0,0.0,0.0,0.0,0.0,-2.3459,-2.4523,-2.5378,-2.5904,-2.6362,-2.6809,-2.7062,-2.7244,-2.7435,-2.7069,-2.6716,0.0,0.0,0.0,0.0,0.0,0.0,0.0,0.0,0.0,0.0,0.0,0.0,0.0,0.0,0.0,0.0,0.0,0.0,0.0,0.0,0.0,0.0,0.0,0.0,0.0,0.0,0.0,-2.5755,-2.5314,0.0,0.0,0.0,0.0,0.0,0.0,0.0,0.0,0.0,0.0,0.0,-2.5339,-2.5275,0.0,0.0,0.0,0.0,0.0,0.0,0.0,0.0,0.0,0.0,0.0,0.0,-2.059,-2.1204,-2.2162,-2.2937,-2.358,-2.4525,-2.5293,-2.5838,-2.5449,-2.4926,-2.4369,0.0,0.0,0.0,0.0,0.0,0.0,0.0,0.0,0.0,0.0,0.0,0.0,0.0,0.0,0.0,0.0,0.0,0.0,0.0,0.0,0.0,0.0,0.0,0.0,0.0,-1.9442,0.0,0.0,0.0,0.0,0.0,0.0,0.0,0.0,0.0,0.0,0.0,-2.1362,-2.2613,-2.3329,-2.4012,-2.4723,-2.5242,-2.5706,0.0,0.0,0.0,0.0,0.0,0.0,0.0,0.0,0.0,0.0,0.0,0.0,0.0,0.0,-2.0436,-1.9807,-1.9252,-1.8877,-1.8701,0.0,0.0,0.0,0.0,0.0,0.0,0.0,0.0,0.0,0.0,0.0,0.0,0.0,0.0,0.0,0.0,-2.5768,0.0,0.0,0.0,0.0,0.0,0.0,0.0,0.0,-2.523,-2.5347,-2.5438,-2.5339,-2.5219,0.0,-2.4531,-2.3847,0.0,0.0,0.0,0.0,0.0,0.0,0.0,0.0,-2.0514,-2.0873,-2.1593,-2.2241,-2.2851,-2.3605,-2.4337,-2.5018,-2.4892,-2.449,-2.3905,-2.3493,-2.3082,0.0,0.0,0.0,0.0,0.0,0.0,0.0,0.0,0.0,0.0,0.0,0.0,0.0,0.0,0.0,0.0,0.0,0.0,0.0,0.0,0.0,0.0,0.0,-1.9789,0.0,0.0,0.0,0.0,0.0,0.0,0.0,0.0,0.0,-2.0333,-2.0858,-2.1582,-2.2487,-2.3073,-2.3561,-2.4069,0.0,0.0,0.0,0.0,0.0,0.0,0.0,-2.6542,-2.6594,-2.6064,-2.5385,-2.4726,-2.3619,-2.2569,-2.1737,0.0,0.0,-1.9982,-1.9549,-1.9195,-1.9107,-1.8622,-1.8325,-1.8562,-1.8326,-1.8168,0.0,0.0,0.0,0.0,0.0,0.0,0.0,0.0,-2.656,-2.6286,0.0,-2.5895,0.0,0.0,0.0,0.0,0.0,-2.4653,0.0,0.0,-2.5369,-2.562,-2.6079,-2.5943,-2.5581,-2.5087,-2.4666,-2.4206,-2.3685,-2.3204,0.0,0.0,0.0,0.0,0.0,0.0,-2.056,-2.0573,-2.1146,-2.1615,-2.1978,-2.2524,-2.3056,-2.3501,-2.3693,-2.3632,-2.3332,-2.3304,-2.3065,-2.2566,-2.2509,0.0,0.0,0.0,0.0,0.0,0.0,0.0,0.0,0.0,0.0,0.0,0.0,0.0,0.0,0.0,0.0,0.0,0.0,0.0,0.0,-2.0547,0.0,0.0,0.0,0.0,0.0,0.0,0.0,0.0,0.0,0.0,-1.9897,-2.0967,-2.1826,-2.205,0.0,0.0,0.0,0.0,-2.4315,-2.4775,-2.5031,-2.5401,-2.606,-2.6144,-2.6174,-2.6185,0.0,0.0,-2.3335,-2.2383,-2.1629,-2.1208,-2.0411,-1.9848,-1.982,-1.9459,-1.9118,-1.875,-1.8326,-1.8059,-1.8048,-1.7796,-1.7638,-3.0223,0.0,0.0,0.0,0.0,-2.912,-2.894,-2.8886,-2.8208,-2.748,-2.6664,-2.6345,0.0,0.0,0.0,0.0,0.0,0.0,-2.4645,-2.4828,-2.5158,-2.5296,-2.5323,-2.5453,-2.5175,-2.4655,-2.4168,-2.3811,-2.354,-2.2898,-2.2388,-2.2058,0.0,0.0,0.0,0.0,-2.0029,-2.0042,-2.0181,-2.0656,-2.1342,-2.1524,-2.2075,-2.3043,-2.3239,-2.3379,-2.3354,-2.3328,-2.3271,-2.3203,-2.285,0.0,0.0,0.0,0.0,0.0,0.0,0.0,0.0,0.0,0.0,0.0,0.0,0.0,0.0,0.0,0.0,0.0,0.0,0.0,-2.0544,-2.017,-1.9821,0.0,0.0,0.0,0.0,0.0,0.0,0.0,0.0,0.0,-2.0009,-2.0759,-2.1454,0.0,0.0,-2.2441,-2.2662,-2.2979,-2.3406,-2.4013,0.0,0.0,0.0,-2.5411,-2.5496,-2.5485,-2.4848,-2.3927,-2.2686,-2.1759,-2.0935,-2.0008,-1.9411,-1.8939,-1.8615,-1.8491,-1.8409,-1.8237,-1.763,-1.7198,-1.727,-1.6989,-1.6724,-3.0394,-3.003,-2.9927,-2.9867,-2.9832,-2.9434,-2.9244,-2.9209,-2.8458,-2.7718,-2.7067,-2.6703,-2.587,-2.4697,-2.4355,0.0,0.0,0.0,-2.4425,-2.4518,-2.4815,-2.485,-2.4613,-2.4707,-2.4515,-2.4014,-2.349,-2.3137,-2.2963,-2.2159,-2.168,-2.1527,0.0,0.0,-2.0252,-1.9733,-1.95,-1.9474,-1.9474,-1.9804,-2.0406,-2.0576,-2.1146,-2.2154,-2.2339,-2.2523,-2.2653,-2.2829,-2.2869,-2.2718,-2.2572,-2.2414,0.0,0.0,0.0,0.0,0.0,0.0,0.0,0.0,0.0,0.0,0.0,-2.1155,0.0,0.0,0.0,0.0,-2.0837,-2.0676,-2.0588,-2.0121,0.0,0.0,0.0,0.0,0.0,0.0,0.0,-1.9687,-1.9729,-1.9822,-1.9834,-2.0021,-2.0428,-2.1078,-2.1463,-2.1722,-2.1856,0.0,-2.253,-2.3038,-2.3178,-2.343,-2.4069,-2.438,-2.4457,-2.4186,-2.3601,-2.2675,-2.1516,-2.0749,-1.9962,-1.9043,-1.8456,-1.8014,-1.748,-1.7198,-1.7223,-1.7501,-1.6954,-1.6426,-1.651,-1.6171,-1.586,-2.9882,-2.964,-2.9277,-2.9165,-2.9188,-2.8828,-2.8635,-2.8562,-2.7755,-2.7396,-2.7359,-2.6959,-2.6273,-2.5347,-2.4563,0.0,-2.4127,-2.408,-2.4189,-2.4381,-2.4347,-2.4176,-2.3874,-2.3827,-2.3581,-2.31,-2.2632,-2.2285,-2.1981,-2.1078,-2.0499,-2.0297,-2.051,-2.0294,-1.9622,-1.9171,-1.8919,-1.8934,-1.8934,-1.9066,-1.9342,-1.9733,-2.0257,-2.0923,-2.1106,-2.129,-2.1433,-2.2033,-2.211,-2.1589,-2.1882,-2.2084,-2.2056,0.0,0.0,0.0,0.0,0.0,0.0,0.0,0.0,0.0,0.0,0.0,0.0,0.0,0.0,0.0,-2.0614,0.0,-2.0838,-2.0264,0.0,0.0,0.0,-1.9857,-1.9848,-1.9784,-1.9868,-2.0254,0.0,0.0,-1.9413,0.0,-1.9058,-1.9973,-2.0546,-2.0907,-2.0907,-2.1275,-2.1687,-2.1971,-2.2113,-2.2378,-2.2833,-2.3076,-2.3016,-2.2588,-2.2006,-2.1222,-2.0081,-1.9411,-1.876,-1.7993,-1.7497,-1.7017,-1.6394,-1.5789,-1.5648,-1.6444,-1.6084,-1.5606,-1.5548,-1.5275,-1.5018,-2.96,-2.9366,-2.8851,-2.8918,-2.9327,-2.9072,-2.8879,-2.8686,-2.7999,-2.7498,-2.7153,-2.6675,-2.58,-2.4559,-2.422,-2.3775,-2.3298,-2.3298,-2.3298,-2.335,-2.2983,-2.2786,-2.2677,-2.2485,-2.2127,-2.1632,-2.1542,-2.1136,-2.0443,-2.0124,-1.9717,-1.9336,-1.9036,-1.896,-1.906,-1.8572,-1.8329,-1.8302,-1.8329,-1.8479,-1.8801,-1.9186,-1.9457,-1.9659,-2.02,-2.06,-2.0747,-2.1553,-2.2004,-2.1964,-2.1918,-2.189,-2.1849,-2.1113,0.0,0.0,0.0,0.0,0.0,0.0,0.0,0.0,0.0,-2.0617,-2.0447,0.0,-2.0463,0.0,-2.0242,-2.0196,-2.0568,-1.9993,0.0,0.0,-1.964,-1.9474,-1.9322,-1.9177,-1.9175,-1.9259,-1.8715,-1.831,-1.8442,-1.7986,-1.7753,-1.8017,-1.9134,-1.9911,-1.9957,-2.0329,-2.0736,-2.0907,-2.0988,-2.1123,-2.1445,-2.1306,-2.1209,-2.1238,-2.0247,-1.9279,-1.8813,-1.7953,-1.713,-1.6664,-1.6188,-1.5733,-1.5193,-1.4646,-1.4333,-1.4365,-1.4367,-1.4291,-1.4101,-1.3973,-1.392,-2.8612,-2.8344,-2.7923,-2.7926,-2.8119,-2.8383,-2.8302,-2.7889,-2.7242,-2.6673,-2.615,-2.5436,-2.4642,-2.3788,-2.334,-2.2886,-2.2467,-2.2264,-2.2242,-2.2247,-2.1847,-2.1549,-2.1404,-2.1237,-2.0868,-2.0301,-2.0161,-1.976,-1.9124,-1.8652,-1.8289,-1.7931,-1.7461,-1.7342,-1.756,-1.7656,-1.7739,-1.7739,-1.781,-1.7947,-1.8193,-1.8536,-1.875,-1.8815,-1.929,-1.9582,-1.9663,-2.0584,-2.1153,-2.1212,-2.138,-2.1492,-2.148,-2.0843,-2.0498,0.0,0.0,0.0,0.0,0.0,0.0,0.0,0.0,0.0,0.0,0.0,-2.0121,0.0,-1.9764,-1.9668,-1.992,-1.9392,-1.904,-1.9179,-1.9039,-1.8879,-1.8748,-1.8625,-1.8526,-1.8526,-1.8011,-1.7628,-1.7581,-1.7246,-1.6958,-1.6857,-1.7645,-1.8442,-1.8866,-1.9234,-1.9546,-1.9774,-1.9911,-2.0025,-2.0142,-1.9882,-1.9608,-1.923,-1.8498,-1.7762,-1.7149,-1.6544,-1.5925,-1.536,-1.4985,-1.4601,-1.4048,-1.3642,-1.3284,-1.2959,-1.2845,-1.2915,-1.2999,-1.2843,-1.2709,-2.7308,-2.7021,-2.673,-2.6502,-2.6303,-2.699,-2.7001,-2.6495,-2.5893,-2.5344,-2.4809,-2.3868,-2.3264,-2.2995,-2.2335,-2.1856,-2.1542,-2.1162,-2.1056,-2.1063,-2.0642,-2.031,-2.0025,-1.9973,-1.9599,-1.8973,-1.859,-1.8213,-1.7792,-1.7022,-1.6537,-1.6278,-1.5879,-1.5661,-1.5719,-1.6464,-1.6976,-1.7138,-1.7273,-1.7423,-1.7534,-1.7815,-1.7995,-1.8116,-1.8278,-1.8371,-1.841,-1.9332,-1.9866,-1.9913,-2.0522,-2.0901,-2.0912,-2.0592,-2.0442,0.0,-2.0269,0.0,0.0,0.0,0.0,0.0,0.0,0.0,0.0,-2.0102,-1.9764,-1.9444,-1.9178,-1.8991,-1.9035,-1.8574,-1.8257,-1.8314,-1.8285,-1.8232,-1.8194,-1.7995,-1.7893,-1.7893,-1.7254,-1.6784,-1.6784,-1.6595,-1.6298,-1.6048,-1.6142,-1.6631,-1.7399,-1.7894,-1.8241,-1.8449,-1.8617,-1.8584,-1.8576,-1.8411,-1.7942,-1.7203,-1.6803,-1.63,-1.5445,-1.5144,-1.4845,-1.4139,-1.3886,-1.3584,-1.2954,-1.2656,-1.2323,-1.192,-1.1608,-1.1601,-1.2001,-1.1891,-1.1608,-2.5995,-2.6102,-2.5511,-2.5142,-2.4945,-2.4546,-2.4718,-2.5212,-2.4537,-2.4001,-2.3535,-2.317,-2.2692,-2.2155,-2.1827,-2.1181,-2.0323,-2.0112,-1.9838,-1.9521,-1.889,-1.8566,-1.8469,-1.8123,-1.7668,-1.7111,-1.7015,-1.6545,-1.5682,-1.5408,-1.5065,-1.465,-1.4538,-1.451,-1.4531,0.0,0.0,0.0,-1.6464,-1.6616,-1.6797,-1.6976,-1.705,-1.7088,-1.7106,0.0,-1.7312,-1.8104,-1.8605,-1.8736,-1.9467,0.0,0.0,0.0,0.0,0.0,0.0,0.0,0.0,0.0,0.0,0.0,-1.8659,-1.8721,-1.943,-1.9193,-1.8845,-1.8567,-1.8051,-1.7853,-1.8096,-1.7814,-1.7627,-1.773,-1.7789,-1.771,-1.7517,-1.7156,-1.6911,-1.6864,-1.6197,-1.5717,-1.5697,-1.5547,-1.5302,-1.5019,-1.4826,-1.4786,-1.5033,-1.6113,-1.6836,-1.6745,-1.6642,-1.6491,-1.641,-1.6184,-1.5973,-1.5633,-1.5085,-1.46,-1.4321,-1.3802,-1.3379,-1.2954,-1.2656,-1.2308,-1.1972,-1.1585,-1.1268,-1.1182,-1.0646,-1.0419,-1.0987,-1.1037,-1.0944,-2.453,0.0,-2.3927,-2.3628,0.0,-2.2605,-2.2463,-2.2768,-2.2875,-2.2528,-2.1878,-2.168,-2.1322,-2.0909,-2.0508,-1.9995,-1.9345,-1.8769,-1.8395,-1.8179,-1.7438,-1.7059,-1.7059,-1.6649,-1.6171,-1.5636,-1.5342,-1.4826,-1.4004,-1.3738,-1.345,-1.3114,-1.3114,-1.3174,-1.3274,-1.3425,-1.4154,-1.541,-1.5555,-1.569,-1.5902,-1.6028,-1.6104,-1.6114,0.0,0.0,0.0,0.0,0.0,0.0,0.0,0.0,0.0,0.0,0.0,-1.8138,-1.8003,-1.7833,-1.7594,-1.7389,-1.7453,-1.7779,-1.7585,-1.7746,-1.8455,-1.8231,-1.791,-1.7538,-1.7211,-1.7056,-1.7223,-1.6952,-1.6787,-1.6862,-1.6672,-1.65,-1.6355,-1.595,-1.5628,-1.5444,-1.4968,-1.4644,-1.4551,-1.4412,-1.4238,-1.3865,-1.367,-1.3528,-1.3384,-1.441,-1.5265,-1.5255,-1.5165,-1.501,-1.4875,-1.4609,-1.4299,-1.4038,-1.3602,-1.3179,-1.2954,-1.2528,-1.2057,-1.1714,-1.1413,-1.1068,-1.0722,-1.0381,-1.012,-0.9971,-0.9597,-0.9266,-0.9396,-0.9582,-0.9681,-2.2919,-2.2605,-2.2331,-2.2097,-2.1873,-2.0947,-2.0403,-2.0251,0.0,0.0,0.0,-2.0012,-1.974,-1.9526,-1.898,-1.8568,-1.823,-1.7432,-1.6982,-1.6902,-1.6077,-1.5683,-1.5648,-1.533,-1.4884,-1.4267,-1.3775,-1.3201,-1.259,-1.2237,-1.2007,-1.1842,-1.1759,-1.1854,-1.2049,-1.2204,-1.294,-1.413,-1.4444,-1.4677,-1.4942,-1.5097,-1.5194,-1.5164,-1.536,-1.5532,-1.5735,-1.6195,-1.6535,-1.6816,-1.7152,-1.7364,-1.7354,-1.7192,-1.7019,-1.6828,-1.6828,-1.6664,-1.6394,-1.628,-1.6236,-1.6257,-1.6494,-1.6836,-1.7391,-1.727,-1.6984,-1.6517,-1.6358,-1.6257,-1.6264,-1.5988,-1.5788,-1.575,-1.5445,-1.5218,-1.5129,-1.4726,-1.4353,-1.4096,-1.3837,-1.3592,-1.3383,-1.3344,-1.3184,-1.2734,-1.258,-1.2326,-1.2026,-1.2818,-1.3673,-1.377,-1.369,-1.3635,-1.3448,-1.3199,-1.2897,-1.2502,-1.2198,-1.1886,-1.1542,-1.1198,-1.0852,-1.0463,-1.0207,-0.9903,-0.951,-0.9253,-0.899,-0.8763,-0.85,-0.8186,-0.7788,-0.7962,-0.8241,-2.1372,-2.1467,-2.0866,-2.0592,-2.0523,-1.9638,-1.9034,-1.8696,-1.9344,-1.9594,-1.9432,-1.8701,-1.8363,-1.8306,-1.7608,-1.7107,-1.6683,-1.6224,-1.5822,0.0,-1.4828,-1.4438,-1.4258,-1.4114,-1.3545,-1.2706,-1.2543,-1.2151,-1.1465,-1.1262,-1.1188,-1.1114,-1.0903,-1.0915,-1.1111,-1.1397,-1.1785,-1.2228,-1.2908,-1.3494,-1.3902,-1.4272,-1.4418,-1.4382,-1.4704,-1.4842,-1.4718,-1.5115,-1.5365,-1.5392,-1.5783,-1.5991,-1.5983,-1.5956,-1.5851,-1.5745,-1.571,-1.5648,-1.5417,-1.5073,-1.4796,-1.4695,-1.5179,-1.5754,-1.6255,-1.6294,-1.6079,-1.5609,-1.5202,-1.4972,-1.4944,-1.4819,-1.4643,-1.4502,-1.4486,-1.4353,-1.4103,-1.3703,-1.3296,-1.3064,-1.2877,-1.2575,-1.2319,-1.2285,-1.2091,-1.168,-1.1342,-1.1043,-1.0671,-1.1303,-1.1954,-1.2026,-1.1866,-1.1728,-1.176,-1.1511,-1.1375,-1.1251,-1.0895,-1.0636,-1.0506,-1.012,-0.9772,-0.9515,-0.9248,-0.8978,-0.8723,-0.8332,-0.8025,-0.7889,-0.758,-0.7176,-0.6787,-0.6662,-0.6755,-1.9808,-1.9652,-1.9358,-1.9165,-1.9003,-1.8383,-1.7781,-1.7302,-1.7433,-1.7945,-1.8501,-1.7787,-1.7427,-1.7376,-1.6434,-1.5935,-1.5741,-1.5134,-1.4776,-1.4561,-1.3869,-1.3441,-1.3215,-1.2842,-1.2247,-1.1443,-1.1316,-1.0893,-1.0269,-1.0141,-1.0072,-0.9985,-0.9954,-1.0003,-1.0106,-1.0304,-1.0597,-1.0957,-1.2164,-1.2891,-1.3092,-1.3478,-1.3632,-1.3501,-1.3761,-1.3939,-1.3956,-1.4142,-1.4319,-1.4555,-1.4743,-1.4796,-1.4681,-1.4681,-1.4537,-1.4279,-1.4243,-1.4178,-1.3977,-1.3789,-1.3682,-1.3674,-1.3846,-1.4026,-1.4168,-1.4916,-1.5151,-1.4727,-1.4272,-1.3984,-1.3984,-1.3713,-1.3484,-1.3367,-1.3218,-1.3017,-1.2841,-1.2445,-1.201,-1.17,-1.1567,-1.135,-1.0994,-1.0949,-1.0771,-1.0319,-0.9953,-0.9557,-0.9305,-0.9671,-1.0225,-1.0656,-1.0663,-1.0608,-1.0598,-1.0376,-1.0207,-1.0081,-0.9767,-0.9506,-0.9375,-0.899,-0.864,-0.8464,-0.8193,-0.7885,-0.7669,-0.7316,-0.7051,-0.6833,-0.6609,-0.6222,-0.5961,-0.5646,-0.5581,-1.8264,-1.7893,-1.7893,-1.7691,-1.7383,-1.7098,-1.656,-1.5919,-1.5667,-1.6101,-1.6854,-1.6512,-1.6288,-1.6137,-1.5196,-1.4698,-1.4585,-1.407,-1.3731,-1.3622,-1.2959,-1.2489,-1.2157,-1.1669,-1.104,-1.0427,-1.0227,-0.9841,-0.9317,-0.9235,-0.9127,-0.8973,-0.9115,-0.9197,-0.9156,-0.9327,-0.9597,-1.0072,-1.1325,-1.2061,-1.2233,-1.2611,-1.2757,-1.2689,-1.2865,-1.3048,-1.3138,-1.316,-1.327,-1.352,-1.3542,-1.3506,-1.3353,-1.3317,-1.3208,-1.2908,-1.2835,-1.2762,-1.2599,-1.2562,-1.2591,-1.2625,-1.2521,-1.2408,-1.2332,-1.3228,-1.3853,-1.3703,-1.3389,-1.3173,-1.3052,-1.2747,-1.2443,-1.2357,-1.1972,-1.1736,-1.1634,-1.1235,-1.0761,-1.0376,-1.0241,-1.0038,-0.9685,-0.9602,-0.9397,-0.8968,-0.8548,-0.8285,-0.8285,-0.8285,-0.8592,-0.9117,-0.951,-0.9689,-0.9646,-0.9471,-0.9209,-0.8995,-0.8767,-0.8544,-0.8285,-0.7848,-0.7588,-0.7452,-0.7139,-0.6874,-0.6612,-0.6343,-0.6166,-0.5994,-0.5725,-0.5408,-0.5095,-0.4739,-0.4619,-1.696,-1.6591,-1.6558,-1.6188,-1.5684,-1.5594,-1.5177,-1.4517,-1.4291,-1.409,-1.4102,-1.4371,-1.4426,-1.4215,-1.366,-1.3287,-1.3133,-1.287,-1.2673,-1.2445,-1.2003,-1.1521,-1.0999,-1.0738,-1.0207,-0.9508,-0.9432,-0.9213,-0.876,-0.8774,-0.8655,-0.8502,-0.8483,-0.8483,-0.8519,-0.8697,-0.8975,-0.9364,-0.9889,-1.0471,-1.1112,-1.1495,-1.1746,-1.1923,-1.2222,-1.2298,-1.2121,-1.2148,-1.2081,-1.1959,-1.1966,-1.1922,-1.1892,-1.1892,-1.1848,-1.1848,-1.1818,-1.1744,-1.1558,-1.1558,-1.1459,-1.1309,-1.1415,-1.1316,-1.1086,-1.1295,-1.1764,-1.2306,-1.2475,-1.2339,-1.2143,-1.1929,-1.1671,-1.1456,-1.1025,-1.0722,-1.0636,-1.0164,-0.9689,-0.9476,-0.92,-0.889,-0.8504,-0.8372,-0.8149,-0.7757,-0.7448,-0.7272,-0.7268,-0.7272,-0.7272,-0.7536,-0.8109,-0.8636,-0.8675,-0.8504,-0.8245,-0.7981,-0.7801,-0.7577,-0.7316,-0.7054,-0.6836,-0.6609,-0.6343,-0.6077,-0.5855,-0.5633,-0.5458,-0.5324,-0.5013,-0.4656,-0.4162,-0.3896,-0.3924,-1.5636,-1.5228,-1.5228,-1.4894,-1.4406,-1.4283,-1.3844,-1.3166,-1.2756,-1.2387,-1.2065,-1.2069,-1.2452,-1.3054,-1.2543,-1.2261,-1.2187,-1.1966,-1.1781,-1.1558,-1.1186,-1.0669,-1.0105,-0.9884,-0.943,-0.8822,-0.8784,-0.8632,-0.8399,-0.8327,-0.8286,-0.8218,-0.8209,-0.8209,-0.8214,-0.8318,-0.8477,-0.878,-0.8932,-0.9215,-0.9689,-1.0485,-1.0948,-1.1028,-1.1162,-1.1223,-1.1111,-1.1111,-1.1068,-1.0999,-1.0999,-1.0925,-1.0812,-1.0812,-1.0706,-1.0475,-1.0357,-1.0282,-1.0331,-1.0331,-1.0331,-1.0406,-1.0345,-1.0177,-0.9996,-1.0048,-1.0226,-1.0428,-1.1031,-1.1292,-1.1006,-1.0904,-1.0766,-1.0506,-1.012,-0.9816,-0.982,-0.9205,-0.8684,-0.8424,-0.8197,-0.7885,-0.7445,-0.7139,-0.6877,-0.6656,-0.6432,-0.6299,-0.6296,-0.6296,-0.6296,-0.6296,-0.665,-0.7092,-0.7533,-0.754,-0.7319,-0.719,-0.6922,-0.6612,-0.6523,-0.6171,-0.5905,-0.5813,-0.5591,-0.5369,-0.5146,-0.4924,-0.4701,-0.4565,-0.43,-0.3898,-0.3403,-0.3224,-0.3226,-1.43,-1.3928,-1.3802,-1.3497,-1.3071,-1.2835,-1.2374,-1.1676,-1.1156,-1.0695,-1.0346,-1.0019,-1.0371,-1.1194,-1.1265,-1.1254,-1.1186,-1.1037,-1.0844,-1.0588,-1.0293,-0.9841,-0.9279,-0.9089,-0.867,-0.8212,-0.8097,-0.7983,-0.7791,-0.7753,-0.7795,-0.7753,-0.7791,-0.7753,-0.7791,-0.7795,-0.7906,-0.8136,-0.8136,-0.825,-0.8623,-0.9387,-0.9911,-1.0062,-1.0099,-1.0099,-1.0099,-1.0099,-1.0056,-1.0024,-1.0024,-0.9949,-0.9798,-0.9803,-0.9614,-0.9316,-0.9079,-0.9036,-0.9198,-0.9198,-0.9236,-0.9382,-0.9236,-0.9046,-0.8923,-0.8889,-0.8774,-0.8693,-0.9342,-0.9768,-0.9903,-0.9856,-0.9705,-0.9459,-0.9087,-0.8839,-0.8759,-0.8153,-0.7625,-0.7448,-0.718,-0.6871,-0.6473,-0.6077,-0.5813,-0.5813,-0.5633,-0.5497,-0.5497,-0.5542,-0.5542,-0.5497,-0.5497,-0.5811,-0.652,-0.6609,-0.6526,-0.6352,-0.6083,-0.5905,-0.5772,-0.5371,-0.506,-0.4966,-0.4832,-0.4654,-0.4433,-0.421,-0.3985,-0.3717,-0.3451,-0.3227,-0.2823,-0.2734,-0.2599,-1.296,-1.2699,-1.2314,-1.1872,-1.15,-1.1247,-1.0784,-1.0066,-0.9483,-0.9053,-0.878,-0.8432,-0.8237,-0.8484,-0.9652,-1.0137,-0.9981,-0.9949,-0.976,-0.9415,-0.9354,-0.9018,-0.8479,-0.8255,-0.7949,-0.7599,-0.7407,-0.7219,-0.7019,-0.698,-0.6942,-0.698,-0.7019,-0.698,-0.7019,-0.7057,-0.7173,-0.7522,-0.7557,-0.7714,-0.8063,-0.8178,-0.8513,-0.8965,-0.9079,-0.9117,-0.9079,-0.9079,-0.9003,-0.8818,-0.8813,-0.8818,-0.8775,-0.878,-0.8665,-0.8475,-0.8275,-0.8156,-0.8156,-0.8199,-0.8199,-0.8161,-0.8084,-0.7897,-0.7897,-0.7774,-0.7555,-0.732,-0.7604,-0.8006,-0.861,-0.8678,-0.8501,-0.8164,-0.7881,-0.7699,-0.7606,-0.6959,-0.6561,-0.6387,-0.6074,-0.5719,-0.5458,-0.5235,-0.5055,-0.501,-0.5008,-0.501,-0.4964,-0.4966,-0.4966,-0.4921,-0.4879,-0.4971,-0.5589,-0.5722,-0.5633,-0.5502,-0.5369,-0.5238,-0.4971,-0.4659,-0.4433,-0.4208,-0.4074,-0.3941,-0.3764,-0.3542,-0.3361,-0.3093,-0.2825,-0.2557,-0.2377,-0.2288,-0.2154,-1.1408,-1.088,-1.0479,-1.0162,-0.9816,-0.9382,-0.8974,-0.8563,-0.8082,-0.7765,-0.7561,-0.7399,-0.7322,-0.7361,-0.7855,-0.8283,-0.8599,-0.8713,-0.8557,-0.8239,-0.8301,-0.8097,-0.768,-0.7565,-0.7407,-0.7138,-0.7057,-0.6984,-0.6903,-0.6903,-0.6903,-0.6903,-0.6903,-0.6903,-0.6903,-0.6903,-0.698,-0.7092,-0.7134,-0.7211,-0.733,-0.733,-0.7442,-0.7668,-0.8169,-0.8437,-0.8441,-0.8441,-0.8322,-0.8127,-0.8122,-0.805,-0.794,-0.7791,-0.7714,-0.7638,-0.7437,-0.7318,-0.7318,-0.7322,-0.7322,-0.7322,-0.7284,-0.7173,-0.7061,-0.698,-0.6791,-0.6458,-0.6285,-0.6465,-0.6711,-0.73,-0.7535,-0.7172,-0.6957,-0.6762,-0.6505,-0.5985,-0.5497,-0.5408,-0.4964,-0.4516,-0.4429,-0.4255,-0.4121,-0.4076,-0.4121,-0.4121,-0.4121,-0.4076,-0.4119,-0.4119,-0.4076,-0.4078,-0.4255,-0.4654,-0.4743,-0.4654,-0.4565,-0.4429,-0.4208,-0.4034,-0.3808,-0.3583,-0.3449,-0.3315,-0.3139,-0.2826,-0.2645,-0.2557,-0.2288,-0.2064,-0.1974,-0.1885,-0.184,-0.9606,-0.9033,-0.8788,-0.8488,-0.8156,-0.7676,-0.7379,-0.7132,-0.6751,-0.6511,-0.6402,-0.6321,-0.6282,-0.6272,-0.6235,-0.6471,-0.6946,-0.7434,-0.753,-0.7244,-0.7357,-0.7211,-0.6907,-0.683,-0.6714,-0.6595,-0.6553,-0.6556,-0.6595,-0.6672,-0.6714,-0.6714,-0.6714,-0.671,-0.6714,-0.6714,-0.6714,-0.6788,-0.6791,-0.683,-0.6903,-0.6903,-0.6903,-0.698,-0.7442,-0.7714,-0.7718,-0.7714,-0.7633,-0.7514,-0.7437,-0.7284,-0.7096,-0.6907,-0.6795,-0.6756,-0.6598,-0.6479,-0.6479,-0.6402,-0.6363,-0.6363,-0.6325,-0.6205,-0.6093,-0.6093,-0.5883,-0.5602,-0.5381,-0.5232,-0.5249,-0.5804,-0.623,-0.6113,-0.5967,-0.5813,-0.5633,-0.5055,-0.461,-0.434,-0.3939,-0.3626,-0.3446,-0.3315,-0.3226,-0.3181,-0.3136,-0.3181,-0.3226,-0.3226,-0.327,-0.3361,-0.3318,-0.3274,-0.3318,-0.3496,-0.3807,-0.3807,-0.3894,-0.3715,-0.3492,-0.3361,-0.3184,-0.2959,-0.2825,-0.2691,-0.2467,-0.2154,-0.2019,-0.1974,-0.1705,-0.1436,-0.1436,-0.1525,-0.148,-0.7604,-0.7285,-0.7177,-0.6933,-0.6582,-0.6294,-0.6054,-0.5831,-0.5512,-0.5318,-0.5279,-0.5115,-0.506,-0.5013,-0.499,-0.4879,-0.5107,-0.6126,-0.6556,-0.6362,-0.6478,-0.644,-0.6205,-0.6054,-0.598,-0.5977,-0.5941,-0.5938,-0.5977,-0.6254,-0.6335,-0.6338,-0.6335,-0.6374,-0.63,-0.6374,-0.6412,-0.6563,-0.6598,-0.6676,-0.6865,-0.6826,-0.6788,-0.6826,-0.6865,-0.6865,-0.6899,-0.6938,-0.6942,-0.6865,-0.6714,-0.6479,-0.6244,-0.6051,-0.5938,-0.5899,-0.575,-0.5637,-0.5598,-0.5479,-0.5359,-0.5321,-0.5162,-0.5082,-0.5043,-0.5015,-0.4946,-0.4746,-0.4542,-0.4381,-0.4231,-0.4236,-0.4506,-0.4942,-0.4925,-0.4803,-0.4592,-0.4208,-0.3715,-0.327,-0.2957,-0.2778,-0.2598,-0.2464,-0.2373,-0.2284,-0.2239,-0.2284,-0.2418,-0.2463,-0.2597,-0.2732,-0.2645,-0.2512,-0.2424,-0.2379,-0.269,-0.2957,-0.3092,-0.3092,-0.278,-0.2602,-0.2467,-0.2287,-0.2062,-0.1929,-0.1884,-0.1615,-0.148,-0.1391,-0.1076,-0.0942,-0.1031,-0.1121,-0.1122,-0.6519,-0.622,-0.5965,-0.5705,-0.5368,-0.4933,-0.4716,-0.4652,-0.4384,-0.427,-0.4258,-0.4155,-0.4085,-0.4102,-0.402,-0.3923,-0.385,-0.4469,-0.4894,-0.5202,-0.541,-0.555,-0.555,-0.5512,-0.5556,-0.5709,-0.5825,-0.5899,-0.5941,-0.6177,-0.63,-0.63,-0.63,-0.63,-0.63,-0.63,-0.6335,-0.6374,-0.6416,-0.6412,-0.6447,-0.6289,-0.6209,-0.6209,-0.6057,-0.6018,-0.6022,-0.6444,-0.6521,-0.6251,-0.6135,-0.5941,-0.5667,-0.5512,-0.5434,-0.5318,-0.524,-0.5126,-0.4973,-0.4815,-0.4621,-0.4467,-0.4307,-0.419,-0.4162,-0.4053,-0.3903,-0.3741,-0.3537,-0.3312,-0.3039,-0.2938,-0.3214,-0.3862,-0.3957,-0.382,-0.3487,-0.3002,-0.251,-0.2062,-0.1883,-0.1838,-0.1749,-0.1658,-0.1479,-0.1434,-0.1434,-0.1479,-0.1524,-0.1613,-0.1748,-0.1838,-0.175,-0.1705,-0.166,-0.157,-0.1749,-0.2062,-0.2241,-0.2376,-0.2108,-0.193,-0.1795,-0.1615,-0.1436,-0.1301,-0.1256,-0.1122,-0.1031,-0.0942,-0.0807,-0.0718,-0.0718,-0.0762,-0.0807,-0.5105,-0.4771,-0.4586,-0.4281,-0.3995,-0.3583,-0.3405,-0.3366,-0.3173,-0.3096,-0.3085,-0.3126,-0.3142,-0.3125,-0.3135,-0.3112,-0.3042,-0.317,-0.3446,-0.3939,-0.449,-0.4732,-0.4893,-0.501,-0.5126,-0.5323,-0.5634,-0.5786,-0.5789,-0.6099,-0.63,-0.63,-0.63,-0.63,-0.63,-0.6296,-0.6257,-0.618,-0.6138,-0.6099,-0.6025,-0.5867,-0.5789,-0.575,-0.5673,-0.5559,-0.5518,-0.586,-0.5899,-0.5667,-0.555,-0.5282,-0.5007,-0.4893,-0.4815,-0.4696,-0.4579,-0.4462,-0.4229,-0.4031,-0.3839,-0.3608,-0.3372,-0.3229,-0.3176,-0.3026,-0.2852,-0.2748,-0.2573,-0.236,-0.21,-0.1935,-0.2066,-0.224,-0.2666,-0.2689,-0.2331,-0.1929,-0.157,-0.1211,-0.0987,-0.0852,-0.0718,-0.0628,-0.0493,-0.0448,-0.0448,-0.0493,-0.0538,-0.0628,-0.0762,-0.0807,-0.0852,-0.0852,-0.0852,-0.0852,-0.0807,-0.1076,-0.139,-0.148,-0.1436,-0.1346,-0.1256,-0.1166,-0.0987,-0.0987,-0.0942,-0.0762,-0.0628,-0.0583,-0.0493,-0.0404,-0.0359,-0.0493,-0.0583,-0.345,-0.3054,-0.3015,-0.2824,-0.2474,-0.2235,-0.2156,-0.2078,-0.1921,-0.1882,-0.192,-0.2064,-0.2143,-0.2175,-0.227,-0.2316,-0.2336,-0.2336,-0.2343,-0.2694,-0.3368,-0.396,-0.4194,-0.4543,-0.4737,-0.4857,-0.5365,-0.5598,-0.5634,-0.6064,-0.63,-0.63,-0.63,-0.63,-0.6296,-0.6296,-0.6138,-0.598,-0.5902,-0.5789,-0.5676,-0.5598,-0.5598,-0.5559,-0.5521,-0.5404,-0.5285,-0.5085,-0.5085,-0.5165,-0.4893,-0.4621,-0.4387,-0.4192,-0.4116,-0.3999,-0.3843,-0.3645,-0.3368,-0.3171,-0.2984,-0.28,-0.2409,-0.2143,-0.2109,-0.1968,-0.1833,-0.1846,-0.1691,-0.149,-0.1292,-0.1073,-0.0805,-0.0493,-0.1165,-0.148,-0.1301,-0.0897,-0.0628,-0.0493,-0.0179,0.0179,0.0359,0.0404,0.0538,0.0628,0.0673,0.0583,0.0493,0.0359,0.0314,0.0224,0.009,0.0,0.0,-0.0045,0.0,-0.0135,-0.0404,-0.0538,-0.0628,-0.0628,-0.0583,-0.0493,-0.0493,-0.0538,-0.0493,-0.0269,-0.0179,-0.0135,-0.0045,0.0,0.0,-0.0135,-0.0179,-0.2469,-0.2194,-0.192,-0.1724,-0.1568,-0.1177,-0.102,-0.1021,-0.0942,-0.0903,-0.0978,-0.1155,-0.1226,-0.1258,-0.138,-0.1435,-0.1447,-0.1505,-0.1514,-0.1634,-0.2133,-0.3056,-0.3802,-0.427,-0.4543,-0.474,-0.5249,-0.5601,-0.5637,-0.6064,-0.6261,-0.63,-0.63,-0.6296,-0.6257,-0.6099,-0.598,-0.5902,-0.575,-0.5676,-0.5559,-0.5443,-0.5362,-0.5362,-0.5129,-0.4935,-0.4815,-0.4387,-0.4307,-0.4579,-0.4428,-0.4153,-0.3962,-0.3767,-0.3499,-0.3231,-0.3107,-0.2984,-0.271,-0.2395,-0.2214,-0.2088,-0.1569,-0.126,-0.1205,-0.0888,-0.0771,-0.0697,-0.0572,-0.0356,-0.009,0.009,0.0448,0.0718,0.0134,-0.0314,-0.0135,0.0135,0.0404,0.0628,0.0852,0.1031,0.1166,0.1346,0.1436,0.1525,0.157,0.1525,0.1435,0.13,0.1211,0.1121,0.1031,0.0942,0.0852,0.0807,0.0807,0.0762,0.0628,0.0448,0.0314,0.0224,0.0269,0.0359,0.0224,0.0179,0.0269,0.0448,0.0404,0.0269,0.0359,0.0404,0.0494,0.0448,0.0404,-0.1412,-0.1177,-0.0902,-0.0706,-0.0588,-0.0157,0.0039,0.0079,0.0157,0.0196,0.0117,-0.0116,-0.0269,-0.0269,-0.053,-0.064,-0.0641,-0.0688,-0.0692,-0.0771,-0.117,-0.2117,-0.3175,-0.38,-0.4112,-0.4506,-0.509,-0.5404,-0.5637,-0.5986,-0.618,-0.6257,-0.63,-0.6219,-0.6099,-0.598,-0.5783,-0.567,-0.5518,-0.5443,-0.5329,-0.5249,-0.5129,-0.5051,-0.4779,-0.4638,-0.4365,-0.402,-0.3963,-0.4049,-0.3845,-0.3587,-0.3421,-0.3225,-0.2959,-0.2622,-0.2425,-0.2224,-0.1979,-0.1576,-0.1342,-0.1151,-0.0659,-0.0333,-0.017,0.0129,0.0304,0.0441,0.0535,0.0717,0.0987,0.1256,0.157,0.1749,0.1479,0.1121,0.0897,0.0987,0.1256,0.1525,0.1705,0.1929,0.2017,0.2242,0.2332,0.242,0.2509,0.2465,0.2422,0.2242,0.2107,0.2062,0.1973,0.1883,0.1749,0.1705,0.157,0.157,0.1569,0.1435,0.1211,0.1031,0.0942,0.0942,0.0897,0.0897,0.0942,0.0852,0.0628,0.0583,0.0673,0.0718,0.0718,0.0807,0.0807,-0.0314,-0.0118,0.0118,0.0314,0.051,0.0903,0.1061,0.1099,0.1296,0.1375,0.1295,0.0942,0.0743,0.0706,0.0351,0.0157,0.0157,0.0156,0.0078,-0.0078,-0.0471,-0.1295,-0.2392,-0.3057,-0.3565,-0.4038,-0.4657,-0.5165,-0.5518,-0.5786,-0.6057,-0.6219,-0.63,-0.6138,-0.598,-0.5902,-0.567,-0.5398,-0.5285,-0.5207,-0.5093,-0.5015,-0.4898,-0.4781,-0.4577,-0.4314,-0.401,-0.3747,-0.368,-0.3642,-0.3242,-0.3005,-0.2852,-0.2651,-0.2385,-0.2124,-0.1752,-0.142,-0.1174,-0.0794,-0.0421,-0.0211,0.0211,0.0639,0.0824,0.1093,0.1276,0.1428,0.1524,0.1705,0.1929,0.2333,0.2557,0.269,0.2823,0.2553,0.2017,0.1838,0.2018,0.2288,0.2469,0.2735,0.2957,0.3181,0.3315,0.3358,0.3446,0.3358,0.3315,0.3226,0.3136,0.3045,0.2957,0.2869,0.269,0.2557,0.2423,0.2333,0.2377,0.2287,0.1973,0.1794,0.157,0.148,0.1436,0.1391,0.1346,0.1211,0.0987,0.0942,0.1122,0.0987,0.0807,0.0942,0.0987,0.0746,0.0982,0.1334,0.1529,0.1608,0.1961,0.2157,0.2157,0.2196,0.2237,0.2157,0.1803,0.1608,0.1608,0.1217,0.1022,0.1021,0.0982,0.0864,0.0432,0.0079,-0.0432,-0.1256,-0.2118,-0.2979,-0.3604,-0.4384,-0.4971,-0.5321,-0.5709,-0.6057,-0.6257,-0.6257,-0.6177,-0.5902,-0.575,-0.5556,-0.5321,-0.5171,-0.5054,-0.5018,-0.4867,-0.4755,-0.4648,-0.4276,-0.3995,-0.3694,-0.3172,-0.2873,-0.2822,-0.2737,-0.2578,-0.2377,-0.2045,-0.176,-0.1475,-0.1097,-0.0759,-0.0463,-0.0085,0.0297,0.0603,0.095,0.1306,0.1555,0.1958,0.2186,0.2288,0.2466,0.2644,0.2869,0.3184,0.3406,0.3583,0.3807,0.3896,0.3628,0.3181,0.2959,0.3048,0.336,0.3628,0.3715,0.3983,0.4162,0.4295,0.4295,0.4253,0.4208,0.4208,0.4119,0.4028,0.3851,0.3717,0.3496,0.3317,0.3138,0.305,0.3093,0.3138,0.2825,0.2556,0.2377,0.2198,0.2019,0.1974,0.1929,0.184,0.175,0.166,0.1525,0.1391,0.1301,0.1301,0.1256,0.1727,0.1884,0.2198,0.2313,0.2392,0.2743,0.2901,0.294,0.3057,0.3098,0.3018,0.2665,0.2468,0.2429,0.204,0.1845,0.1845,0.1766,0.1492,0.11,0.0746,0.0393,-0.0157,-0.1138,-0.2078,-0.3057,-0.3997,-0.4659,-0.5124,-0.5553,-0.5867,-0.6138,-0.6219,-0.6064,-0.5825,-0.5676,-0.544,-0.5207,-0.5057,-0.5018,-0.4982,-0.4836,-0.4576,-0.4369,-0.3981,-0.3669,-0.3195,-0.2904,-0.2448,-0.2161,-0.2037,-0.1984,-0.1839,-0.1495,-0.1201,-0.0866,-0.052,-0.0174,0.0174,0.0608,0.1048,0.1453,0.1764,0.2084,0.2415,0.2826,0.3048,0.3183,0.336,0.3628,0.3717,0.3942,0.4164,0.4385,0.4654,0.4832,0.4832,0.4253,0.3808,0.3898,0.421,0.4431,0.4607,0.4832,0.5099,0.5322,0.545,0.5408,0.528,0.5235,0.5099,0.4964,0.4743,0.452,0.4253,0.403,0.3808,0.3764,0.3808,0.3808,0.3719,0.3451,0.3181,0.2959,0.269,0.2556,0.251,0.2467,0.2334,0.2064,0.1885,0.1885,0.184,0.175,0.175,0.2652,0.2692,0.2899,0.2982,0.3059,0.3409,0.3563,0.3602,0.38,0.3841,0.3802,0.3446,0.3251,0.3173,0.2862,0.2705,0.2588,0.2431,0.2118,0.1806,0.1531,0.1178,0.0667,-0.0118,-0.1098,-0.2431,-0.345,-0.419,-0.4851,-0.5321,-0.5595,-0.5864,-0.6099,-0.5944,-0.5634,-0.5559,-0.5404,-0.5093,-0.5045,-0.5022,-0.4959,-0.4801,-0.4531,-0.4072,-0.3796,-0.3416,-0.2954,-0.258,-0.22,-0.1478,-0.1256,-0.1155,-0.1054,-0.0918,-0.0659,-0.0268,0.0089,0.0534,0.0979,0.1384,0.1789,0.2334,0.2556,0.2868,0.327,0.3585,0.3808,0.4074,0.4297,0.452,0.452,0.479,0.5013,0.5233,0.5458,0.568,0.5722,0.5144,0.4968,0.479,0.501,0.5188,0.55,0.5766,0.6038,0.6305,0.6432,0.6473,0.6346,0.6216,0.6035,0.5855,0.5589,0.523,0.4964,0.4832,0.461,0.4565,0.4567,0.4523,0.4523,0.4344,0.4074,0.3628,0.336,0.3226,0.3092,0.296,0.2736,0.2424,0.2288,0.2242,0.2243,0.22,0.22,0.3421,0.3429,0.3771,0.3882,0.3923,0.4151,0.4229,0.4229,0.4304,0.4307,0.4268,0.4075,0.3958,0.3876,0.3722,0.3448,0.324,0.3088,0.286,0.255,0.2237,0.1922,0.1568,0.0823,-0.0039,-0.0979,-0.2309,-0.3522,-0.4382,-0.489,-0.5282,-0.5634,-0.5867,-0.575,-0.5556,-0.5482,-0.5371,-0.509,-0.5102,-0.506,-0.4907,-0.4746,-0.4433,-0.3879,-0.363,-0.3272,-0.279,-0.2274,-0.1789,-0.139,-0.0673,-0.0313,-0.0223,-0.0178,0.0089,0.0448,0.0897,0.1301,0.1794,0.2154,0.2691,0.3184,0.3408,0.3631,0.4032,0.4344,0.4656,0.4921,0.5186,0.5453,0.55,0.568,0.5947,0.6166,0.6343,0.6612,0.6697,0.6564,0.621,0.5852,0.5899,0.5991,0.6302,0.6612,0.6877,0.7054,0.7139,0.7268,0.7224,0.7051,0.6833,0.6609,0.6387,0.5985,0.563,0.5586,0.5453,0.5411,0.5411,0.5277,0.528,0.5238,0.4968,0.4476,0.403,0.376,0.3628,0.3451,0.3227,0.2959,0.2825,0.269,0.2602,0.2557,0.2423,0.423,0.4239,0.4457,0.4582,0.4579,0.4774,0.489,0.489,0.4971,0.501,0.4971,0.4815,0.4663,0.4586,0.4382,0.4112,0.3851,0.382,0.36,0.3294,0.2979,0.2704,0.243,0.1645,0.0979,0.0117,-0.1135,-0.2543,-0.372,-0.4501,-0.4929,-0.5279,-0.5592,-0.5592,-0.5398,-0.5362,-0.5322,-0.5136,-0.5162,-0.5105,-0.4881,-0.4732,-0.4273,-0.3818,-0.3442,-0.3064,-0.2502,-0.1973,-0.1391,-0.0897,-0.0314,0.0224,0.0583,0.0762,0.0852,0.1121,0.1525,0.2018,0.2511,0.2869,0.3317,0.3853,0.4166,0.4478,0.4835,0.5191,0.5547,0.5858,0.6035,0.6299,0.6428,0.6564,0.6697,0.6915,0.7095,0.7275,0.7452,0.7499,0.7275,0.6915,0.6915,0.7007,0.7139,0.7408,0.7672,0.7845,0.7889,0.7973,0.8017,0.7845,0.7628,0.7404,0.7183,0.6786,0.6428,0.634,0.6299,0.6254,0.621,0.6077,0.5988,0.5902,0.5725,0.5369,0.4921,0.4474,0.4208,0.4078,0.3762,0.3494,0.3317,0.3184,0.3005,0.2871,0.2781,0.4981,0.4995,0.5175,0.5234,0.5273,0.5434,0.5473,0.5512,0.5631,0.5712,0.5673,0.5544,0.5399,0.5269,0.5061,0.4798,0.446,0.4529,0.4343,0.4073,0.3837,0.36,0.321,0.2626,0.1959,0.1175,0.0117,-0.1213,-0.282,-0.3837,-0.4462,-0.489,-0.5282,-0.5401,-0.5282,-0.5285,-0.5244,-0.5236,-0.5222,-0.5169,-0.4969,-0.4588,-0.4136,-0.3624,-0.3315,-0.2822,-0.2153,-0.1615,-0.1031,-0.0448,0.009,0.0628,0.1346,0.1614,0.1749,0.1883,0.2198,0.2601,0.3138,0.3585,0.4032,0.461,0.5053,0.5366,0.5725,0.6124,0.6523,0.6925,0.7058,0.7187,0.736,0.7404,0.7536,0.7713,0.7841,0.7889,0.8113,0.8248,0.8332,0.8109,0.7973,0.7933,0.8021,0.8069,0.8288,0.8508,0.8548,0.8596,0.864,0.8552,0.8376,0.8201,0.7933,0.758,0.7316,0.7098,0.7054,0.701,0.6922,0.683,0.6697,0.6564,0.6299,0.608,0.5722,0.5275,0.4968,0.4659,0.4344,0.4076,0.3855,0.3676,0.3451,0.3317,0.3183,0.5682,0.5706,0.5939,0.6047,0.6047,0.6128,0.6128,0.6128,0.6167,0.6125,0.6167,0.6111,0.6031,0.584,0.5675,0.5458,0.5272,0.5213,0.5121,0.4888,0.4771,0.4574,0.4226,0.38,0.3057,0.2272,0.1253,-0.0392,-0.188,-0.2857,-0.3717,-0.4343,-0.4774,-0.5046,-0.5012,-0.5126,-0.5266,-0.5221,-0.5292,-0.5238,-0.4925,-0.4358,-0.3887,-0.3582,-0.3138,-0.2599,-0.1929,-0.1391,-0.0762,-0.0045,0.0628,0.1211,0.1749,0.2422,0.2914,0.3093,0.3138,0.3226,0.3985,0.4433,0.4835,0.5411,0.5941,0.6343,0.6697,0.7003,0.7404,0.7632,0.7848,0.8069,0.8241,0.8372,0.8508,0.8552,0.8596,0.8775,0.8955,0.8863,0.8903,0.9034,0.8855,0.8855,0.8859,0.8863,0.8911,0.9082,0.9213,0.9213,0.917,0.9082,0.8951,0.8732,0.8552,0.8245,0.8069,0.7893,0.7764,0.7764,0.7588,0.7496,0.7316,0.7139,0.6966,0.67,0.6343,0.6077,0.5766,0.5366,0.4968,0.4656,0.4478,0.4208,0.3894,0.3762,0.363,0.6627,0.6478,0.6798,0.6938,0.6942,0.6942,0.6938,0.6938,0.6938,0.6938,0.6915,0.6798,0.6589,0.6277,0.614,0.6007,0.5842,0.5955,0.5896,0.5738,0.5661,0.5467,0.5079,0.4771,0.4187,0.3366,0.2506,0.1448,-0.0235,-0.1802,-0.2938,-0.3487,-0.4151,-0.4543,-0.4662,-0.4857,-0.5041,-0.5125,-0.5118,-0.5033,-0.4837,-0.43,-0.3812,-0.3587,-0.3005,-0.2378,-0.1794,-0.1076,-0.0404,0.0359,0.1076,0.1794,0.2376,0.3004,0.3542,0.4123,0.4164,0.4295,0.4699,0.5191,0.5677,0.6118,0.6738,0.7363,0.7713,0.7973,0.8193,0.8424,0.8512,0.8732,0.8947,0.899,0.9038,0.9126,0.9213,0.9257,0.9388,0.9432,0.9471,0.9602,0.9781,0.9733,0.9646,0.9559,0.9515,0.9607,0.9689,0.9689,0.9607,0.9476,0.9301,0.913,0.8999,0.8863,0.8732,0.86,0.8468,0.8384,0.8072,0.7981,0.7893,0.7716,0.754,0.7408,0.7139,0.683,0.652,0.6077,0.5591,0.5324,0.5099,0.4788,0.4518,0.4164,0.4032,0.7584,0.7378,0.7559,0.7638,0.7638,0.7642,0.7638,0.7642,0.7638,0.7613,0.7513,0.7298,0.698,0.6752,0.662,0.6565,0.6477,0.6704,0.6689,0.6591,0.6472,0.6318,0.5973,0.5664,0.5198,0.4419,0.3679,0.2699,0.1409,-0.0157,-0.1567,-0.2549,-0.3372,-0.388,-0.4231,-0.4438,-0.4688,-0.4971,-0.4848,-0.4812,-0.4725,-0.4168,-0.381,-0.3408,-0.2871,-0.22,-0.166,-0.0897,-0.009,0.0762,0.148,0.2198,0.2957,0.3585,0.4302,0.4882,0.5188,0.5497,0.5766,0.6124,0.6435,0.6918,0.7492,0.8201,0.864,0.8811,0.8942,0.917,0.9257,0.9432,0.9563,0.9646,0.9733,0.9733,0.9733,0.9694,0.9694,0.9907,1.0077,1.025,1.0424,1.0554,1.0424,1.0246,1.0164,1.0168,1.0168,1.0168,1.0081,0.9951,0.9864,0.9738,0.9602,0.9471,0.9345,0.9257,0.9126,0.8955,0.8688,0.8512,0.8464,0.8332,0.816,0.8028,0.7848,0.7584,0.7228,0.67,0.6216,0.5991,0.5769,0.5458,0.5146,0.4746,0.4478,0.8369,0.8553,0.8197,0.8063,0.8068,0.8063,0.8063,0.8063,0.8063,0.7959,0.7779,0.7416,0.7311,0.7297,0.7206,0.7194,0.7347,0.7395,0.7349,0.7365,0.7369,0.7134,0.6826,0.6479,0.6057,0.5279,0.4654,0.3912,0.2898,0.1605,-0.0117,-0.1763,-0.243,-0.3175,-0.3724,-0.4042,-0.4416,-0.4683,-0.4614,-0.4637,-0.4495,-0.408,-0.3676,-0.3408,-0.2736,-0.1974,-0.1436,-0.0673,0.0179,0.1122,0.1929,0.2691,0.3542,0.4302,0.506,0.5683,0.6169,0.6605,0.7139,0.7054,0.7146,0.7716,0.8376,0.8995,0.9345,0.9476,0.965,0.9864,0.9994,1.025,1.0429,1.0603,1.0467,1.0424,1.0381,1.0381,1.0424,1.0554,1.0727,1.0852,1.1025,1.116,1.1284,1.1111,1.0722,1.0684,1.0598,1.0598,1.0598,1.0511,1.0511,1.0424,1.025,1.012,0.9907,0.982,0.9689,0.9515,0.9297,0.9213,0.917,0.8995,0.8648,0.8552,0.8372,0.8157,0.7896,0.7496,0.7102,0.6748,0.6438,0.6121,0.5722,0.5322,0.5099,0.8615,0.8636,0.8714,0.8708,0.8637,0.8641,0.8556,0.8479,0.8475,0.8364,0.8125,0.7753,0.7623,0.7642,0.7617,0.7614,0.7681,0.7824,0.7851,0.7872,0.7834,0.7714,0.748,0.7288,0.6976,0.6282,0.5699,0.4999,0.4064,0.3013,0.1919,0.0431,-0.1137,-0.2273,-0.294,-0.3622,-0.4161,-0.4366,-0.4418,-0.4452,-0.4501,-0.4034,-0.3587,-0.3542,-0.2511,-0.1749,-0.1166,-0.0224,0.0762,0.1705,0.2556,0.3406,0.4257,0.506,0.5816,0.6526,0.6966,0.7672,0.8201,0.8069,0.8113,0.8947,0.9428,0.9738,1.0038,1.0207,1.0381,1.0554,1.0684,1.0857,1.1025,1.1073,1.1025,1.1068,1.1068,1.1117,1.1154,1.1241,1.1375,1.1542,1.1634,1.1725,1.1849,1.1972,1.1542,1.1198,1.1111,1.1068,1.1068,1.103,1.0987,1.0987,1.0814,1.0636,1.0424,1.0337,1.025,1.0033,0.9864,0.982,0.9694,0.9349,0.9087,0.899,0.8947,0.8815,0.86,0.8336,0.7984,0.7452,0.7095,0.6782,0.6384,0.5899,0.5722,0.893,0.8949,0.9232,0.9243,0.9033,0.8998,0.8908,0.8784,0.8703,0.8585,0.8392,0.804,0.7949,0.7956,0.7984,0.8037,0.8104,0.8226,0.8275,0.8289,0.825,0.8169,0.8055,0.7897,0.7629,0.7169,0.6668,0.597,0.5115,0.4222,0.3209,0.1922,0.0512,-0.075,-0.2002,-0.2932,-0.3689,-0.3942,-0.3998,-0.4097,-0.4198,-0.381,-0.3406,-0.3272,-0.2331,-0.157,-0.0852,0.009,0.121,0.2241,0.3183,0.4121,0.501,0.5858,0.6612,0.7231,0.7848,0.8552,0.8951,0.9122,0.9248,0.9903,1.0207,1.0467,1.0771,1.0939,1.1068,1.1154,1.1246,1.1375,1.1585,1.1671,1.1757,1.18,1.1843,1.1843,1.1886,1.1929,1.2063,1.2192,1.2283,1.2412,1.254,1.2662,1.24,1.1972,1.18,1.1714,1.1671,1.1591,1.1429,1.1381,1.1295,1.1117,1.0895,1.0809,1.0722,1.0424,1.0294,1.0255,1.0086,0.9781,0.9607,0.9646,0.9602,0.9476,0.9257,0.8907,0.8508,0.8113,0.7713,0.7316,0.7003,0.6561,0.6387,0.9405,0.9596,0.9719,0.951,0.9081,0.9047,0.9022,0.898,0.8799,0.8585,0.8415,0.8171,0.8226,0.8327,0.8407,0.8487,0.8628,0.8685,0.8703,0.8708,0.8708,0.8551,0.8479,0.8365,0.8241,0.7783,0.7365,0.6865,0.6125,0.5234,0.43,0.3403,0.2203,0.0764,-0.063,-0.1726,-0.2534,-0.3056,-0.3112,-0.3379,-0.3566,-0.3406,-0.3181,-0.2868,-0.2196,-0.1436,-0.0538,0.0493,0.1614,0.2688,0.3762,0.4788,0.5722,0.6653,0.7408,0.8113,0.8859,0.9471,0.9951,1.012,1.0424,1.0636,1.0895,1.1111,1.1284,1.1499,1.172,1.1843,1.1897,1.2118,1.224,1.24,1.2491,1.2577,1.2619,1.2656,1.2699,1.2705,1.2839,1.2918,1.3009,1.3137,1.3264,1.3349,1.3173,1.2875,1.2534,1.2406,1.232,1.2106,1.194,1.1817,1.1725,1.1516,1.1381,1.1332,1.1154,1.0901,1.0684,1.0641,1.0603,1.0386,1.0299,1.0255,1.0125,0.9951,0.9738,0.9476,0.9209,0.8899,0.8245,0.7804,0.7489,0.7312,0.7224,0.988,0.975,1.0015,0.9962,0.9669,0.9612,0.9473,0.9183,0.8881,0.8683,0.859,0.8382,0.8526,0.8707,0.8792,0.8906,0.9031,0.9089,0.9089,0.9089,0.9089,0.9051,0.898,0.8899,0.8742,0.8432,0.8093,0.7676,0.7053,0.624,0.565,0.4848,0.3557,0.1856,0.0206,-0.0955,-0.1648,-0.216,-0.2479,-0.2852,-0.3218,-0.3092,-0.2911,-0.2778,-0.1973,-0.1121,-0.0224,0.0987,0.2151,0.3312,0.4474,0.5539,0.6561,0.7536,0.8285,0.8942,0.9689,1.0549,1.1154,1.1499,1.1542,1.1542,1.1542,1.1757,1.2015,1.2229,1.2448,1.2577,1.2674,1.2845,1.3009,1.3179,1.3307,1.3385,1.3428,1.3591,1.3633,1.3652,1.3701,1.3695,1.3779,1.3851,1.3977,1.3984,1.3808,1.3682,1.3428,1.3137,1.3009,1.2705,1.2448,1.2283,1.2155,1.1952,1.1823,1.1725,1.1639,1.1386,1.1165,1.103,1.0944,1.0906,1.0776,1.0646,1.0559,1.0424,1.0212,1.0038,1.0077,0.9772,0.9074,0.8596,0.8416,0.8281,0.8149,1.0333,1.0181,1.0482,1.0465,1.0236,1.0013,0.9663,0.9296,0.902,0.8886,0.8803,0.8711,0.8801,0.8988,0.9099,0.9175,0.9322,0.9284,0.9284,0.9322,0.9284,0.9246,0.9284,0.9322,0.9094,0.8894,0.8703,0.8322,0.7902,0.7288,0.6595,0.576,0.4897,0.3652,0.2003,0.0899,-0.0344,-0.0875,-0.1323,-0.1859,-0.2235,-0.242,-0.2376,-0.2061,-0.1479,-0.0673,0.0403,0.1568,0.2822,0.4115,0.5314,0.6378,0.7489,0.8368,0.9113,0.9772,1.0593,1.1408,1.2057,1.2534,1.2491,1.2491,1.2443,1.2534,1.279,1.2966,1.3173,1.3349,1.344,1.3568,1.3688,1.3899,1.3984,1.4019,1.4146,1.4272,1.4272,1.4243,1.425,1.4286,1.4321,1.444,1.4566,1.4566,1.4482,1.4398,1.4279,1.3984,1.3652,1.3307,1.296,1.2796,1.2625,1.246,1.2289,1.2155,1.1989,1.1828,1.1645,1.1462,1.1429,1.1392,1.117,1.0992,1.0868,1.0781,1.0689,1.0598,1.0511,1.0381,0.999,0.9598,0.9345,0.9165,0.903,1.0807,1.0832,1.1042,1.097,1.0725,1.027,0.9809,0.9359,0.9311,0.9198,0.9018,0.9198,0.9193,0.9127,0.9251,0.9397,0.9468,0.9468,0.9473,0.9473,0.9544,0.9468,0.9473,0.9473,0.9468,0.9354,0.9165,0.9046,0.867,0.8242,0.7465,0.6706,0.6238,0.5427,0.433,0.3063,0.1578,0.0753,-0.0045,-0.058,-0.103,-0.1479,-0.139,-0.1121,-0.0673,0.009,0.112,0.2285,0.3624,0.4917,0.6157,0.7305,0.8321,0.92,0.9898,1.0722,1.1585,1.2186,1.279,1.3228,1.3476,1.347,1.3349,1.3434,1.3555,1.3688,1.3815,1.3935,1.4026,1.4195,1.4314,1.4398,1.4482,1.4566,1.4657,1.4741,1.4741,1.4741,1.4741,1.4741,1.4741,1.4824,1.4957,1.4999,1.4915,1.4915,1.4748,1.458,1.4201,1.3822,1.3525,1.3264,1.3143,1.2966,1.2753,1.254,1.2326,1.2118,1.2032,1.1897,1.1866,1.1785,1.1607,1.1392,1.1219,1.1132,1.117,1.1035,1.0906,1.0733,1.0689,1.0337,1.0038,0.9951,0.9816,1.1083,1.1059,1.1383,1.1389,1.1199,1.1034,1.0588,0.996,0.9809,0.9625,0.9397,0.9322,0.9473,0.9663,0.9738,0.9884,1.0035,1.0143,1.018,1.0143,1.0067,1.0143,1.0143,1.0105,1.0067,0.9954,0.9841,0.9728,0.9545,0.915,0.8941,0.848,0.7823,0.7327,0.6643,0.5623,0.3999,0.2586,0.1744,0.0939,0.0313,-0.0179,-0.0134,0.0,0.0179,0.0986,0.206,0.2998,0.4336,0.5894,0.6953,0.8057,0.9205,1.0115,1.0939,1.1972,1.2577,1.3009,1.3568,1.3828,1.4033,1.4279,1.4237,1.4195,1.4272,1.4314,1.4447,1.4489,1.4531,1.4657,1.4699,1.4783,1.4824,1.4915,1.5041,1.5082,1.5082,1.5082,1.5082,1.5082,1.509,1.509,1.5215,1.5257,1.5173,1.5257,1.5215,1.5006,1.4706,1.4286,1.399,1.3737,1.344,1.3222,1.3094,1.2924,1.2668,1.2412,1.2369,1.2246,1.208,1.2,1.1914,1.1785,1.1613,1.1607,1.1693,1.1559,1.1343,1.1559,1.1516,1.1122,1.0776,1.0689,1.0516,1.1373,1.135,1.1624,1.1716,1.1698,1.1734,1.1409,1.0887,1.0443,1.011,0.9841,0.9809,0.9884,0.9997,1.0105,1.0293,1.0556,1.0556,1.0594,1.07,1.0738,1.07,1.0738,1.0738,1.0663,1.0594,1.0556,1.0475,1.0345,1.029,1.0116,0.9914,0.9354,0.9078,0.8567,0.7811,0.6794,0.5292,0.3966,0.2767,0.2011,0.1475,0.1343,0.1389,0.1478,0.2237,0.3221,0.4067,0.5445,0.6956,0.8013,0.9017,1.0115,1.1111,1.1843,1.2747,1.327,1.3574,1.3997,1.4334,1.4587,1.479,1.4915,1.4908,1.4831,1.4831,1.4915,1.4957,1.4999,1.4992,1.5041,1.509,1.5173,1.5222,1.5305,1.5389,1.5389,1.5389,1.5389,1.5389,1.5389,1.5389,1.5389,1.5389,1.5389,1.5389,1.5305,1.5215,1.4957,1.4615,1.4321,1.411,1.3773,1.3483,1.3349,1.3222,1.3009,1.2796,1.2753,1.2631,1.2338,1.2209,1.2166,1.208,1.1957,1.1995,1.2037,1.1952,1.1866,1.2037,1.2037,1.1693,1.1429,1.1386,1.1208,1.1591,1.1589,1.1743,1.1917,1.2107,1.2227,1.2134,1.1946,1.1242,1.07,1.04,1.0481,1.0438,1.0481,1.055,1.0743,1.0931,1.0968,1.1037,1.1149,1.1149,1.1149,1.1149,1.1149,1.1111,1.1149,1.1161,1.1191,1.1223,1.1178,1.1154,1.1108,1.0867,1.0582,1.0279,0.971,0.8952,0.8289,0.6615,0.5159,0.4235,0.3571,0.313,0.3221,0.3398,0.3842,0.4779,0.5802,0.6868,0.8101,0.9196,1.0106,1.1235,1.21,1.279,1.3264,1.3779,1.4082,1.4377,1.4713,1.4957,1.5131,1.5305,1.5257,1.5215,1.5131,1.5173,1.5215,1.5215,1.5215,1.5264,1.5264,1.5305,1.5305,1.5347,1.5389,1.5389,1.5389,1.5389,1.5389,1.5389,1.5389,1.5389,1.5389,1.5389,1.5389,1.5389,1.5298,1.5173,1.4866,1.4629,1.4412,1.4104,1.3773,1.3568,1.344,1.3313,1.3185,1.31,1.3015,1.2802,1.2589,1.2412,1.246,1.2509,1.2295,1.2252,1.2295,1.2295,1.2203,1.2203,1.2123,1.1995,1.1995,1.178,1.1591,1.1621,1.175,1.1938,1.2171,1.2304,1.2257,1.2098,1.2175,1.1731,1.1186,1.1031,1.1037,1.1111,1.1149,1.1304,1.1446,1.1484,1.1521,1.1595,1.1595,1.1626,1.1589,1.1632,1.1595,1.1595,1.1695,1.1902,1.2043,1.2045,1.2093,1.22,1.2059,1.1886,1.1843,1.1273,1.088,1.0616,0.9561,0.7891,0.6665,0.57,0.5085,0.522,0.5398,0.5659,0.646,0.7126,0.8221,0.9357,1.0197,1.1284,1.2534,1.3137,1.3568,1.387,1.4286,1.4538,1.4755,1.5006,1.5173,1.5298,1.5389,1.5389,1.5389,1.5347,1.5347,1.5389,1.5389,1.5389,1.5418,1.5418,1.5489,1.5482,1.5489,1.5489,1.5489,1.5482,1.5482,1.5418,1.5411,1.5403,1.5411,1.5389,1.5389,1.5389,1.5389,1.5347,1.5305,1.509,1.4881,1.4621,1.4447,1.4146,1.3899,1.3737,1.361,1.344,1.3313,1.327,1.3228,1.3052,1.2881,1.3058,1.31,1.2845,1.2717,1.2845,1.2802,1.2625,1.254,1.2546,1.2546,1.2503,1.2246,1.1654,1.1628,1.1807,1.1974,1.2109,1.2274,1.2256,1.2207,1.2414,1.2249,1.1876,1.1717,1.1706,1.1781,1.1787,1.1892,1.204,1.2077,1.2187,1.2224,1.215,1.2261,1.2224,1.2207,1.2261,1.2268,1.2368,1.2567,1.2899,1.2903,1.2912,1.3246,1.3189,1.313,1.3088,1.279,1.2491,1.2308,1.18,1.0745,0.9213,0.8293,0.746,0.7467,0.7555,0.7819,0.8257,0.8877,0.971,1.0702,1.158,1.2406,1.3349,1.3815,1.411,1.437,1.4657,1.4957,1.5104,1.5236,1.5313,1.5396,1.5389,1.5389,1.5389,1.5389,1.5389,1.5389,1.5389,1.5396,1.565,1.5709,1.5848,1.5906,1.5943,1.5965,1.5965,1.5965,1.5855,1.5666,1.563,1.5549,1.5513,1.5389,1.5389,1.5389,1.5389,1.5489,1.5391,1.552,1.5233,1.5029,1.4895,1.453,1.4188,1.4026,1.3942,1.3737,1.3674,1.3515,1.3485,1.3411,1.3398,1.3508,1.3466,1.3313,1.3228,1.3307,1.3222,1.3052,1.3003,1.3003,1.3003,1.2966,1.2802,1.1709,1.1674,1.1853,1.1937,1.1989,1.2114,1.2183,1.2199,1.2346,1.248,1.2444,1.2392,1.2391,1.2372,1.2378,1.2489,1.2556,1.2519,1.2709,1.2783,1.2826,1.2785,1.2813,1.2917,1.2942,1.2991,1.3063,1.3366,1.3682,1.3638,1.3763,1.4268,1.4294,1.4153,1.4117,1.399,1.3688,1.347,1.3124,1.2912,1.2003,1.0966,0.9961,0.9614,0.9744,0.9966,1.0361,1.0799,1.1413,1.21,1.2833,1.3534,1.409,1.4499,1.4682,1.4958,1.522,1.5347,1.5352,1.5429,1.5455,1.5452,1.5445,1.5411,1.546,1.5504,1.5504,1.5533,1.5533,1.5635,1.5848,1.6001,1.6155,1.6309,1.6353,1.6389,1.6389,1.6382,1.6213,1.5987,1.5906,1.5818,1.5716,1.5584,1.5548,1.5533,1.5533,1.5548,1.5613,1.5867,1.5884,1.5705,1.5605,1.5205,1.4703,1.4576,1.4566,1.4484,1.4422,1.4025,1.3805,1.4035,1.4071,1.3828,1.3779,1.3776,1.3695,1.3682,1.3603,1.3564,1.3392,1.3343,1.3307,1.3307,1.3313,1.174,1.1599,1.1665,1.1687,1.1706,1.1927,1.2032,1.2083,1.2333,1.2608,1.2782,1.2841,1.2856,1.2783,1.279,1.2856,1.2856,1.2856,1.2856,1.29,1.2973,1.3128,1.3276,1.3407,1.3622,1.3693,1.3743,1.3882,1.4166,1.4177,1.4196,1.4385,1.4601,1.4608,1.4573,1.4489,1.4405,1.4237,1.4153,1.3935,1.3421,1.2431,1.1537,1.1278,1.1278,1.1537,1.1837,1.2186,1.2705,1.33,1.3861,1.4469,1.4871,1.5183,1.5425,1.5554,1.5872,1.5835,1.5841,1.5783,1.5774,1.5584,1.5584,1.5562,1.5628,1.576,1.5796,1.5884,1.5921,1.6023,1.6191,1.6265,1.6426,1.647,1.6514,1.6521,1.6521,1.6558,1.6522,1.6448,1.6404,1.6294,1.6278,1.6205,1.6197,1.6182,1.6312,1.632,1.6189,1.6328,1.6482,1.6453,1.6359,1.6002,1.5585,1.5472,1.5413,1.5309,1.5251,1.501,1.4927,1.4936,1.4909,1.4681,1.4525,1.4465,1.4382,1.4291,1.4188,1.4143,1.3776,1.3603,1.3678,1.3773,1.3893]},{"header":{"parameterUnit":"m.s-1","parameterCategory":1,"la1":31.0,"la2":29.5877,"lo1":-88.7671,"lo2":-86.6584,"dy":0.0162,"dx":0.0185,"nx":115,"ny":88,"refTime":"2023-09-16T12:00:00:Z","depth":0,"parameterNumber":3,"parameterNumberName":"V-component_of_WINDS"},"data":[0.0,0.0,0.0,0.0,0.0,0.0,0.0,0.0,0.0,0.0,0.0,0.0,0.0,0.0,0.0,0.0,0.0,0.0,0.0,0.0,0.0,0.0,0.0,0.0,0.0,0.0,0.0,0.0,0.0,0.0,0.0,0.0,0.0,0.0,0.0,0.0,0.0,0.0,0.0,0.0,0.0,0.0,0.0,0.0,0.0,0.0,0.0,0.0,0.0,0.0,0.0,0.0,0.0,0.0,0.0,0.0,0.0,0.0,0.0,0.0,0.0,0.0,0.0,0.0,0.0,0.0,0.0,0.0,0.0,0.0,0.0,0.0,0.0,0.0,0.0,0.0,0.0,0.0,0.0,0.0,0.0,0.0,0.0,0.0,0.0,0.0,0.0,0.0,0.0,0.0,0.0,0.0,0.0,0.0,0.0,0.0,0.0,0.0,0.0,0.0,0.0,0.0,0.0,0.0,0.0,0.0,0.0,0.0,0.0,0.0,0.0,0.0,0.0,0.0,0.0,0.0,0.0,0.0,0.0,0.0,0.0,0.0,0.0,0.0,0.0,0.0,0.0,0.0,0.0,0.0,0.0,0.0,0.0,0.0,0.0,0.0,0.0,0.0,0.0,0.0,0.0,0.0,0.0,0.0,0.0,0.0,0.0,0.0,0.0,0.0,0.0,0.0,0.0,0.0,0.0,0.0,0.0,0.0,0.0,0.0,0.0,0.0,0.0,0.0,0.0,0.0,0.0,0.0,0.0,0.0,0.0,0.0,0.0,0.0,0.0,0.0,0.0,0.0,0.0,0.0,0.0,0.0,0.0,0.0,0.0,0.0,0.0,0.0,0.0,0.0,0.0,0.0,0.0,0.0,0.0,0.0,0.0,0.0,0.0,0.0,0.0,0.0,0.0,0.0,0.0,0.0,0.0,0.0,0.0,0.0,0.0,0.0,0.0,0.0,0.0,0.0,0.0,0.0,0.0,0.0,0.0,0.0,0.0,0.0,0.0,0.0,0.0,0.0,0.0,0.0,0.0,0.0,0.0,0.0,0.0,0.0,0.0,0.0,0.0,0.0,0.0,0.0,0.0,0.0,0.0,0.0,0.0,0.0,0.0,0.0,0.0,0.0,0.0,0.0,0.0,0.0,0.0,0.0,0.0,0.0,0.0,0.0,0.0,0.0,0.0,0.0,0.0,0.0,0.0,0.0,0.0,0.0,0.0,0.0,0.0,0.0,0.0,0.0,0.0,0.0,0.0,0.0,0.0,0.0,0.0,0.0,0.0,0.0,0.0,0.0,0.0,0.0,0.0,0.0,0.0,0.0,0.0,0.0,0.0,0.0,0.0,0.0,0.0,0.0,0.0,0.0,0.0,0.0,0.0,0.0,0.0,0.0,0.0,0.0,0.0,0.0,0.0,0.0,0.0,0.0,0.0,0.0,0.0,0.0,0.0,0.0,0.0,0.0,0.0,0.0,0.0,0.0,0.0,0.0,0.0,0.0,0.0,0.0,0.0,0.0,0.0,0.0,0.0,0.0,0.0,0.0,0.0,0.0,0.0,0.0,0.0,0.0,0.0,0.0,0.0,0.0,0.0,0.0,0.0,0.0,0.0,0.0,0.0,0.0,0.0,0.0,0.0,0.0,0.0,0.0,0.0,0.0,0.0,0.0,0.0,0.0,0.0,0.0,0.0,0.0,0.0,0.0,0.0,0.0,0.0,0.0,0.0,0.0,0.0,0.0,0.0,0.0,0.0,0.0,0.0,0.0,0.0,0.0,0.0,0.0,0.0,0.0,0.0,0.0,0.0,0.0,0.0,0.0,0.0,0.0,0.0,0.0,0.0,0.0,0.0,0.0,0.0,0.0,0.0,0.0,0.0,0.0,0.0,0.0,0.0,0.0,0.0,0.0,0.0,0.0,0.0,0.0,0.0,0.0,0.0,0.0,0.0,0.0,0.0,0.0,0.0,0.0,0.0,0.0,0.0,0.0,0.0,0.0,0.0,0.0,0.0,0.0,0.0,0.0,0.0,0.0,0.0,0.0,0.0,0.0,0.0,0.0,0.0,0.0,0.0,0.0,0.0,0.0,0.0,0.0,0.0,0.0,0.0,0.0,0.0,0.0,0.0,0.0,0.0,0.0,0.0,0.0,0.0,0.0,0.0,0.0,0.0,0.0,0.0,0.0,0.0,0.0,0.0,0.0,0.0,0.0,0.0,0.0,0.0,0.0,0.0,0.0,0.0,0.0,0.0,0.0,0.0,0.0,0.0,0.0,0.0,0.0,0.0,0.0,0.0,0.0,0.0,0.0,0.0,0.0,0.0,0.0,0.0,0.0,0.0,0.0,0.0,0.0,0.0,0.0,0.0,0.0,0.0,0.0,0.0,0.0,0.0,0.0,0.0,0.0,0.0,0.0,0.0,0.0,0.0,0.0,0.0,0.0,0.0,0.0,0.0,0.0,0.0,0.0,0.0,0.0,0.0,0.0,0.0,0.0,0.0,0.0,0.0,0.0,0.0,0.0,0.0,0.0,0.0,0.0,0.0,0.0,0.0,0.0,0.0,0.0,0.0,0.0,0.0,0.0,0.0,0.0,0.0,0.0,0.0,0.0,0.0,0.0,0.0,0.0,0.0,0.0,0.0,0.0,0.0,0.0,0.0,0.0,0.0,0.0,0.0,0.0,0.0,0.0,0.0,0.0,0.0,0.0,0.0,0.0,0.0,0.0,0.0,0.0,0.0,0.0,0.0,0.0,0.0,0.0,0.0,0.0,0.0,0.0,0.0,0.0,0.0,0.0,0.0,0.0,0.0,0.0,0.0,0.0,0.0,0.0,0.0,0.0,0.0,0.0,0.0,0.0,0.0,0.0,0.0,0.0,0.0,0.0,0.0,0.0,0.0,0.0,0.0,0.0,0.0,0.0,0.0,0.0,0.0,0.0,0.0,0.0,0.0,0.0,0.0,0.0,0.0,0.0,0.0,0.0,0.0,0.0,0.0,0.0,0.0,0.0,0.0,0.0,0.0,0.0,0.0,0.0,0.0,0.0,0.0,0.0,0.0,0.0,0.0,0.0,0.0,0.0,0.0,0.0,0.0,0.0,0.0,0.0,0.0,0.0,0.0,0.0,0.0,0.0,0.0,0.0,0.0,0.0,0.0,0.0,0.0,0.0,0.0,0.0,0.0,0.0,0.0,0.0,0.0,0.0,0.0,0.0,0.0,0.0,0.0,0.0,0.0,0.0,0.0,0.0,0.0,0.0,0.0,0.0,0.0,0.0,0.0,0.0,0.0,0.0,0.0,0.0,0.0,0.0,0.0,0.0,0.0,0.0,0.0,0.0,0.0,0.0,0.0,0.0,0.0,0.0,0.0,0.0,0.0,0.0,0.0,0.0,0.0,0.0,0.0,0.0,0.0,0.0,0.0,0.0,0.0,0.0,0.0,0.0,0.0,0.0,0.0,0.0,0.0,0.0,0.0,0.0,0.0,0.0,0.0,0.0,0.0,0.0,0.0,0.0,0.0,0.0,0.0,0.0,0.0,0.0,0.0,0.0,0.0,0.0,0.0,0.0,0.0,0.0,0.0,0.0,0.0,0.0,0.0,0.0,0.0,0.0,0.0,0.0,0.0,0.0,0.0,0.0,0.0,0.0,0.0,0.0,0.0,0.0,0.0,0.0,0.0,0.0,0.0,0.0,0.0,0.0,0.0,0.0,0.0,0.0,0.0,0.0,0.0,0.0,0.0,0.0,0.0,0.0,0.0,0.0,0.0,0.0,0.0,0.0,0.0,0.0,0.0,0.0,0.0,0.0,0.0,0.0,0.0,0.0,0.0,0.0,0.0,0.0,0.0,0.0,0.0,0.0,0.0,0.0,0.0,0.0,0.0,0.0,0.0,0.0,0.0,0.0,0.0,0.0,0.0,0.0,0.0,0.0,0.0,0.0,0.0,0.0,0.0,0.0,0.0,0.0,0.0,0.0,0.0,0.0,0.0,0.0,0.0,0.0,0.0,0.0,0.0,0.0,0.0,0.0,0.0,0.0,0.0,0.0,0.0,0.0,0.0,0.0,0.0,0.0,0.0,0.0,0.0,0.0,0.0,0.0,0.0,0.0,0.0,0.0,0.0,0.0,0.0,0.0,0.0,0.0,0.0,0.0,0.0,0.0,0.0,0.0,0.0,0.0,0.0,0.0,0.0,0.0,0.0,0.0,0.0,0.0,0.0,0.0,0.0,0.0,0.0,0.0,0.0,0.0,0.0,0.0,0.0,0.0,0.0,0.0,0.0,0.0,0.0,0.0,3.0689,0.0,0.0,0.0,0.0,0.0,0.0,0.0,0.0,0.0,0.0,0.0,0.0,0.0,0.0,0.0,0.0,0.0,0.0,0.0,0.0,0.0,0.0,0.0,0.0,0.0,0.0,0.0,0.0,0.0,0.0,0.0,0.0,0.0,0.0,0.0,0.0,0.0,0.0,0.0,0.0,0.0,0.0,0.0,0.0,0.0,0.0,0.0,0.0,0.0,0.0,0.0,0.0,0.0,0.0,0.0,0.0,0.0,0.0,0.0,0.0,0.0,0.0,0.0,0.0,0.0,0.0,0.0,0.0,0.0,0.0,0.0,0.0,0.0,0.0,0.0,0.0,0.0,0.0,0.0,0.0,0.0,0.0,0.0,0.0,0.0,0.0,0.0,0.0,0.0,0.0,0.0,0.0,0.0,0.0,0.0,0.0,0.0,0.0,0.0,0.0,0.0,0.0,0.0,0.0,0.0,0.0,0.0,0.0,0.0,0.0,3.0674,3.0703,3.0709,3.0712,3.0751,0.0,0.0,0.0,0.0,0.0,0.0,0.0,0.0,0.0,0.0,0.0,0.0,0.0,0.0,0.0,0.0,0.0,0.0,0.0,0.0,0.0,0.0,0.0,0.0,0.0,0.0,0.0,0.0,0.0,0.0,0.0,0.0,0.0,0.0,0.0,0.0,0.0,0.0,0.0,0.0,0.0,0.0,0.0,0.0,0.0,0.0,0.0,0.0,0.0,0.0,0.0,0.0,0.0,0.0,0.0,0.0,0.0,0.0,0.0,0.0,0.0,0.0,0.0,0.0,0.0,0.0,0.0,0.0,0.0,0.0,0.0,0.0,0.0,0.0,0.0,0.0,0.0,0.0,0.0,0.0,0.0,0.0,0.0,0.0,0.0,0.0,0.0,0.0,0.0,0.0,0.0,0.0,0.0,0.0,0.0,0.0,0.0,0.0,0.0,0.0,0.0,0.0,0.0,0.0,0.0,0.0,0.0,0.0,0.0,0.0,0.0,0.0,3.0669,3.0687,3.0732,0.0,0.0,0.0,0.0,0.0,0.0,0.0,0.0,0.0,0.0,0.0,0.0,0.0,0.0,0.0,0.0,0.0,0.0,0.0,0.0,0.0,0.0,0.0,0.0,0.0,0.0,0.0,0.0,0.0,0.0,0.0,0.0,0.0,0.0,0.0,0.0,0.0,0.0,0.0,0.0,0.0,0.0,0.0,0.0,0.0,0.0,0.0,0.0,0.0,0.0,0.0,0.0,0.0,0.0,0.0,0.0,0.0,0.0,0.0,0.0,0.0,0.0,0.0,0.0,0.0,0.0,0.0,0.0,0.0,0.0,0.0,0.0,0.0,0.0,0.0,0.0,0.0,0.0,0.0,0.0,0.0,0.0,0.0,0.0,0.0,0.0,0.0,0.0,0.0,0.0,0.0,0.0,0.0,0.0,0.0,0.0,0.0,0.0,0.0,0.0,0.0,0.0,0.0,0.0,0.0,0.0,0.0,0.0,0.0,0.0,3.06,3.0609,3.0552,0.0,3.0624,0.0,0.0,0.0,0.0,0.0,0.0,0.0,0.0,0.0,0.0,0.0,0.0,0.0,0.0,0.0,0.0,0.0,0.0,0.0,0.0,0.0,0.0,0.0,0.0,0.0,0.0,0.0,0.0,0.0,0.0,0.0,0.0,0.0,0.0,0.0,0.0,0.0,0.0,0.0,0.0,0.0,0.0,0.0,0.0,0.0,0.0,0.0,0.0,0.0,0.0,0.0,0.0,0.0,0.0,0.0,0.0,0.0,0.0,0.0,0.0,0.0,0.0,0.0,0.0,0.0,0.0,0.0,0.0,0.0,0.0,0.0,0.0,0.0,0.0,0.0,0.0,0.0,0.0,0.0,0.0,0.0,0.0,0.0,0.0,0.0,0.0,0.0,0.0,0.0,0.0,0.0,0.0,0.0,0.0,0.0,0.0,0.0,0.0,0.0,0.0,0.0,0.0,0.0,0.0,0.0,0.0,0.0,0.0,0.0,0.0,3.039,3.0307,3.0292,3.0317,0.0,0.0,0.0,0.0,0.0,0.0,0.0,0.0,0.0,0.0,0.0,0.0,0.0,0.0,0.0,0.0,0.0,0.0,0.0,0.0,0.0,0.0,0.0,0.0,0.0,0.0,0.0,0.0,0.0,0.0,0.0,0.0,0.0,0.0,0.0,0.0,0.0,0.0,0.0,0.0,0.0,0.0,0.0,0.0,0.0,0.0,0.0,0.0,0.0,0.0,0.0,0.0,0.0,0.0,0.0,0.0,0.0,0.0,0.0,0.0,0.0,0.0,0.0,0.0,0.0,0.0,0.0,0.0,0.0,0.0,0.0,0.0,0.0,0.0,0.0,0.0,0.0,0.0,0.0,0.0,0.0,0.0,0.0,0.0,0.0,0.0,0.0,0.0,0.0,0.0,0.0,0.0,0.0,0.0,0.0,0.0,0.0,0.0,0.0,0.0,0.0,0.0,0.0,0.0,0.0,0.0,0.0,0.0,0.0,0.0,2.9449,3.0369,3.0243,3.0258,3.0214,3.0112,0.0,0.0,0.0,0.0,0.0,0.0,0.0,0.0,0.0,0.0,0.0,0.0,0.0,0.0,0.0,0.0,0.0,0.0,0.0,0.0,0.0,0.0,0.0,0.0,0.0,0.0,0.0,0.0,0.0,0.0,0.0,0.0,0.0,0.0,0.0,0.0,0.0,0.0,0.0,0.0,0.0,0.0,0.0,0.0,0.0,0.0,0.0,0.0,0.0,0.0,0.0,0.0,0.0,0.0,0.0,0.0,0.0,0.0,0.0,0.0,0.0,0.0,0.0,0.0,0.0,0.0,0.0,0.0,0.0,0.0,0.0,0.0,0.0,0.0,0.0,0.0,0.0,0.0,0.0,0.0,0.0,0.0,0.0,0.0,0.0,0.0,0.0,0.0,0.0,0.0,0.0,0.0,0.0,0.0,0.0,0.0,0.0,0.0,0.0,0.0,0.0,0.0,0.0,0.0,0.0,0.0,0.0,0.0,2.7403,2.951,3.0619,3.0548,3.0628,3.034,0.0,0.0,0.0,0.0,0.0,0.0,0.0,0.0,0.0,0.0,0.0,0.0,0.0,0.0,0.0,0.0,0.0,0.0,0.0,0.0,0.0,0.0,0.0,0.0,0.0,0.0,0.0,0.0,0.0,0.0,0.0,0.0,0.0,0.0,0.0,0.0,0.0,0.0,0.0,0.0,0.0,0.0,0.0,0.0,0.0,0.0,0.0,0.0,0.0,0.0,0.0,0.0,0.0,0.0,0.0,0.0,0.0,0.0,0.0,0.0,0.0,0.0,0.0,0.0,0.0,0.0,0.0,0.0,0.0,0.0,0.0,0.0,0.0,0.0,0.0,0.0,0.0,0.0,0.0,0.0,0.0,0.0,0.0,0.0,0.0,0.0,0.0,0.0,0.0,0.0,0.0,0.0,0.0,0.0,0.0,0.0,0.0,0.0,0.0,0.0,0.0,0.0,0.0,0.0,0.0,0.0,0.0,0.0,0.0,2.6935,2.8931,3.0014,3.0032,3.002,2.946,0.0,0.0,0.0,0.0,0.0,0.0,0.0,0.0,0.0,0.0,0.0,0.0,0.0,0.0,0.0,0.0,0.0,0.0,0.0,0.0,0.0,0.0,0.0,0.0,0.0,0.0,0.0,0.0,0.0,0.0,0.0,0.0,0.0,0.0,0.0,0.0,0.0,0.0,0.0,0.0,0.0,0.0,0.0,0.0,0.0,0.0,0.0,0.0,0.0,0.0,0.0,0.0,0.0,0.0,0.0,0.0,0.0,0.0,0.0,0.0,0.0,0.0,0.0,0.0,0.0,0.0,0.0,0.0,0.0,0.0,0.0,0.0,0.0,0.0,0.0,0.0,0.0,0.0,0.0,0.0,0.0,0.0,0.0,0.0,0.0,0.0,0.0,0.0,0.0,0.0,0.0,0.0,0.0,0.0,0.0,0.0,0.0,0.0,0.0,0.0,0.0,0.0,0.0,0.0,0.0,0.0,0.0,0.0,0.0,2.7677,0.0,2.9697,2.9693,2.9683,2.8972,0.0,0.0,0.0,0.0,0.0,0.0,0.0,0.0,0.0,0.0,0.0,0.0,0.0,0.0,0.0,0.0,0.0,0.0,0.0,0.0,0.0,0.0,0.0,0.0,0.0,0.0,0.0,0.0,0.0,0.0,0.0,0.0,0.0,0.0,0.0,0.0,0.0,0.0,0.0,0.0,0.0,0.0,0.0,0.0,0.0,0.0,0.0,0.0,0.0,0.0,0.0,0.0,0.0,0.0,0.0,0.0,0.0,0.0,0.0,0.0,0.0,0.0,0.0,0.0,0.0,0.0,0.0,0.0,0.0,0.0,0.0,0.0,0.0,0.0,0.0,0.0,0.0,0.0,0.0,0.0,0.0,0.0,0.0,0.0,0.0,0.0,0.0,0.0,0.0,0.0,0.0,0.0,0.0,0.0,0.0,0.0,0.0,0.0,0.0,0.0,0.0,0.0,0.0,0.0,0.0,0.0,0.0,0.0,2.7179,2.9718,2.9827,2.9782,2.9689,2.9703,2.9019,0.0,0.0,0.0,0.0,0.0,0.0,0.0,0.0,0.0,0.0,0.0,0.0,0.0,0.0,0.0,0.0,0.0,0.0,0.0,0.0,0.0,0.0,0.0,0.0,0.0,0.0,0.0,0.0,0.0,0.0,0.0,0.0,0.0,0.0,0.0,0.0,0.0,0.0,0.0,0.0,0.0,0.0,0.0,0.0,0.0,0.0,0.0,0.0,0.0,0.0,0.0,0.0,0.0,0.0,0.0,0.0,0.0,0.0,0.0,0.0,0.0,0.0,0.0,0.0,0.0,0.0,0.0,0.0,0.0,0.0,0.0,0.0,0.0,0.0,0.0,0.0,0.0,0.0,0.0,0.0,0.0,0.0,0.0,0.0,0.0,0.0,0.0,0.0,0.0,0.0,0.0,0.0,0.0,0.0,0.0,0.0,0.0,0.0,0.0,0.0,0.0,0.0,0.0,0.0,0.0,0.0,0.0,0.0,0.0,2.9196,2.9107,2.9148,2.9416,2.8947,2.7951,0.0,0.0,0.0,0.0,0.0,0.0,0.0,0.0,0.0,0.0,0.0,0.0,0.0,0.0,0.0,0.0,0.0,0.0,0.0,0.0,0.0,0.0,0.0,0.0,0.0,0.0,0.0,0.0,0.0,0.0,0.0,0.0,0.0,0.0,0.0,0.0,0.0,0.0,0.0,0.0,0.0,0.0,0.0,0.0,0.0,0.0,0.0,0.0,0.0,0.0,0.0,0.0,0.0,0.0,0.0,0.0,0.0,0.0,0.0,0.0,0.0,0.0,0.0,0.0,0.0,0.0,0.0,0.0,0.0,0.0,0.0,0.0,0.0,0.0,0.0,0.0,0.0,0.0,0.0,0.0,0.0,0.0,0.0,0.0,0.0,0.0,0.0,0.0,0.0,0.0,0.0,0.0,0.0,0.0,0.0,0.0,0.0,0.0,0.0,0.0,0.0,0.0,0.0,0.0,0.0,0.0,0.0,0.0,0.0,2.7978,2.8343,2.8584,2.8739,2.8062,2.7041,2.5738,0.0,0.0,0.0,0.0,0.0,0.0,0.0,0.0,0.0,0.0,0.0,0.0,0.0,0.0,0.0,0.0,0.0,0.0,0.0,0.0,0.0,0.0,0.0,0.0,0.0,0.0,0.0,0.0,0.0,0.0,0.0,0.0,0.0,0.0,0.0,0.0,0.0,0.0,0.0,0.0,0.0,0.0,0.0,0.0,0.0,0.0,0.0,0.0,0.0,0.0,0.0,0.0,0.0,0.0,0.0,0.0,0.0,0.0,0.0,0.0,0.0,0.0,0.0,0.0,0.0,0.0,0.0,0.0,0.0,0.0,0.0,0.0,0.0,0.0,0.0,0.0,0.0,0.0,0.0,0.0,0.0,0.0,0.0,0.0,0.0,0.0,0.0,0.0,0.0,0.0,0.0,0.0,0.0,0.0,0.0,0.0,0.0,0.0,0.0,0.0,0.0,0.0,0.0,0.0,0.0,0.0,0.0,0.0,2.6378,2.763,2.8104,2.7802,2.7136,2.6367,0.0,0.0,0.0,0.0,0.0,0.0,0.0,0.0,0.0,0.0,0.0,0.0,0.0,0.0,0.0,0.0,0.0,0.0,0.0,0.0,0.0,0.0,0.0,0.0,0.0,0.0,0.0,0.0,0.0,0.0,0.0,0.0,0.0,0.0,0.0,0.0,0.0,0.0,0.0,0.0,0.0,0.0,0.0,0.0,0.0,0.0,0.0,0.0,0.0,0.0,0.0,0.0,0.0,0.0,0.0,0.0,0.0,0.0,0.0,0.0,0.0,0.0,0.0,0.0,0.0,0.0,0.0,0.0,0.0,0.0,0.0,0.0,0.0,0.0,0.0,0.0,0.0,0.0,0.0,0.0,0.0,0.0,0.0,0.0,0.0,0.0,0.0,0.0,0.0,0.0,0.0,0.0,0.0,0.0,0.0,0.0,0.0,0.0,0.0,0.0,0.0,0.0,0.0,0.0,0.0,0.0,0.0,0.0,0.0,2.6351,2.728,2.7714,2.7557,2.6738,2.5935,0.0,0.0,0.0,0.0,0.0,0.0,0.0,0.0,0.0,0.0,0.0,0.0,0.0,0.0,0.0,0.0,0.0,0.0,0.0,0.0,0.0,0.0,0.0,0.0,0.0,0.0,0.0,0.0,0.0,0.0,0.0,0.0,0.0,0.0,0.0,0.0,0.0,0.0,0.0,0.0,0.0,0.0,0.0,0.0,0.0,0.0,0.0,0.0,0.0,0.0,0.0,0.0,0.0,0.0,0.0,0.0,0.0,0.0,0.0,0.0,0.0,0.0,0.0,0.0,0.0,0.0,0.0,0.0,0.0,0.0,0.0,0.0,0.0,0.0,0.0,0.0,0.0,0.0,0.0,0.0,0.0,0.0,0.0,0.0,0.0,0.0,0.0,0.0,0.0,0.0,0.0,0.0,0.0,0.0,0.0,0.0,0.0,0.0,0.0,0.0,0.0,0.0,0.0,0.0,0.0,0.0,0.0,0.0,2.5784,2.6258,2.6834,2.7082,2.6924,2.6292,2.5451,0.0,0.0,0.0,0.0,0.0,0.0,0.0,0.0,0.0,0.0,0.0,0.0,0.0,0.0,0.0,0.0,0.0,0.0,0.0,0.0,0.0,0.0,0.0,0.0,0.0,0.0,0.0,0.0,0.0,0.0,0.0,0.0,0.0,0.0,0.0,0.0,0.0,0.0,0.0,0.0,0.0,0.0,0.0,0.0,0.0,0.0,0.0,0.0,0.0,0.0,0.0,0.0,0.0,0.0,0.0,0.0,0.0,0.0,0.0,0.0,0.0,0.0,0.0,0.0,0.0,0.0,0.0,0.0,0.0,0.0,0.0,0.0,0.0,0.0,0.0,0.0,0.0,0.0,0.0,0.0,0.0,0.0,0.0,0.0,0.0,0.0,0.0,0.0,0.0,0.0,0.0,0.0,0.0,0.0,0.0,0.0,0.0,0.0,0.0,0.0,0.0,0.0,0.0,0.0,0.0,0.0,0.0,0.0,2.5297,2.6166,2.6371,2.6361,2.6042,2.5854,2.4982,0.0,0.0,0.0,0.0,0.0,0.0,0.0,0.0,0.0,0.0,0.0,0.0,0.0,0.0,0.0,0.0,0.0,0.0,0.0,0.0,0.0,0.0,0.0,0.0,0.0,0.0,0.0,0.0,0.0,0.0,0.0,0.0,0.0,0.0,0.0,0.0,0.0,0.0,0.0,0.0,0.0,0.0,0.0,0.0,0.0,0.0,0.0,0.0,0.0,0.0,0.0,0.0,0.0,0.0,0.0,0.0,0.0,0.0,0.0,0.0,0.0,0.0,0.0,0.0,0.0,0.0,0.0,0.0,0.0,0.0,0.0,0.0,0.0,0.0,0.0,0.0,0.0,0.0,0.0,0.0,0.0,0.0,0.0,0.0,0.0,0.0,0.0,0.0,0.0,0.0,0.0,0.0,0.0,0.0,0.0,0.0,0.0,0.0,0.0,0.0,0.0,0.0,0.0,0.0,0.0,0.0,0.0,0.0,2.4803,2.6017,2.6251,2.6138,2.5726,2.5551,2.4599,0.0,0.0,0.0,0.0,0.0,0.0,0.0,0.0,0.0,0.0,0.0,0.0,0.0,0.0,0.0,0.0,0.0,0.0,0.0,0.0,0.0,0.0,0.0,0.0,0.0,0.0,0.0,0.0,0.0,0.0,0.0,0.0,0.0,0.0,0.0,0.0,0.0,0.0,0.0,0.0,0.0,0.0,0.0,0.0,0.0,0.0,0.0,0.0,2.835,0.0,0.0,0.0,0.0,0.0,0.0,0.0,0.0,0.0,0.0,0.0,0.0,0.0,0.0,0.0,0.0,0.0,0.0,0.0,0.0,0.0,0.0,0.0,0.0,0.0,0.0,0.0,0.0,0.0,0.0,0.0,0.0,0.0,0.0,0.0,0.0,0.0,0.0,0.0,0.0,0.0,0.0,0.0,0.0,0.0,0.0,0.0,0.0,0.0,0.0,0.0,0.0,0.0,0.0,0.0,0.0,0.0,0.0,0.0,2.446,2.579,2.5708,2.5424,2.5009,2.4664,2.3654,0.0,0.0,0.0,0.0,0.0,0.0,0.0,0.0,0.0,0.0,0.0,0.0,0.0,0.0,0.0,0.0,0.0,0.0,0.0,0.0,0.0,0.0,0.0,0.0,0.0,0.0,0.0,0.0,0.0,0.0,0.0,0.0,0.0,0.0,0.0,0.0,0.0,0.0,0.0,0.0,0.0,0.0,0.0,0.0,0.0,0.0,0.0,0.0,0.0,0.0,0.0,0.0,0.0,0.0,0.0,0.0,0.0,0.0,0.0,0.0,0.0,0.0,0.0,0.0,0.0,0.0,0.0,0.0,0.0,0.0,0.0,0.0,0.0,0.0,0.0,0.0,0.0,0.0,0.0,0.0,0.0,0.0,0.0,0.0,0.0,0.0,0.0,0.0,0.0,0.0,0.0,0.0,0.0,0.0,0.0,0.0,0.0,0.0,0.0,0.0,0.0,0.0,0.0,0.0,0.0,0.0,0.0,2.3695,2.4177,2.547,2.5056,2.4584,2.4134,2.3554,2.25,2.095,0.0,0.0,0.0,0.0,0.0,0.0,0.0,0.0,0.0,0.0,0.0,0.0,0.0,0.0,0.0,0.0,0.0,0.0,0.0,0.0,0.0,0.0,0.0,0.0,0.0,0.0,0.0,0.0,0.0,0.0,0.0,0.0,0.0,0.0,0.0,0.0,0.0,0.0,3.0445,3.0726,0.0,0.0,0.0,0.0,0.0,0.0,0.0,0.0,2.942,0.0,0.0,0.0,0.0,0.0,0.0,0.0,0.0,0.0,0.0,0.0,0.0,0.0,0.0,0.0,0.0,0.0,0.0,0.0,0.0,0.0,0.0,0.0,0.0,0.0,0.0,0.0,0.0,0.0,0.0,0.0,0.0,0.0,0.0,0.0,0.0,0.0,0.0,0.0,0.0,0.0,0.0,0.0,0.0,0.0,0.0,0.0,0.0,0.0,0.0,0.0,0.0,0.0,0.0,0.0,0.0,2.3668,2.3294,2.3657,2.4823,2.4492,2.4029,2.3389,2.2648,2.1539,2.0036,0.0,0.0,0.0,0.0,0.0,0.0,0.0,0.0,0.0,0.0,0.0,0.0,0.0,0.0,0.0,0.0,0.0,0.0,0.0,0.0,0.0,0.0,0.0,0.0,0.0,0.0,0.0,0.0,0.0,0.0,0.0,0.0,0.0,0.0,0.0,0.0,0.0,0.0,0.0,3.2774,3.2839,0.0,0.0,0.0,0.0,0.0,0.0,0.0,0.0,2.8987,0.0,0.0,0.0,0.0,0.0,0.0,0.0,0.0,0.0,0.0,0.0,0.0,0.0,0.0,0.0,0.0,0.0,0.0,0.0,0.0,0.0,0.0,0.0,0.0,0.0,0.0,0.0,0.0,0.0,0.0,0.0,0.0,0.0,0.0,0.0,0.0,0.0,0.0,0.0,0.0,0.0,0.0,0.0,0.0,0.0,0.0,0.0,0.0,0.0,0.0,0.0,0.0,0.0,0.0,0.0,2.2951,2.2948,2.3212,2.3774,2.3692,2.3355,2.2797,2.1856,2.0759,0.0,0.0,0.0,0.0,0.0,0.0,0.0,0.0,0.0,0.0,0.0,0.0,0.0,0.0,0.0,0.0,0.0,0.0,0.0,0.0,0.0,0.0,0.0,0.0,0.0,0.0,0.0,0.0,0.0,0.0,0.0,0.0,0.0,0.0,0.0,0.0,0.0,0.0,0.0,0.0,3.3273,3.3357,3.3509,0.0,0.0,0.0,0.0,0.0,0.0,3.0033,2.9892,0.0,0.0,0.0,0.0,0.0,0.0,0.0,0.0,0.0,0.0,0.0,0.0,0.0,0.0,0.0,0.0,0.0,0.0,0.0,0.0,0.0,0.0,0.0,0.0,0.0,0.0,0.0,0.0,0.0,0.0,0.0,0.0,0.0,0.0,0.0,0.0,0.0,0.0,0.0,0.0,0.0,0.0,0.0,0.0,0.0,0.0,0.0,0.0,0.0,0.0,0.0,0.0,0.0,0.0,0.0,2.2403,2.2669,2.288,2.2998,2.3056,2.2878,2.2347,2.1167,2.0158,0.0,0.0,0.0,0.0,0.0,0.0,0.0,0.0,0.0,0.0,0.0,0.0,0.0,0.0,0.0,0.0,0.0,0.0,0.0,0.0,0.0,0.0,0.0,0.0,0.0,0.0,0.0,0.0,0.0,0.0,0.0,0.0,0.0,0.0,0.0,0.0,0.0,0.0,0.0,0.0,0.0,3.3751,3.3645,3.3464,0.0,0.0,0.0,0.0,3.1417,3.1303,0.0,0.0,0.0,0.0,0.0,0.0,0.0,0.0,0.0,0.0,0.0,0.0,0.0,0.0,0.0,0.0,0.0,0.0,0.0,0.0,0.0,0.0,0.0,0.0,0.0,0.0,0.0,0.0,0.0,0.0,0.0,0.0,0.0,0.0,0.0,0.0,0.0,0.0,0.0,0.0,0.0,0.0,0.0,0.0,0.0,0.0,0.0,0.0,0.0,0.0,0.0,0.0,0.0,0.0,0.0,0.0,2.2266,2.263,2.2853,2.2998,2.3056,2.2805,2.2235,2.0663,1.9623,0.0,0.0,0.0,0.0,0.0,0.0,0.0,0.0,0.0,0.0,0.0,0.0,0.0,0.0,0.0,0.0,0.0,0.0,0.0,0.0,0.0,0.0,0.0,0.0,0.0,0.0,0.0,0.0,0.0,0.0,0.0,0.0,0.0,0.0,0.0,0.0,0.0,0.0,0.0,0.0,0.0,3.4961,3.5349,3.5716,3.5428,0.0,0.0,3.3199,3.1862,3.1629,0.0,0.0,0.0,0.0,0.0,0.0,0.0,0.0,0.0,0.0,0.0,0.0,0.0,0.0,0.0,0.0,0.0,0.0,0.0,0.0,0.0,0.0,0.0,0.0,0.0,0.0,0.0,0.0,0.0,0.0,0.0,0.0,0.0,0.0,0.0,0.0,0.0,0.0,0.0,0.0,0.0,0.0,0.0,0.0,0.0,0.0,0.0,0.0,0.0,0.0,0.0,0.0,0.0,0.0,0.0,2.096,2.1877,2.2482,2.2695,2.2517,2.2992,2.2969,2.2328,2.0813,1.9819,0.0,0.0,0.0,0.0,0.0,0.0,0.0,0.0,0.0,0.0,0.0,0.0,0.0,0.0,0.0,0.0,0.0,0.0,0.0,0.0,0.0,0.0,0.0,0.0,0.0,0.0,0.0,0.0,0.0,0.0,0.0,0.0,0.0,0.0,0.0,0.0,0.0,0.0,0.0,0.0,0.0,0.0,3.5932,3.5964,0.0,0.0,0.0,3.383,3.2866,0.0,0.0,0.0,0.0,0.0,0.0,0.0,0.0,0.0,0.0,0.0,0.0,0.0,0.0,0.0,0.0,0.0,0.0,0.0,0.0,0.0,0.0,0.0,0.0,0.0,0.0,0.0,0.0,0.0,0.0,0.0,0.0,0.0,0.0,0.0,0.0,0.0,0.0,0.0,0.0,0.0,0.0,0.0,0.0,0.0,0.0,0.0,0.0,0.0,0.0,0.0,0.0,0.0,0.0,0.0,0.0,0.0,2.1592,2.2477,2.2684,2.2237,2.3052,2.3118,2.2323,2.1026,0.0,0.0,0.0,0.0,0.0,0.0,0.0,0.0,0.0,0.0,0.0,0.0,0.0,0.0,0.0,0.0,0.0,0.0,0.0,0.0,0.0,0.0,0.0,0.0,0.0,0.0,0.0,2.7335,0.0,0.0,0.0,0.0,0.0,0.0,0.0,0.0,0.0,0.0,0.0,0.0,0.0,0.0,3.5896,3.6362,3.6249,3.6035,0.0,0.0,3.4561,3.399,3.3308,3.2488,0.0,0.0,0.0,0.0,0.0,0.0,0.0,0.0,0.0,0.0,0.0,0.0,0.0,0.0,0.0,0.0,0.0,0.0,0.0,0.0,0.0,0.0,0.0,0.0,0.0,0.0,0.0,0.0,0.0,0.0,0.0,0.0,0.0,0.0,0.0,0.0,0.0,0.0,0.0,0.0,0.0,0.0,0.0,0.0,0.0,0.0,0.0,0.0,0.0,0.0,0.0,0.0,0.0,0.0,0.0,2.1602,2.2617,2.2937,2.2522,2.3314,2.3242,2.2163,2.1107,2.0134,0.0,0.0,0.0,0.0,0.0,0.0,0.0,0.0,0.0,0.0,0.0,0.0,0.0,0.0,0.0,0.0,0.0,0.0,0.0,0.0,0.0,0.0,0.0,0.0,0.0,0.0,0.0,0.0,0.0,0.0,0.0,0.0,0.0,0.0,0.0,0.0,0.0,0.0,0.0,0.0,0.0,3.6512,3.698,3.7345,3.7218,0.0,0.0,3.5828,3.5118,3.4415,3.3821,3.3339,0.0,0.0,0.0,0.0,0.0,0.0,0.0,0.0,0.0,0.0,0.0,0.0,0.0,0.0,0.0,0.0,0.0,0.0,0.0,0.0,0.0,0.0,0.0,0.0,0.0,0.0,0.0,0.0,0.0,0.0,0.0,0.0,0.0,0.0,0.0,0.0,0.0,0.0,0.0,0.0,0.0,0.0,0.0,0.0,0.0,0.0,0.0,0.0,0.0,0.0,0.0,0.0,0.0,2.0748,2.1841,2.2744,2.3083,2.2844,2.3583,2.366,2.3044,2.1745,2.0795,0.0,0.0,0.0,0.0,0.0,0.0,0.0,0.0,0.0,0.0,0.0,0.0,0.0,0.0,0.0,0.0,0.0,0.0,0.0,0.0,0.0,0.0,0.0,0.0,0.0,0.0,0.0,0.0,2.8338,2.8301,2.7742,0.0,0.0,0.0,0.0,0.0,0.0,0.0,0.0,0.0,0.0,3.6766,3.7753,3.7787,0.0,0.0,3.6589,3.6111,3.5828,3.4786,3.3815,3.334,3.2656,0.0,0.0,0.0,0.0,0.0,0.0,0.0,0.0,0.0,0.0,0.0,0.0,0.0,0.0,0.0,0.0,0.0,0.0,0.0,0.0,0.0,0.0,0.0,0.0,0.0,0.0,0.0,0.0,0.0,0.0,0.0,0.0,0.0,0.0,0.0,0.0,0.0,0.0,0.0,0.0,0.0,0.0,0.0,0.0,0.0,0.0,0.0,0.0,0.0,0.0,0.0,0.0,2.1019,2.1996,2.2935,2.3267,2.307,2.3935,2.4066,2.3518,2.2242,2.138,0.0,0.0,0.0,0.0,0.0,0.0,0.0,0.0,0.0,0.0,0.0,0.0,0.0,0.0,0.0,0.0,0.0,0.0,0.0,0.0,0.0,0.0,0.0,0.0,0.0,0.0,0.0,0.0,2.8777,2.8737,2.8406,0.0,0.0,0.0,0.0,0.0,0.0,0.0,0.0,0.0,0.0,3.7242,3.8298,3.8091,3.7801,3.77,3.7054,3.6562,3.6503,3.5428,3.4476,3.4129,0.0,0.0,0.0,0.0,0.0,0.0,0.0,0.0,0.0,0.0,0.0,0.0,0.0,0.0,0.0,0.0,0.0,0.0,0.0,0.0,0.0,0.0,0.0,0.0,0.0,0.0,0.0,0.0,0.0,0.0,2.3945,0.0,0.0,0.0,0.0,0.0,0.0,0.0,0.0,0.0,0.0,0.0,0.0,0.0,0.0,0.0,0.0,0.0,0.0,0.0,0.0,0.0,0.0,2.1515,2.2006,2.3145,2.3578,2.3268,2.4367,2.4424,2.3385,2.2591,2.1735,2.0769,0.0,0.0,0.0,0.0,0.0,0.0,0.0,0.0,0.0,0.0,0.0,0.0,0.0,0.0,0.0,0.0,0.0,0.0,0.0,0.0,0.0,0.0,0.0,0.0,0.0,0.0,2.9426,2.9042,2.8864,0.0,0.0,0.0,0.0,0.0,0.0,0.0,0.0,0.0,0.0,3.7091,3.8033,3.8525,3.8315,3.8001,3.7759,3.7506,3.7326,3.7161,3.6582,3.6187,0.0,0.0,0.0,0.0,0.0,0.0,0.0,0.0,0.0,0.0,0.0,0.0,0.0,0.0,0.0,0.0,0.0,0.0,0.0,0.0,0.0,0.0,0.0,0.0,0.0,0.0,0.0,2.5924,2.5591,0.0,0.0,0.0,0.0,0.0,0.0,0.0,0.0,0.0,0.0,0.0,2.9085,2.914,0.0,0.0,0.0,0.0,0.0,0.0,0.0,0.0,0.0,0.0,0.0,0.0,2.1792,2.2394,2.31,2.3546,2.3735,2.4365,2.4586,2.4412,2.3628,2.2493,2.0998,0.0,0.0,0.0,0.0,0.0,0.0,0.0,0.0,0.0,0.0,0.0,0.0,0.0,0.0,0.0,0.0,0.0,0.0,0.0,0.0,0.0,0.0,0.0,0.0,0.0,3.0154,0.0,0.0,0.0,0.0,0.0,0.0,0.0,0.0,0.0,0.0,0.0,3.6085,3.7635,3.8069,3.8427,3.8995,3.8777,3.8472,0.0,0.0,0.0,0.0,0.0,0.0,0.0,0.0,0.0,0.0,0.0,0.0,0.0,0.0,3.4181,3.2964,3.293,3.2944,3.2391,0.0,0.0,0.0,0.0,0.0,0.0,0.0,0.0,0.0,0.0,0.0,0.0,0.0,0.0,0.0,0.0,2.7512,0.0,0.0,0.0,0.0,0.0,0.0,0.0,0.0,2.9411,2.9876,3.0182,3.0265,3.0188,0.0,2.9235,2.7921,0.0,0.0,0.0,0.0,0.0,0.0,0.0,0.0,2.229,2.2729,2.3207,2.3591,2.3819,2.4231,2.4497,2.4532,2.3933,2.2938,2.1525,2.1107,2.0511,0.0,0.0,0.0,0.0,0.0,0.0,0.0,0.0,0.0,0.0,0.0,0.0,0.0,0.0,0.0,0.0,0.0,0.0,0.0,0.0,0.0,0.0,0.0,3.1138,0.0,0.0,0.0,0.0,0.0,0.0,0.0,0.0,0.0,3.5756,3.6401,3.7381,3.8753,3.8975,3.9116,3.947,0.0,0.0,0.0,0.0,0.0,0.0,0.0,3.6869,3.6856,3.6372,3.5919,3.5642,3.5684,3.5597,3.5127,0.0,0.0,3.3837,3.3774,3.3841,3.36,3.2999,3.2471,3.2313,3.1661,3.1075,0.0,0.0,0.0,0.0,0.0,0.0,0.0,0.0,2.8296,2.8498,0.0,2.8696,0.0,0.0,0.0,0.0,0.0,2.9642,0.0,0.0,3.0774,3.1149,3.1707,3.1894,3.166,3.098,3.0189,2.9429,2.8669,2.6929,0.0,0.0,0.0,0.0,0.0,0.0,2.2934,2.2949,2.3484,2.3692,2.3569,2.4101,2.419,2.3759,2.3539,2.3072,2.2287,2.226,2.1887,2.1135,2.1082,0.0,0.0,0.0,0.0,0.0,0.0,0.0,0.0,0.0,0.0,0.0,0.0,0.0,0.0,0.0,0.0,0.0,0.0,0.0,0.0,3.2021,0.0,0.0,0.0,0.0,0.0,0.0,0.0,0.0,0.0,0.0,3.6268,3.802,3.9375,3.9272,0.0,0.0,0.0,0.0,3.9388,3.9077,3.8914,3.865,3.8185,3.8128,3.8084,3.81,0.0,0.0,3.5847,3.6082,3.6175,3.5471,3.5711,3.5715,3.4766,3.4746,3.4668,3.4001,3.3231,3.2664,3.2559,3.1939,3.1334,3.1848,0.0,0.0,0.0,0.0,3.0552,3.0697,3.0774,3.1397,3.1129,3.0338,3.0642,0.0,0.0,0.0,0.0,0.0,0.0,3.0983,3.1213,3.1699,3.2087,3.2339,3.2287,3.1934,3.1275,3.0589,2.98,2.894,2.8026,2.6979,2.5827,0.0,0.0,0.0,0.0,2.3399,2.3414,2.3577,2.3762,2.4017,2.4168,2.425,2.4176,2.396,2.3687,2.3354,2.3379,2.3271,2.2951,2.2503,0.0,0.0,0.0,0.0,0.0,0.0,0.0,0.0,0.0,0.0,0.0,0.0,0.0,0.0,0.0,0.0,0.0,0.0,0.0,3.2093,3.2674,3.3069,0.0,0.0,0.0,0.0,0.0,0.0,0.0,0.0,0.0,3.906,3.9352,3.9823,0.0,0.0,4.0485,4.0362,4.0205,3.9935,3.9573,0.0,0.0,0.0,3.8667,3.8611,3.8595,3.8172,3.7649,3.7111,3.6848,3.6536,3.6095,3.622,3.6381,3.6241,3.5711,3.527,3.4941,3.3958,3.3126,3.3,3.2376,3.1787,3.4053,3.2988,3.2233,3.1889,3.1921,3.2263,3.2408,3.244,3.31,3.296,3.2258,3.261,3.2305,3.154,3.1385,0.0,0.0,0.0,3.212,3.2098,3.2486,3.2532,3.2295,3.2199,3.1805,3.1155,3.0474,2.9882,2.9325,2.8491,2.775,2.7124,0.0,0.0,2.4842,2.4206,2.3867,2.3888,2.3888,2.3971,2.4104,2.3985,2.4059,2.4283,2.4114,2.3942,2.3819,2.411,2.4099,2.3784,2.3734,2.3723,0.0,0.0,0.0,0.0,0.0,0.0,0.0,0.0,0.0,0.0,0.0,2.7883,0.0,0.0,0.0,0.0,3.1857,3.2611,3.3678,3.4073,0.0,0.0,0.0,0.0,0.0,0.0,0.0,3.7819,3.9355,4.0529,4.0893,4.0823,4.0861,4.1146,4.1012,4.0853,4.0782,0.0,4.0436,4.0104,4.0045,3.9876,3.947,3.9302,3.9139,3.8894,3.8703,3.8303,3.7644,3.7337,3.7055,3.6679,3.6716,3.6935,3.7169,3.6568,3.5907,3.5685,3.4474,3.3493,3.3387,3.2792,3.2249,3.5454,3.5402,3.3606,3.282,3.2774,3.309,3.3232,3.3295,3.397,3.4211,3.4165,3.4506,3.4395,3.3944,3.3576,0.0,3.3361,3.3372,3.3293,3.3176,3.3129,3.2672,3.1899,3.1836,3.1435,3.0795,3.017,2.9844,2.9705,2.855,2.7958,2.7936,2.6729,2.5859,2.5342,2.4704,2.438,2.4343,2.4343,2.424,2.4046,2.3726,2.377,2.4176,2.412,2.4011,2.3909,2.4578,2.4718,2.4189,2.4842,2.5237,2.5261,0.0,0.0,0.0,0.0,0.0,0.0,0.0,0.0,0.0,0.0,0.0,0.0,0.0,0.0,0.0,3.3639,0.0,3.5464,3.5907,0.0,0.0,0.0,3.7642,3.7625,3.8517,3.9417,4.0075,0.0,0.0,4.1871,0.0,4.2184,4.1758,4.1436,4.1255,4.1255,4.1088,4.0894,4.0676,4.0621,4.0476,4.0153,3.9969,3.9665,3.9123,3.9095,3.8682,3.7767,3.7588,3.7525,3.7097,3.7204,3.7448,3.7703,3.7198,3.6642,3.6292,3.4889,3.3754,3.363,3.3133,3.267,3.6799,3.6836,3.5948,3.5315,3.4951,3.5189,3.5347,3.5504,3.5999,3.5917,3.5467,3.5804,3.5429,3.459,3.459,3.4352,3.3899,3.3899,3.3899,3.3815,3.3285,3.2923,3.2689,3.2038,3.1382,3.0751,3.0552,2.9906,2.8793,2.8541,2.8158,2.7614,2.675,2.6156,2.5816,2.5156,2.4826,2.4846,2.4826,2.469,2.4446,2.412,2.4028,2.4115,2.4505,2.4605,2.4507,2.5743,2.6282,2.606,2.6354,2.6555,2.6563,2.6306,0.0,0.0,0.0,0.0,0.0,0.0,0.0,0.0,0.0,2.965,3.1038,0.0,3.189,0.0,3.4884,3.5878,3.6633,3.7016,0.0,0.0,3.8546,3.874,3.886,3.9757,4.0429,4.0605,4.1546,4.2237,4.2414,4.2631,4.2728,4.2575,4.2107,4.1744,4.1723,4.1565,4.1363,4.1255,4.1192,4.1123,4.0868,4.0389,3.9888,3.9629,3.8893,3.8248,3.8044,3.7745,3.7589,3.7649,3.7792,3.7984,3.8203,3.7662,3.7218,3.7059,3.5672,3.4184,3.3628,3.3322,3.3196,3.7204,3.7359,3.7139,3.6892,3.6646,3.6492,3.6307,3.6182,3.6648,3.6461,3.5827,3.5908,3.5605,3.5101,3.4931,3.4741,3.4431,3.4121,3.3925,3.3852,3.3086,3.2557,3.2185,3.1709,3.1157,3.0526,3.0173,2.9643,2.8893,2.8315,2.7829,2.748,2.676,2.6325,2.6156,2.5571,2.5275,2.5275,2.5201,2.5103,2.4926,2.4599,2.4436,2.441,2.4635,2.4729,2.4664,2.6052,2.6773,2.6727,2.7489,2.7945,2.793,2.7849,2.7765,0.0,0.0,0.0,0.0,0.0,0.0,0.0,0.0,0.0,0.0,0.0,3.3322,0.0,3.6118,3.6991,3.7366,3.8059,3.8716,3.9213,3.9693,4.0029,4.0091,4.0986,4.1609,4.1609,4.2302,4.2822,4.2841,4.2956,4.305,4.3069,4.2731,4.2414,4.2249,4.2082,4.1917,4.1809,4.1744,4.1516,4.1069,4.0652,4.0091,3.9427,3.8783,3.8309,3.8181,3.7936,3.7861,3.8136,3.8285,3.8412,3.8597,3.839,3.804,3.7636,3.6911,3.5725,3.4424,3.3899,3.3657,3.7158,3.7535,3.7648,3.7761,3.7828,3.7148,3.6656,3.6301,3.6637,3.6449,3.5846,3.5636,3.5567,3.5579,3.5144,3.4892,3.4811,3.4197,3.3779,3.3545,3.2794,3.2034,3.1358,3.1276,3.0912,3.029,2.9678,2.936,2.9321,2.8052,2.7455,2.7428,2.6824,2.6522,2.6487,2.6031,2.577,2.571,2.5549,2.547,2.5394,2.515,2.4997,2.4934,2.4815,2.4771,2.4766,2.6125,2.6848,2.691,2.8376,2.9234,2.925,2.9477,2.9605,0.0,2.97,0.0,0.0,0.0,0.0,0.0,0.0,0.0,0.0,3.4469,3.5023,3.6092,3.7137,3.778,3.7868,3.8942,3.9716,3.984,4.0711,4.1312,4.135,4.2139,4.267,4.267,4.2974,4.316,4.316,4.3233,4.3304,4.3355,4.3175,4.2905,4.2662,4.2542,4.2458,4.2304,4.206,4.1497,4.088,4.0633,4.018,3.9097,3.876,3.8636,3.8228,3.8201,3.8298,3.8585,3.8676,3.8763,3.8998,3.9096,3.8936,3.8387,3.8115,3.7361,3.561,3.4657,3.4197,3.7472,3.8157,3.7732,3.7627,3.7688,3.7085,3.6994,3.7203,3.6809,3.6695,3.6765,3.6811,3.658,3.6154,3.6148,3.5602,3.4588,3.4486,3.4103,3.3474,3.2801,3.2401,3.2232,3.171,3.107,3.0398,3.0228,2.9618,2.8511,2.8304,2.7891,2.7337,2.7198,2.7147,2.7114,0.0,0.0,0.0,2.6031,2.5957,2.5864,2.577,2.5698,2.5696,2.5661,0.0,2.5546,2.6967,2.7713,2.7648,2.9134,0.0,0.0,0.0,0.0,0.0,0.0,0.0,0.0,0.0,0.0,0.0,3.3403,3.3861,3.4695,3.5628,3.6298,3.6638,3.7112,3.7641,3.8261,3.9316,4.0298,4.102,4.1908,4.2492,4.2551,4.2866,4.3068,4.3087,4.3321,4.3477,4.3422,4.36,4.3666,4.3619,4.3211,4.2791,4.2601,4.281,4.2741,4.2105,4.1452,4.0944,4.0745,4.0183,3.9784,3.931,3.8917,3.8663,3.8559,3.8707,3.8855,3.8998,3.9096,3.9187,3.9311,3.9427,3.9458,3.932,3.8881,3.789,3.5936,3.5409,3.5111,3.7236,0.0,3.7557,3.7538,0.0,3.7069,3.7018,3.7245,3.6696,3.6406,3.6322,3.6441,3.638,3.6124,3.5881,3.5431,3.481,3.4124,3.3616,3.3222,3.2624,3.2339,3.2339,3.2068,3.1568,3.0854,3.0521,2.9818,2.8873,2.8481,2.8121,2.7805,2.7805,2.7776,2.7751,2.7678,2.7334,2.6691,2.6607,2.6505,2.6401,2.6348,2.6279,2.6295,0.0,0.0,0.0,0.0,0.0,0.0,0.0,0.0,0.0,0.0,0.0,3.1024,3.1103,3.1201,3.1336,3.1451,3.2061,3.335,3.442,3.5302,3.5928,3.6566,3.7029,3.7185,3.7767,3.8308,3.8683,3.9696,4.0528,4.0962,4.1524,4.1887,4.1922,4.2099,4.222,4.2288,4.2417,4.253,4.2562,4.2609,4.2709,4.2831,4.2545,4.2262,4.2288,4.23,4.2083,4.1629,4.1246,4.0824,4.0457,4.0139,3.969,3.9369,3.9088,3.8964,3.8998,3.9137,3.9285,3.9389,3.9477,3.9575,3.967,3.9781,3.9848,3.9805,3.9596,3.8972,3.7513,3.6558,3.5662,3.7037,3.7344,3.7349,3.742,3.7506,3.7024,3.6903,3.7009,0.0,0.0,0.0,3.5735,3.5797,3.5869,3.5232,3.4921,3.4834,3.3665,3.3061,3.2905,3.2512,3.2335,3.2352,3.2504,3.2194,3.1489,3.0939,3.036,2.975,2.9094,2.8809,2.8856,2.8742,2.8619,2.8558,2.8492,2.823,2.7807,2.7381,2.7101,2.6956,2.7026,2.7061,2.7078,2.708,2.7454,2.8169,2.8918,2.9601,3.0182,3.1023,3.1487,3.147,3.1581,3.1674,3.1732,3.1732,3.1841,3.2002,3.2038,3.2476,3.3424,3.5172,3.6521,3.7189,3.7353,3.7484,3.7649,3.842,3.8887,3.8905,3.982,4.0467,4.0502,4.0766,4.0976,4.1009,4.1156,4.1391,4.1376,4.1504,4.1523,4.1653,4.1686,4.1655,4.1815,4.18,4.1611,4.1597,4.1442,4.1312,4.1156,4.0915,4.0604,4.0193,4.0028,3.9839,3.9351,3.9283,3.9337,3.9439,3.9539,3.9635,3.9739,3.9826,3.9903,3.9998,4.0078,4.0138,4.0148,4.0205,4.0011,3.9155,3.7863,3.6603,3.7299,3.7942,3.745,3.7245,3.7216,3.6741,3.6662,3.6792,3.6477,3.6277,3.6165,3.5734,3.5558,3.5543,3.4934,3.4312,3.3737,3.3635,3.3265,0.0,3.2821,3.291,3.2988,3.305,3.2802,3.2256,3.2151,3.1759,3.1182,3.1048,3.1054,3.0956,3.0368,2.9989,2.9917,2.9788,3.0015,3.0554,2.8738,2.7666,2.7507,2.8086,2.845,2.8533,2.9093,2.9526,2.9763,3.0482,3.0902,3.1042,3.1742,3.2162,3.2144,3.2179,3.2231,3.2283,3.23,3.2352,3.2506,3.2602,3.3136,3.4203,3.5759,3.7001,3.7721,3.7811,3.7881,3.8035,3.8347,3.85,3.8553,3.9374,3.996,4.0115,4.0764,4.1246,4.1249,4.1404,4.1537,4.159,4.1792,4.1781,4.1756,4.1807,4.1822,4.1939,4.1424,4.0858,4.0533,4.0584,4.0845,4.0763,4.022,3.9751,3.9701,3.9652,3.9671,3.9564,3.9623,3.9693,3.9728,3.9848,3.9935,4.0017,4.0059,4.0081,4.0177,4.028,4.0342,4.0349,4.0408,4.0185,3.9499,3.9025,3.8553,3.696,3.7353,3.7088,3.7012,3.7095,3.6971,3.7069,3.7209,3.6651,3.649,3.6606,3.6068,3.583,3.5725,3.4747,3.4075,3.3756,3.3498,3.3187,3.2898,3.3175,3.3371,3.3441,3.3564,3.3308,3.2766,3.2748,3.2439,3.1842,3.1801,3.1823,3.1789,3.1451,3.125,3.1218,3.1132,3.1219,3.1488,3.0201,2.9472,2.9405,2.9659,2.9825,2.9885,3.0196,3.0587,3.1072,3.1395,3.1787,3.2216,3.2538,3.275,3.2781,3.2781,3.2844,3.2937,3.2952,3.3001,3.3129,3.3187,3.3653,3.4603,3.5375,3.6185,3.703,3.7746,3.8219,3.8364,3.8556,3.8683,3.8683,3.9131,3.9438,3.9519,3.994,4.0211,4.0268,4.0392,4.0544,4.0634,4.0672,4.0754,4.0851,4.0863,4.091,4.1007,4.0675,4.0389,4.0106,4.0281,4.0446,4.0294,3.9969,3.9762,3.9724,3.9762,3.9826,3.9878,3.9916,3.9979,4.001,4.0138,4.0215,4.0252,4.0269,4.033,4.0392,4.0457,4.0504,4.0561,4.0579,4.0422,4.0185,4.0172,3.9707,3.6834,3.6993,3.6993,3.7091,3.7279,3.7411,3.7524,3.7503,3.691,3.6701,3.6663,3.6025,3.5741,3.5616,3.4433,3.3904,3.3847,3.345,3.3253,3.3298,3.3541,3.3739,3.386,3.4011,3.3851,3.3452,3.3452,3.3222,3.2763,3.2746,3.2634,3.2495,3.2455,3.2473,3.2464,3.2395,3.2398,3.2437,3.198,3.1521,3.1056,3.1116,3.1183,3.121,3.1349,3.1697,3.2314,3.2368,3.264,3.3255,3.3309,3.3324,3.3364,3.3379,3.3422,3.3518,3.3546,3.3574,3.3698,3.3712,3.4014,3.4688,3.4995,3.5408,3.6199,3.7356,3.819,3.8431,3.8748,3.8946,3.9007,3.9087,3.9165,3.9192,3.9311,3.9464,3.9433,3.9508,3.964,3.9762,3.9777,3.9889,3.9956,3.9996,4.0105,4.0243,4.0215,4.027,4.027,4.027,4.0205,4.009,3.9998,3.9975,3.9986,4.0027,4.0089,4.0157,4.0168,4.0196,4.027,4.0377,4.0447,4.0452,4.0489,4.0534,4.0598,4.0621,4.0648,4.0713,4.0732,4.0736,4.0757,4.08,4.0538,3.7431,3.7595,3.7631,3.7792,3.7983,3.7999,3.7683,3.721,3.7109,3.6705,3.603,3.5017,3.4614,3.4532,3.3915,3.3622,3.3662,3.3637,3.3671,3.3734,3.3895,3.4061,3.4233,3.4316,3.4458,3.4576,3.4597,3.4534,3.4491,3.4548,3.4235,3.3629,3.3554,3.3554,3.3544,3.3479,3.3789,3.4494,3.4347,3.3336,3.1599,3.2126,3.2493,3.2428,3.313,3.356,3.3645,3.3718,3.3763,3.3889,3.3908,3.3902,3.3934,3.3934,3.3928,3.3928,3.3959,3.3985,3.4049,3.4049,3.4123,3.4297,3.5002,3.5485,3.5701,3.6516,3.731,3.7875,3.8682,3.9136,3.9259,3.9324,3.9401,3.9464,3.9587,3.967,3.9693,3.9837,3.9975,4.0046,4.005,4.0101,4.0224,4.0252,4.0278,4.0375,4.0433,4.0465,4.0446,4.0465,4.0465,4.0417,4.0306,4.0196,4.0167,4.0224,4.0298,4.0351,4.0366,4.0389,4.0457,4.0523,4.058,4.0579,4.0621,4.0662,4.0694,4.0725,4.0769,4.0787,4.0826,4.0868,4.0882,4.0928,4.0749,3.7982,3.8168,3.8168,3.83,3.8402,3.7948,3.7653,3.744,3.6528,3.5974,3.5671,3.4803,3.4564,3.48,3.4115,3.3802,3.3829,3.3908,3.3972,3.4049,3.4173,3.4358,3.4528,3.4612,3.4739,3.4898,3.4908,3.4946,3.4982,3.502,3.4849,3.4564,3.4526,3.4526,3.4545,3.448,3.4642,3.4889,3.485,3.4392,3.3652,3.3638,3.3696,3.369,3.3975,3.4161,3.4197,3.4197,3.4191,3.4233,3.4233,3.4257,3.4293,3.4293,3.4347,3.4397,3.4413,3.4435,3.4461,3.4461,3.4461,3.4439,3.4783,3.5057,3.5149,3.5926,3.6566,3.6975,3.8001,3.8739,3.8862,3.9317,3.9658,3.9728,3.9848,3.9924,3.9943,4.007,4.0206,4.0281,4.0288,4.033,4.0414,4.0489,4.0554,4.0591,4.0607,4.0628,4.0609,4.0609,4.0609,4.0609,4.0552,4.0477,4.0397,4.0436,4.0476,4.0519,4.0546,4.0598,4.0612,4.0687,4.0726,4.072,4.0751,4.0781,4.0809,4.0837,4.0863,4.0859,4.0907,4.0948,4.0953,4.0967,4.0986,3.8504,3.8661,3.8707,3.8649,3.8506,3.7947,3.7524,3.7174,3.6068,3.5535,3.5353,3.4797,3.4735,3.4971,3.4414,3.413,3.4173,3.4221,3.4262,3.4363,3.4473,3.4604,3.478,3.483,3.4936,3.5047,3.5073,3.51,3.5143,3.5151,3.5162,3.5151,3.5143,3.5151,3.5143,3.5162,3.5117,3.5065,3.5065,3.5038,3.4908,3.473,3.4564,3.452,3.4509,3.4509,3.4509,3.4509,3.4502,3.4531,3.4531,3.4553,3.4596,3.4615,3.4668,3.4769,3.4792,3.4783,3.4781,3.4781,3.4771,3.4711,3.4771,3.4821,3.4973,3.5486,3.5856,3.6037,3.7124,3.7942,3.8291,3.8807,3.9288,3.9589,3.9756,3.9872,4.0129,4.0297,4.04,4.0433,4.0462,4.0515,4.0581,4.0662,4.072,4.072,4.0725,4.0724,4.0724,4.0718,4.0718,4.0724,4.0724,4.07,4.0593,4.0579,4.0631,4.0679,4.07,4.0726,4.0745,4.08,4.084,4.0812,4.0828,4.0849,4.0893,4.0917,4.092,4.0945,4.0988,4.1006,4.1016,4.1022,4.1031,3.9017,3.9082,3.9205,3.8831,3.8209,3.8122,3.73,3.6144,3.6019,3.5646,3.505,3.4954,3.4981,3.5002,3.4658,3.4498,3.4524,3.4553,3.4607,3.4682,3.4759,3.4868,3.4983,3.5057,3.5127,3.5185,3.5226,3.5285,3.5285,3.5293,3.53,3.5293,3.5285,3.5293,3.5285,3.5278,3.5254,3.5201,3.5174,3.516,3.5101,3.5075,3.4955,3.4821,3.4792,3.4782,3.4792,3.4792,3.4812,3.4879,3.486,3.4879,3.487,3.4889,3.4917,3.4964,3.4972,3.498,3.498,3.499,3.499,3.4999,3.5016,3.5079,3.5079,3.5247,3.5354,3.5384,3.6162,3.6875,3.7481,3.7966,3.8346,3.9038,3.9176,3.961,4.0304,4.05,4.0566,4.0614,4.0642,4.0694,4.0769,4.0798,4.0801,4.0807,4.0787,4.0807,4.0793,4.0812,4.0812,4.0818,4.0842,4.0851,4.0732,4.0713,4.0725,4.0763,4.0781,4.0818,4.0851,4.0888,4.0893,4.0897,4.0911,4.0924,4.096,4.1,4.0995,4.1016,4.1036,4.1073,4.1064,4.1089,4.1096,3.9458,3.9566,3.9109,3.8768,3.8475,3.7456,3.6672,3.6188,3.5718,3.5389,3.5193,3.5187,3.5203,3.5195,3.5069,3.4669,3.4169,3.4624,3.4642,3.4318,3.4745,3.5073,3.5187,3.5212,3.5226,3.5281,3.5278,3.5312,3.5308,3.5308,3.5308,3.5308,3.5308,3.5308,3.5308,3.5308,3.5293,3.5251,3.5262,3.5246,3.5242,3.5242,3.5198,3.513,3.5037,3.4973,3.4992,3.4992,3.5001,3.5027,3.5008,3.5044,3.5089,3.5143,3.516,3.5176,3.5179,3.5184,3.5184,3.5203,3.5203,3.5203,3.5211,3.5254,3.5297,3.5293,3.535,3.5491,3.5641,3.6205,3.7113,3.7996,3.8767,3.9173,3.9708,4.0137,4.0496,4.0655,4.0724,4.0736,4.0793,4.0825,4.0854,4.0912,4.0926,4.093,4.0926,4.0926,4.0926,4.093,4.0906,4.0906,4.093,4.095,4.0912,4.0849,4.0839,4.0849,4.0859,4.0854,4.0897,4.0954,4.0956,4.0957,4.0968,4.0979,4.1032,4.1055,4.1048,4.1073,4.1089,4.11,4.1105,4.1109,4.1111,3.9071,3.9127,3.8642,3.8289,3.7962,3.6905,3.6269,3.6059,3.5556,3.5343,3.5402,3.5397,3.5404,3.5346,3.5135,3.4496,3.3765,3.4601,3.468,3.4082,3.4797,3.5246,3.5327,3.5342,3.5364,3.5367,3.5355,3.5374,3.5367,3.5352,3.5364,3.5364,3.5364,3.5345,3.5364,3.5364,3.5364,3.533,3.535,3.5342,3.5308,3.5308,3.5308,3.5293,3.5198,3.516,3.5179,3.516,3.5157,3.5163,3.5179,3.5211,3.527,3.5327,3.5369,3.5376,3.5386,3.5388,3.5388,3.5402,3.5409,3.5409,3.5416,3.5417,3.5457,3.5457,3.5631,3.5874,3.6006,3.6364,3.7348,3.855,3.9334,3.9431,3.9928,4.0404,4.0725,4.0801,4.0854,4.0864,4.0904,4.0933,4.0929,4.0979,4.0986,4.099,4.0993,4.099,4.0986,4.0986,4.0983,4.0995,4.1018,4.1022,4.1018,4.0984,4.0937,4.0937,4.0909,4.0925,4.0945,4.0995,4.1029,4.1026,4.1036,4.1064,4.1078,4.1096,4.1103,4.1105,4.1097,4.1108,4.1108,4.1104,4.1106,3.7797,3.792,3.7801,3.741,3.6858,3.6631,3.6177,3.556,3.5552,3.5581,3.5587,3.5552,3.5441,3.5389,3.4682,3.3909,3.3421,3.4519,3.4738,3.4119,3.4952,3.5395,3.5417,3.5463,3.5496,3.5477,3.5502,3.5483,3.5477,3.5468,3.5474,3.5493,3.5474,3.5467,3.55,3.5467,3.546,3.5412,3.5386,3.5372,3.5315,3.5323,3.533,3.5323,3.5315,3.5315,3.5289,3.5281,3.53,3.5315,3.5364,3.5388,3.5411,3.5444,3.5483,3.549,3.5554,3.5591,3.5598,3.5596,3.5595,3.5601,3.5604,3.5596,3.5602,3.5684,3.6049,3.6667,3.6988,3.7361,3.8243,3.9068,3.9549,3.9536,3.9755,4.0202,4.0699,4.0897,4.0925,4.0983,4.1007,4.1019,4.1011,4.102,4.1005,4.1011,4.1013,4.1011,4.1003,4.1,4.0992,4.1003,4.1048,4.1075,4.11,4.1103,4.1045,4.1007,4.0997,4.0997,4.1039,4.107,4.1078,4.1069,4.1061,4.1087,4.109,4.1101,4.1106,4.1109,4.1099,4.1102,4.11,4.1098,4.1117,3.794,3.7931,3.7398,3.7063,3.6739,3.6248,3.5824,3.5635,3.5708,3.5742,3.5645,3.5106,3.4839,3.466,3.3962,3.3147,3.2527,3.3945,3.4281,3.3801,3.4896,3.5546,3.5546,3.5552,3.5584,3.554,3.5522,3.549,3.5502,3.5482,3.55,3.55,3.55,3.55,3.55,3.55,3.5474,3.5467,3.5479,3.546,3.5434,3.5442,3.5437,3.5437,3.5483,3.5489,3.5509,3.5415,3.54,3.5449,3.5469,3.5502,3.5527,3.5552,3.5564,3.5581,3.5593,3.5629,3.567,3.5672,3.5698,3.5737,3.5718,3.5732,3.5833,3.6278,3.6746,3.7156,3.7588,3.8334,3.916,3.9539,3.9733,3.9656,4.0177,4.0602,4.0887,4.1003,4.1037,4.1061,4.107,4.1072,4.1076,4.106,4.1067,4.1069,4.1069,4.1067,4.1065,4.1062,4.1056,4.1072,4.1115,4.1117,4.1099,4.1103,4.1076,4.1061,4.1052,4.1044,4.1079,4.1107,4.1113,4.1101,4.1108,4.1112,4.1114,4.1117,4.11,4.1102,4.1105,4.1107,4.1107,4.1106,4.1105,3.721,3.7176,3.6687,3.6508,3.6481,3.5974,3.5776,3.5779,3.5817,3.5843,3.5707,3.5291,3.5035,3.4841,3.4114,3.3469,3.3103,3.4091,3.4221,3.3913,3.4986,3.5644,3.5662,3.5646,3.5629,3.562,3.5572,3.5528,3.5547,3.5495,3.55,3.55,3.55,3.55,3.55,3.5481,3.5488,3.5501,3.5489,3.5495,3.5528,3.5534,3.5547,3.5554,3.5566,3.5604,3.559,3.5496,3.549,3.5527,3.5546,3.5606,3.5626,3.5662,3.5672,3.5669,3.5684,3.5699,3.5727,3.573,3.5771,3.5834,3.5838,3.6008,3.6307,3.6907,3.7274,3.8104,3.8606,3.9285,4.0062,4.0285,4.0259,4.0231,4.0674,4.1025,4.1047,4.1087,4.1103,4.1095,4.1101,4.1104,4.1107,4.1108,4.111,4.1111,4.1111,4.111,4.111,4.1108,4.1106,4.1105,4.1104,4.1104,4.1104,4.1104,4.1105,4.1099,4.109,4.1087,4.1108,4.1111,4.1114,4.1116,4.1101,4.1101,4.1102,4.1106,4.1108,4.1109,4.111,4.115,4.1151,4.111,4.1109,3.583,3.5807,3.5811,3.5885,3.595,3.5907,3.5892,3.5897,3.5906,3.5908,3.5886,3.5663,3.5678,3.5558,3.4633,3.4199,3.4491,3.4491,3.4589,3.472,3.5387,3.5797,3.577,3.5708,3.5683,3.5687,3.5633,3.5598,3.5572,3.5521,3.55,3.55,3.55,3.55,3.5481,3.5481,3.5489,3.5496,3.5509,3.5547,3.5585,3.5598,3.5598,3.5604,3.561,3.5628,3.5626,3.5615,3.5615,3.5623,3.5662,3.5698,3.5728,3.5751,3.578,3.5793,3.581,3.5811,3.5799,3.5797,3.5911,3.6083,3.615,3.6343,3.7147,3.7546,3.8159,3.9332,3.973,4.0168,4.0839,4.0982,4.0988,4.1071,4.1058,4.1087,4.1112,4.1103,4.1108,4.111,4.1113,4.1113,4.1112,4.1111,4.111,4.1108,4.1108,4.1109,4.111,4.1112,4.1112,4.1113,4.1113,4.1113,4.1113,4.1113,4.1113,4.1113,4.1111,4.111,4.1108,4.1108,4.1109,4.111,4.111,4.111,4.111,4.1112,4.1113,4.1113,4.1133,4.1191,4.1172,4.1132,4.1113,3.5872,3.587,3.5886,3.5896,3.5903,3.5957,3.5962,3.5982,3.5964,3.5965,3.5865,3.5274,3.5115,3.4919,3.4171,3.37,3.3993,3.4459,3.4674,3.4805,3.5502,3.5827,3.5795,3.5742,3.5708,3.5702,3.5651,3.5617,3.5591,3.5521,3.5507,3.55,3.55,3.5481,3.5488,3.5495,3.5496,3.5509,3.5554,3.5585,3.5604,3.5622,3.5614,3.5614,3.5648,3.5676,3.5672,3.5728,3.5718,3.5684,3.5742,3.5756,3.5817,3.5838,3.5924,3.6027,3.596,3.5911,3.5933,3.5936,3.6202,3.6777,3.6861,3.7244,3.8086,3.874,3.927,3.9916,4.0328,4.0819,4.1054,4.1113,4.1111,4.1107,4.1093,4.1092,4.1113,4.1113,4.1111,4.1108,4.1104,4.11,4.1097,4.1111,4.1108,4.1104,4.1103,4.1104,4.1088,4.1093,4.1095,4.1098,4.11,4.1102,4.1104,4.1105,4.1105,4.1106,4.1108,4.1111,4.1112,4.1113,4.1112,4.1112,4.1113,4.1113,4.1112,4.1111,4.1111,4.1112,4.1131,4.115,4.113,4.1111,4.1111,3.5949,3.5957,3.5926,3.595,3.5933,3.5976,3.6016,3.6015,3.6015,3.6015,3.5879,3.5488,3.5253,3.5175,3.4722,3.4506,3.4564,3.5013,3.5247,3.5324,3.5742,3.5895,3.5836,3.5775,3.5741,3.5733,3.5654,3.5628,3.5591,3.5534,3.5501,3.5488,3.55,3.5494,3.5495,3.5496,3.5509,3.5547,3.559,3.5622,3.5659,3.5651,3.5648,3.566,3.5697,3.5834,3.6203,3.6341,3.619,3.5885,3.5829,3.6013,3.6363,3.64,3.658,3.6919,3.6991,3.7023,3.6998,3.7017,3.7261,3.7658,3.7768,3.8202,3.8886,3.955,3.9842,4.0388,4.0836,4.1048,4.1101,4.1114,4.1103,4.1095,4.1067,4.1078,4.1103,4.1101,4.1114,4.1104,4.1117,4.1087,4.1064,4.1072,4.1067,4.1042,4.1017,4.1039,4.1061,4.1072,4.1059,4.1061,4.1066,4.107,4.1095,4.1097,4.1103,4.1103,4.1083,4.1088,4.1095,4.11,4.1102,4.1102,4.1103,4.1103,4.1102,4.1104,4.1108,4.1109,4.1108,4.1107,4.1107,4.1105,4.1105,3.6014,3.6015,3.5976,3.5975,3.5973,3.5985,3.6,3.5979,3.5992,3.5989,3.5953,3.5964,3.5852,3.597,3.5701,3.5918,3.5898,3.5839,3.5898,3.5918,3.5993,3.5953,3.5897,3.5846,3.5799,3.5788,3.5674,3.5623,3.559,3.5528,3.5483,3.5494,3.55,3.5489,3.5496,3.5509,3.5547,3.5589,3.5626,3.5637,3.5673,3.5684,3.5701,3.5716,3.5979,3.6445,3.699,3.7214,3.6946,3.6165,3.6144,3.6654,3.7274,3.7328,3.7639,3.8144,3.8221,3.8274,3.8419,3.8312,3.8552,3.8652,3.871,3.9077,3.9737,4.0063,4.0331,4.0893,4.1085,4.1097,4.1087,4.1086,4.1073,4.1045,4.1016,4.1014,4.1064,4.1072,4.1083,4.1089,4.1098,4.1042,4.1007,4.099,4.0979,4.0956,4.0929,4.0956,4.0979,4.0986,4.0993,4.0981,4.1007,4.1033,4.1045,4.1073,4.1081,4.1086,4.1064,4.1069,4.1085,4.1094,4.1103,4.1106,4.1108,4.1109,4.1111,4.1115,4.1101,4.1102,4.1117,4.1101,4.1105,4.1102,4.1101,3.6008,3.6002,3.5952,3.5924,3.5921,3.5923,3.5912,3.5912,3.5909,3.5926,3.5912,3.5912,3.5921,3.5921,3.5975,3.6021,3.6001,3.6002,3.6005,3.6013,3.6015,3.6013,3.5974,3.5914,3.5853,3.5795,3.5708,3.5651,3.5601,3.554,3.5483,3.5488,3.5488,3.5482,3.5509,3.5554,3.5584,3.5601,3.5662,3.5679,3.5704,3.5764,3.5818,3.5911,3.6469,3.7228,3.7926,3.8169,3.8095,3.7981,3.7948,3.8057,3.8188,3.8226,3.8397,3.8605,3.8676,3.8645,3.861,3.8769,3.8925,3.9487,3.9578,3.99,4.0712,4.0754,4.0859,4.1089,4.1059,4.1028,4.1033,4.1029,4.0991,4.0957,4.0937,4.0928,4.0953,4.099,4.1026,4.102,4.0976,4.0953,4.0925,4.09,4.0882,4.0869,4.0869,4.0893,4.0897,4.0897,4.0906,4.0896,4.0932,4.0945,4.0984,4.0999,4.1013,4.1039,4.1016,4.1013,4.1036,4.1053,4.1064,4.1074,4.1103,4.1105,4.1087,4.1111,4.1115,4.1099,4.1104,4.1109,4.1112,4.1112,4.1114,3.5955,3.5947,3.5929,3.5883,3.5897,3.5852,3.5859,3.5856,3.5846,3.5862,3.585,3.5858,3.5853,3.5855,3.5919,3.5949,3.5949,3.5953,3.5965,3.5999,3.6008,3.6013,3.5996,3.5958,3.5897,3.5846,3.5773,3.5693,3.561,3.5565,3.5534,3.5489,3.5494,3.5521,3.5522,3.5585,3.5602,3.5637,3.5698,3.5704,3.5729,3.6123,3.661,3.691,3.7484,3.8105,3.8971,3.9072,3.9318,3.9589,3.9694,3.9501,3.9176,3.9132,3.9298,3.9678,3.9743,3.9765,3.9785,3.978,4.0006,4.0345,4.0391,4.0611,4.0944,4.1055,4.102,4.1009,4.0976,4.0953,4.0945,4.0943,4.0902,4.0859,4.0849,4.0828,4.0828,4.0893,4.0956,4.0948,4.0917,4.0874,4.0835,4.0828,4.0796,4.0767,4.0711,4.0736,4.0792,4.0798,4.0796,4.0793,4.0839,4.0864,4.0893,4.0915,4.0956,4.096,4.0956,4.0956,4.0964,4.0988,4.099,4.1026,4.1045,4.1053,4.1037,4.1078,4.1106,4.11,4.1109,4.1109,4.1111,4.1115,4.1115,3.5683,3.5699,3.584,3.5892,3.5866,3.5815,3.578,3.5776,3.5775,3.5791,3.5795,3.5791,3.581,3.5817,3.5862,3.5875,3.5883,3.5894,3.5914,3.597,3.5963,3.5977,3.597,3.5957,3.594,3.5894,3.583,3.5732,3.5648,3.5601,3.5578,3.5515,3.5495,3.5522,3.5572,3.5604,3.5628,3.5673,3.5897,3.6019,3.6146,3.6778,3.7579,3.8339,3.8544,3.905,3.9754,4.0034,4.0291,4.1048,4.1114,4.0706,4.024,4.0048,4.0268,4.1015,4.0879,4.0817,4.0789,4.0914,4.0976,4.1106,4.1053,4.1013,4.0983,4.0976,4.0956,4.0911,4.0888,4.0864,4.0864,4.0853,4.0826,4.0779,4.0769,4.0739,4.0713,4.079,4.0832,4.0853,4.0807,4.0784,4.0744,4.0707,4.0707,4.0666,4.0607,4.0581,4.064,4.068,4.0688,4.0694,4.0732,4.0759,4.0793,4.0828,4.0854,4.0859,4.0878,4.0883,4.0883,4.0903,4.0911,4.0953,4.0976,4.0986,4.0997,4.1046,4.1061,4.11,4.1089,4.1072,4.1091,4.1113,4.1113,3.4734,3.4812,3.5503,3.5806,3.5821,3.5736,3.5727,3.5727,3.5698,3.5718,3.5722,3.5765,3.5778,3.5747,3.5783,3.5811,3.5693,3.5746,3.5843,3.5906,3.5926,3.5925,3.5923,3.5928,3.5918,3.5885,3.5824,3.5764,3.5689,3.5643,3.5606,3.5572,3.5534,3.5554,3.5584,3.5616,3.5672,3.593,3.6303,3.6585,3.6961,3.7632,3.8535,3.938,3.9501,3.9905,4.0529,4.0835,4.0976,4.109,4.1108,4.1014,4.0839,4.0781,4.0898,4.1033,4.1103,4.1112,4.1094,4.1096,4.1064,4.1029,4.1011,4.0992,4.0935,4.0903,4.0868,4.0818,4.0765,4.073,4.0744,4.0739,4.0701,4.0648,4.0621,4.0598,4.0564,4.0586,4.0641,4.0675,4.0688,4.0694,4.0647,4.0598,4.0554,4.0523,4.0489,4.0446,4.0454,4.0504,4.0561,4.0579,4.0614,4.0655,4.0706,4.0712,4.073,4.0756,4.0756,4.0773,4.0792,4.0818,4.0832,4.0869,4.0915,4.0921,4.0953,4.0988,4.1006,4.1026,4.1036,4.1045,4.107,4.1073,4.1081,3.4448,3.4526,3.5345,3.5703,3.5684,3.5658,3.5643,3.5643,3.5651,3.5646,3.5651,3.5672,3.5417,3.5132,3.5059,3.5072,3.5161,3.5596,3.5757,3.5845,3.5853,3.5855,3.5875,3.588,3.5885,3.5879,3.5861,3.5808,3.5764,3.5694,3.5637,3.5587,3.5559,3.5559,3.5589,3.5614,3.5877,3.6259,3.6729,3.721,3.7713,3.8539,3.9417,4.0112,4.0361,4.0627,4.09,4.1066,4.1109,4.1103,4.1112,4.1113,4.1109,4.1106,4.1104,4.1098,4.1104,4.1083,4.1056,4.1033,4.0999,4.0952,4.0921,4.0888,4.0848,4.0804,4.0757,4.0713,4.0688,4.0628,4.0588,4.0586,4.0564,4.0508,4.0496,4.0484,4.0452,4.0463,4.0484,4.0508,4.0508,4.0512,4.0489,4.046,4.0411,4.0358,4.0349,4.0313,4.0304,4.0358,4.0419,4.0441,4.0481,4.0549,4.0588,4.0602,4.0628,4.0635,4.0641,4.0662,4.0675,4.0707,4.0732,4.0781,4.0818,4.0849,4.0897,4.095,4.0941,4.0964,4.0999,4.1029,4.1042,4.1052,4.1058,3.4091,3.4188,3.5148,3.5554,3.5548,3.5564,3.5558,3.5552,3.5553,3.556,3.5566,3.5507,3.5075,3.4483,3.4375,3.4413,3.4459,3.5296,3.5694,3.5745,3.5752,3.5757,3.5794,3.5861,3.5884,3.5899,3.5898,3.5858,3.5827,3.5752,3.5699,3.5643,3.5606,3.5608,3.5606,3.5626,3.6165,3.6679,3.7154,3.7674,3.8725,3.95,4.0198,4.0914,4.0979,4.0997,4.1076,4.1101,4.11,4.1111,4.1113,4.1108,4.1111,4.1081,4.1076,4.107,4.1074,4.105,4.1013,4.0976,4.0935,4.0854,4.0782,4.0761,4.0732,4.0674,4.0612,4.0565,4.0543,4.05,4.0449,4.0441,4.0417,4.0383,4.0339,4.0349,4.0325,4.0317,4.028,4.0306,4.0313,4.0341,4.0323,4.0334,4.0289,4.0243,4.0215,4.0225,4.0215,4.0234,4.0271,4.0307,4.0341,4.0408,4.0457,4.0516,4.0523,4.0531,4.0546,4.0542,4.0564,4.0586,4.0628,4.0681,4.0713,4.0754,4.0832,4.0888,4.0903,4.093,4.0971,4.0988,4.0988,4.0999,4.1009,3.307,3.3205,3.479,3.5425,3.5425,3.5431,3.5431,3.5431,3.5424,3.5412,3.5424,3.5335,3.4873,3.4212,3.4141,3.4216,3.4502,3.5143,3.559,3.5623,3.5639,3.5645,3.5708,3.5775,3.5846,3.5866,3.5876,3.5896,3.5869,3.5804,3.5745,3.5694,3.5658,3.5621,3.5665,3.5629,3.6043,3.6859,3.7657,3.8808,4.0109,4.0607,4.0831,4.0937,4.1013,4.1031,4.1087,4.1109,4.1106,4.1113,4.1108,4.1115,4.1095,4.1061,4.1029,4.1016,4.1013,4.0986,4.092,4.0893,4.0848,4.0756,4.0662,4.0621,4.0564,4.0492,4.0441,4.0438,4.0377,4.0334,4.0279,4.0252,4.0243,4.0234,4.0225,4.0206,4.0186,4.0186,4.0158,4.0128,4.0148,4.0148,4.0167,4.0186,4.0196,4.0138,4.0108,4.0108,4.0118,4.0138,4.0167,4.0215,4.0234,4.0298,4.0334,4.0368,4.0413,4.0413,4.0447,4.0444,4.0457,4.0489,4.0539,4.0583,4.0621,4.0662,4.0707,4.0761,4.0832,4.0868,4.0888,4.0897,4.0909,4.0941,4.0972,3.2754,3.2943,3.4572,3.5281,3.53,3.53,3.5281,3.5281,3.5281,3.5281,3.5166,3.4771,3.3897,3.3062,3.3127,3.3429,3.3776,3.4886,3.547,3.5476,3.5489,3.5519,3.5577,3.5639,3.5712,3.5779,3.583,3.5869,3.5878,3.5873,3.5837,3.5807,3.5736,3.5708,3.5713,3.5687,3.6154,3.705,3.8233,3.9564,4.0493,4.0907,4.0995,4.0996,4.1042,4.1083,4.1094,4.1099,4.1111,4.1112,4.1099,4.1094,4.1044,4.1023,4.1,4.0945,4.0902,4.0869,4.0844,4.0804,4.0719,4.0636,4.0537,4.0468,4.0383,4.0313,4.0269,4.0281,4.0262,4.0215,4.0148,4.0138,4.0147,4.0128,4.0108,4.0098,4.0067,4.0057,4.0027,3.9996,3.9973,3.9965,3.9986,4.0007,4.0017,4.0015,3.9975,3.9975,4.0015,4.0046,4.0087,4.0147,4.0176,4.0186,4.0215,4.0244,4.0272,4.0309,4.0353,4.0351,4.0368,4.0402,4.0436,4.046,4.0489,4.0542,4.0593,4.0662,4.0751,4.0787,4.0796,4.0833,4.0845,4.0902,4.0935,3.2365,3.2773,3.4454,3.5176,3.5176,3.5196,3.5176,3.5196,3.5176,3.5062,3.4604,3.3791,3.2661,3.211,3.2536,3.3006,3.3322,3.469,3.523,3.5348,3.535,3.5378,3.5457,3.5508,3.5579,3.5665,3.5749,3.5797,3.5871,3.5878,3.5884,3.5886,3.5838,3.5786,3.5747,3.582,3.6221,3.7445,3.878,3.9906,4.0683,4.0941,4.0975,4.1011,4.1052,4.1113,4.1099,4.1103,4.1113,4.1106,4.1106,4.1074,4.1007,4.0976,4.0927,4.0862,4.0784,4.0724,4.0707,4.0674,4.0626,4.0527,4.0425,4.0307,4.0215,4.0158,4.0129,4.0118,4.0098,4.0057,4.0026,3.9986,3.9965,3.9965,3.9965,3.9994,3.9994,3.9922,3.9859,3.9815,3.977,3.9735,3.977,3.9796,3.9837,3.9856,3.9856,3.9856,3.9878,3.9911,3.9933,3.9984,3.9996,4.0027,4.0077,4.0098,4.0128,4.0186,4.0225,4.0262,4.0252,4.028,4.0335,4.0362,4.0377,4.0427,4.0473,4.0583,4.068,4.0694,4.0726,4.0769,4.0809,4.0858,4.0888,3.1646,3.2487,3.4308,3.5101,3.512,3.5101,3.5101,3.5101,3.5101,3.4644,3.3864,3.2444,3.2148,3.2411,3.2672,3.3134,3.384,3.4789,3.5138,3.5215,3.5234,3.5262,3.5323,3.5388,3.5483,3.5587,3.5654,3.5724,3.582,3.5862,3.5879,3.5894,3.5875,3.5836,3.5803,3.5827,3.6629,3.7797,3.8986,3.9927,4.0631,4.0969,4.0988,4.1011,4.1061,4.1105,4.1108,4.1108,4.1113,4.1117,4.1087,4.1064,4.1,4.0927,4.084,4.0758,4.0668,4.0559,4.0489,4.0523,4.0527,4.0402,4.0271,4.0157,4.0077,4.0046,4.0005,3.9933,3.99,3.9815,3.9789,3.9743,3.9758,3.977,3.9781,3.9781,3.977,3.9735,3.9689,3.9635,3.9587,3.957,3.9514,3.9563,3.967,3.9701,3.9724,3.9724,3.9724,3.9747,3.9747,3.977,3.9815,3.9848,3.9922,3.9943,3.9975,4.0017,4.0068,4.0108,4.0118,4.0157,4.0253,4.0234,4.0252,4.0316,4.0388,4.0444,4.0535,4.0595,4.0646,4.0655,4.0713,4.0767,4.0796,3.1196,3.1676,3.3393,3.4444,3.4965,3.4984,3.4964,3.4983,3.4964,3.4508,3.3682,3.2607,3.2216,3.2613,3.316,3.3481,3.3946,3.4755,3.5049,3.5145,3.5153,3.516,3.519,3.5231,3.5274,3.5404,3.5483,3.5568,3.5668,3.5791,3.5867,3.5896,3.5939,3.5885,3.5856,3.597,3.6875,3.7953,3.8772,3.9457,4.0689,4.0954,4.0996,4.1,4.1056,4.1095,4.1116,4.1113,4.1106,4.1097,4.1053,4.0991,4.0931,4.084,4.0739,4.0631,4.0539,4.0411,4.0307,4.0334,4.0325,4.0148,4.0038,3.9984,3.9889,3.9826,3.9781,3.9735,3.9701,3.9654,3.9587,3.9594,3.9587,3.9575,3.9575,3.9582,3.9551,3.9526,3.9508,3.9439,3.9433,3.9426,3.9369,3.9311,3.9439,3.9539,3.9563,3.9575,3.9575,3.9606,3.9618,3.9618,3.9665,3.9693,3.977,3.9792,3.9815,3.987,3.9933,3.9943,3.9994,4.0096,4.0157,4.0138,4.0148,4.0177,4.0244,4.0299,4.037,4.0452,4.0496,4.053,4.0595,4.0688,4.0713,3.0639,3.1081,3.2463,3.3615,3.4461,3.4793,3.4917,3.4908,3.4908,3.4434,3.3657,3.2859,3.264,3.298,3.3415,3.3964,3.4249,3.4763,3.4972,3.5029,3.5038,3.5037,3.5063,3.5079,3.5138,3.5235,3.5333,3.5438,3.5552,3.5669,3.5774,3.5925,3.6129,3.6203,3.594,3.6249,3.7043,3.8313,3.8857,3.9397,4.08,4.0975,4.0991,4.1002,4.1047,4.1103,4.1104,4.1113,4.1076,4.1052,4.1009,4.0926,4.0807,4.0713,4.0598,4.0492,4.0377,4.0234,4.0167,4.0109,4.0059,3.9903,3.9826,3.9758,3.9677,3.9611,3.9575,3.9551,3.9545,3.9508,3.9427,3.9401,3.9376,3.9363,3.935,3.935,3.9337,3.9324,3.9304,3.9264,3.9256,3.9215,3.9175,3.9115,3.9178,3.9311,3.9363,3.9389,3.9401,3.9446,3.9533,3.9527,3.9552,3.9582,3.9623,3.9647,3.967,3.977,3.9804,3.9834,3.9897,3.9973,4.0015,3.9986,3.9996,4.0046,4.0098,4.0177,4.0243,4.0325,4.0383,4.0457,4.0492,4.0566,4.0614,2.9944,3.0785,3.1667,3.2627,3.3599,3.4517,3.4887,3.4878,3.4803,3.4434,3.3752,3.2927,3.2994,3.3552,3.3875,3.4197,3.4605,3.4832,3.4908,3.4927,3.4927,3.4945,3.4983,3.5011,3.5,3.5105,3.5215,3.5315,3.5412,3.5554,3.566,3.6168,3.6672,3.6867,3.6108,3.6776,3.8021,3.9374,3.9546,4.0131,4.0762,4.0991,4.099,4.1013,4.1054,4.1108,4.111,4.111,4.1081,4.1006,4.0941,4.0833,4.0713,4.0571,4.046,4.0325,4.0167,4.0027,3.9911,3.9848,3.977,3.9693,3.9623,3.9563,3.9514,3.9452,3.9407,3.935,3.9375,3.9328,3.9269,3.9178,3.917,3.9142,3.9129,3.9096,3.9082,3.9101,3.9078,3.9031,3.9021,3.8979,3.8935,3.8906,3.8946,3.9045,3.9156,3.9197,3.9224,3.929,3.9362,3.9419,3.9426,3.9508,3.9527,3.9521,3.9551,3.9642,3.9701,3.9712,3.9743,3.98,3.9823,3.9834,3.9867,3.9911,3.9984,4.0046,4.0089,4.0139,4.0298,4.0386,4.0406,4.0438,4.0454,2.9421,2.9896,3.1288,3.2083,3.2641,3.4081,3.4747,3.4724,3.4339,3.4188,3.4292,3.3619,3.3724,3.4283,3.4462,3.4594,3.4764,3.483,3.483,3.483,3.483,3.484,3.4878,3.4879,3.4898,3.4954,3.5054,3.5168,3.5258,3.5391,3.5926,3.6515,3.737,3.7786,3.7734,3.8054,3.8715,3.957,3.9825,4.0153,4.0889,4.0997,4.099,4.1019,4.1085,4.1098,4.1093,4.1101,4.1037,4.094,4.0849,4.0699,4.0566,4.0417,4.027,4.0129,3.9975,3.9717,3.9551,3.9452,3.9439,3.9439,3.9439,3.9376,3.9298,3.9232,3.9183,3.9142,3.9152,3.9096,3.9021,3.8964,3.8921,3.8873,3.8859,3.8781,3.8766,3.8822,3.8825,3.8807,3.8777,3.871,3.8664,3.8683,3.8725,3.877,3.8859,3.8979,3.9021,3.9101,3.9183,3.9256,3.9296,3.9399,3.9438,3.9426,3.9452,3.9546,3.9588,3.9606,3.963,3.9661,3.9696,3.9731,3.9754,3.977,3.9845,3.9889,3.9859,3.9935,4.0099,4.0225,4.0243,4.0251,4.0278,2.9078,2.9359,3.099,3.1737,3.2099,3.3802,3.4695,3.4694,3.4262,3.4358,3.4661,3.4302,3.4339,3.4755,3.4868,3.4848,3.4788,3.4798,3.4798,3.4788,3.4798,3.4809,3.4798,3.4788,3.4849,3.486,3.4908,3.5001,3.5098,3.5231,3.6022,3.7154,3.8164,3.8813,3.9031,3.9247,3.9393,4.0108,4.0427,4.0543,4.0935,4.1042,4.1044,4.1042,4.1067,4.1108,4.1092,4.1044,4.0997,4.0867,4.0709,4.0556,4.0406,4.0233,4.007,3.9935,3.9705,3.9458,3.9285,3.9156,3.917,3.917,3.9165,3.9156,3.9073,3.9036,3.8946,3.8906,3.8896,3.8851,3.8788,3.8713,3.8683,3.8649,3.8603,3.8556,3.8556,3.8609,3.8627,3.8593,3.8559,3.8494,3.8446,3.8446,3.8478,3.851,3.8575,3.8683,3.8822,3.8921,3.9017,3.9092,3.9147,3.9221,3.9275,3.9296,3.9367,3.9457,3.947,3.9483,3.9533,3.9564,3.9607,3.9637,3.9691,3.9715,3.972,3.9724,3.9747,3.9781,3.9881,3.9977,4.0077,4.0099,4.0109,2.8905,2.9167,3.0754,3.1525,3.1939,3.3725,3.4634,3.4778,3.4751,3.4781,3.4868,3.4781,3.4762,3.482,3.4827,3.4768,3.4728,3.4728,3.4747,3.4747,3.4708,3.4728,3.4747,3.4747,3.4728,3.4759,3.481,3.4821,3.4936,3.5521,3.649,3.7788,3.8838,3.9551,3.9942,4.0039,4.0164,4.0618,4.084,4.0894,4.1042,4.1067,4.109,4.1078,4.1108,4.1094,4.1059,4.103,4.0914,4.0779,4.059,4.0399,4.0223,4.005,3.9884,3.967,3.9427,3.9245,3.9073,3.8968,3.8862,3.8844,3.8906,3.8877,3.8815,3.8788,3.8743,3.868,3.8667,3.8606,3.8541,3.851,3.8478,3.8446,3.8433,3.8401,3.8401,3.8401,3.8401,3.8401,3.8401,3.8368,3.8338,3.8322,3.8354,3.8354,3.8419,3.8483,3.8624,3.8762,3.8866,3.8935,3.8997,3.9036,3.9106,3.9175,3.9242,3.9328,3.9354,3.9375,3.9425,3.9469,3.9502,3.9564,3.9614,3.9638,3.9607,3.9625,3.9661,3.9708,3.972,3.9792,3.9889,3.9911,3.9924,2.8779,2.8998,3.065,3.1397,3.1734,3.3462,3.4363,3.4591,3.4634,3.4706,3.4768,3.4788,3.4747,3.4695,3.4674,3.4612,3.4569,3.4517,3.4506,3.4517,3.4539,3.4517,3.4517,3.4528,3.4539,3.4572,3.4604,3.4636,3.5011,3.5702,3.7062,3.8451,3.9327,4.0018,4.0236,4.0332,4.0604,4.0817,4.0959,4.1005,4.1034,4.1054,4.1074,4.1094,4.1074,4.1062,4.1022,4.0945,4.0825,4.0649,4.0462,4.0276,4.007,3.9829,3.9611,3.9311,3.9142,3.9021,3.8851,3.878,3.8686,3.8575,3.859,3.8606,3.8556,3.8541,3.8512,3.8496,3.8481,3.8433,3.8417,3.8385,3.8368,3.8354,3.8305,3.8289,3.8289,3.8289,3.8289,3.8289,3.8307,3.8307,3.8257,3.8241,3.8274,3.8241,3.8257,3.834,3.8435,3.8593,3.8701,3.8792,3.8896,3.895,3.8993,3.905,3.9133,3.9215,3.9229,3.9288,3.936,3.9405,3.9431,3.9469,3.952,3.9502,3.9476,3.9496,3.9558,3.9496,3.9508,3.9601,3.9696,3.972,3.9766,2.8687,2.8906,3.0183,3.113,3.2032,3.3368,3.4099,3.4269,3.4427,3.4547,3.4604,3.4634,3.4612,3.458,3.4528,3.4473,3.4393,3.4393,3.4381,3.4328,3.4316,3.4328,3.4316,3.4316,3.434,3.4381,3.4393,3.4397,3.4926,3.6182,3.7588,3.851,3.9533,3.9918,4.0091,4.0185,4.033,4.0535,4.0725,4.0844,4.0927,4.0969,4.1013,4.1051,4.1028,4.0974,4.0928,4.0833,4.0672,4.0481,4.0285,4.0052,3.9829,3.9563,3.935,3.9087,3.8954,3.887,3.8719,3.8596,3.8501,3.8403,3.8354,3.8336,3.8387,3.8387,3.8354,3.8338,3.8322,3.8303,3.8305,3.8307,3.8274,3.8276,3.8242,3.8209,3.8209,3.8209,3.8209,3.8209,3.8209,3.8209,3.8209,3.8209,3.8209,3.8209,3.8242,3.8257,3.8338,3.8449,3.8559,3.8637,3.8758,3.8881,3.8906,3.895,3.9021,3.9092,3.9106,3.9166,3.928,3.932,3.9333,3.936,3.9418,3.9386,3.9373,3.9399,3.9425,3.9373,3.9373,3.9476,3.9533,3.9546,3.9576,2.86,2.8685,2.9528,3.0844,3.2381,3.3253,3.3682,3.3852,3.4093,3.4328,3.442,3.4416,3.4409,3.4416,3.4374,3.4335,3.4276,3.4264,3.4221,3.4185,3.4185,3.4185,3.4185,3.4185,3.4197,3.4185,3.4222,3.4315,3.4797,3.6,3.7355,3.8264,3.9185,3.9667,3.9747,3.987,3.9967,4.007,4.034,4.0552,4.0718,4.0821,4.0915,4.0928,4.0894,4.0835,4.0756,4.0642,4.0496,4.0267,4.0031,3.9791,3.9508,3.9272,3.9073,3.8935,3.8777,3.8689,3.858,3.8453,3.8338,3.829,3.8242,3.8241,3.8257,3.829,3.8274,3.8257,3.8257,3.8257,3.8259,3.8259,3.8242,3.8242,3.8225,3.8209,3.8209,3.8209,3.8209,3.8209,3.8209,3.8209,3.8209,3.8209,3.8209,3.8209,3.8209,3.8224,3.8274,3.8352,3.8485,3.8546,3.8618,3.8758,3.8851,3.8896,3.8939,3.8983,3.9011,3.904,3.911,3.918,3.9215,3.9221,3.9225,3.9293,3.9307,3.9293,3.9293,3.9301,3.9301,3.9346,3.9386,3.9386,3.9451,2.86,2.8672,2.9546,3.0501,3.15,3.2369,3.2783,3.2905,3.3563,3.3948,3.4173,3.4203,3.4221,3.4197,3.4185,3.4155,3.4086,3.4074,3.4061,3.4036,3.4036,3.4005,3.4018,3.4023,3.4036,3.4036,3.4085,3.4323,3.5101,3.6131,3.7082,3.7971,3.8835,3.9337,3.935,3.9477,3.9566,3.9618,3.9825,4.013,4.0371,4.0558,4.0679,4.0682,4.0659,4.0584,4.0504,4.0412,4.0183,3.9934,3.9788,3.9514,3.9156,3.8979,3.8851,3.8765,3.8593,3.8499,3.8437,3.834,3.8274,3.8224,3.8209,3.8209,3.8209,3.8225,3.8225,3.8209,3.8209,3.8209,3.8281,3.8281,3.8337,3.8319,3.8337,3.8337,3.8337,3.8319,3.8319,3.8281,3.8263,3.8245,3.8263,3.8209,3.8209,3.8209,3.8209,3.8225,3.8242,3.8307,3.8514,3.8593,3.8512,3.8603,3.8713,3.8792,3.8837,3.8896,3.8939,3.8954,3.8968,3.9007,3.9064,3.9026,3.9011,3.9096,3.9138,3.9096,3.911,3.9147,3.9175,3.9193,3.9193,3.9207,3.9288,2.8574,2.869,2.9502,3.0109,3.0643,3.146,3.1823,3.2009,3.2766,3.3203,3.3421,3.3788,3.3998,3.3972,3.3991,3.3934,3.3881,3.3868,3.3829,3.3815,3.3842,3.3802,3.3815,3.3884,3.3802,3.382,3.3867,3.4293,3.544,3.6062,3.6846,3.7929,3.8714,3.896,3.8974,3.9073,3.917,3.9187,3.9363,3.9583,3.9907,4.0089,4.0252,4.029,4.0274,4.0224,4.0136,4.0043,3.987,3.9595,3.9408,3.9197,3.8906,3.8743,3.8637,3.8562,3.8433,3.8338,3.8343,3.8312,3.826,3.8227,3.8209,3.8209,3.8209,3.8209,3.8209,3.8209,3.8209,3.8227,3.8735,3.888,3.9224,3.9369,3.946,3.9514,3.9514,3.9514,3.9242,3.8897,3.8807,3.8607,3.8517,3.8209,3.8209,3.8209,3.8209,3.8337,3.8334,3.8535,3.867,3.8771,3.8802,3.8606,3.8588,3.8667,3.8698,3.8792,3.9021,3.8973,3.9025,3.8947,3.891,3.8955,3.8969,3.8939,3.8968,3.8921,3.895,3.9007,3.9003,3.9003,3.9003,3.9036,3.911,2.8531,2.8714,2.9337,2.9639,2.9766,3.0557,3.0929,3.107,3.1851,3.2302,3.2525,3.3254,3.3588,3.3762,3.378,3.3739,3.3694,3.3707,3.3657,3.3629,3.3633,3.3858,3.3931,3.387,3.4049,3.4177,3.4254,3.4933,3.5878,3.6354,3.7058,3.8162,3.8486,3.8621,3.8655,3.8701,3.8788,3.8844,3.8942,3.9013,3.9261,3.9543,3.9767,3.9853,3.9821,3.9786,3.9705,3.9609,3.9477,3.9272,3.9059,3.9029,3.8977,3.891,3.9008,3.8966,3.9011,3.8835,3.8602,3.855,3.8372,3.8246,3.8228,3.8263,3.8264,3.8373,3.8373,3.8445,3.8445,3.8699,3.9224,3.9604,3.9985,4.0239,4.0347,4.0438,4.0438,4.042,4.0003,3.9568,3.9369,3.9152,3.8898,3.8572,3.8482,3.8445,3.8445,3.8482,3.8645,3.9027,3.9315,3.9365,3.9363,3.9101,3.8937,3.8985,3.9218,3.9394,3.9625,3.9332,3.912,3.9225,3.9191,3.905,3.9046,3.8902,3.8807,3.877,3.8818,3.8977,3.8892,3.8888,3.8921,3.8921,3.8939,2.8518,2.8618,2.8781,2.8835,2.8974,2.9707,3.0064,3.0191,3.0912,3.1601,3.2141,3.2391,3.2847,3.3629,3.3647,3.3601,3.3601,3.3601,3.3601,3.3605,3.3577,3.3978,3.436,3.4477,3.4917,3.5099,3.5226,3.5697,3.6194,3.6692,3.7103,3.7596,3.8287,3.843,3.8465,3.8496,3.8528,3.859,3.8621,3.868,3.884,3.9127,3.9421,3.9495,3.9495,3.9421,3.9331,3.9245,3.9101,3.8902,3.8872,3.9088,3.925,3.9423,3.9539,3.974,3.9783,3.9566,3.9332,3.9187,3.9043,3.8572,3.8572,3.8518,3.8681,3.9007,3.9097,3.9315,3.9405,3.9659,4.0075,4.0256,4.0528,4.0637,4.0745,4.0764,4.0764,4.0727,4.051,4.0329,4.0221,4.0076,3.9914,3.9733,3.9715,3.9678,3.9625,3.9643,3.957,3.9788,3.9914,3.9968,3.9986,4.0236,4.0336,4.0045,4.0151,4.0274,4.0255,4.0012,3.9792,3.9685,3.9611,3.953,3.9108,3.8818,3.8724,3.9132,3.8982,3.9124,3.8902,3.8818,3.8895,3.9028,3.9234]}]]